[[{"header":{"parameterUnit":"m.s-1","parameterCategory":1,"la1":30.6,"la2":28.766,"lo1":-90.7593,"lo2":-88.6598,"dy":0.0162,"dx":0.0183,"nx":116,"ny":114,"refTime":"2024-06-08T00:00:00:Z","depth":0,"parameterNumber":2,"parameterNumberName":"U-component_of_WINDS"},"data":[0.0,0.0,0.0,0.0,0.0,0.0,0.0,0.0,0.0,0.0,0.0,0.0,0.0,0.0,0.0,0.0,0.0,0.0,0.0,0.0,0.0,0.0,0.0,0.0,0.0,0.0,0.0,0.0,0.0,0.0,0.0,0.0,0.0,0.0,0.0,0.0,0.0,0.0,0.0,0.0,0.0,0.0,0.0,0.0,0.0,0.0,0.0,0.0,0.0,0.0,0.0,0.0,0.0,0.0,0.0,0.0,0.0,0.0,0.0,0.0,0.0,0.0,0.0,0.0,0.0,0.0,0.0,0.0,0.0,0.0,0.0,0.0,0.0,0.0,0.0,0.0,0.0,0.0,0.0,0.0,0.0,0.0,0.0,0.0,0.0,0.0,0.0,0.0,0.0,0.0,0.0,0.0,0.0,0.0,0.0,0.0,0.0,0.0,0.0,0.0,0.0,0.0,0.0,0.0,0.0,0.0,0.0,0.0,0.0,0.0,0.0,0.0,0.0,0.0,0.0,0.0,0.0,0.0,0.0,0.0,0.0,0.0,0.0,0.0,0.0,0.0,0.0,0.0,0.0,0.0,0.0,0.0,0.0,0.0,0.0,0.0,0.0,0.0,0.0,0.0,0.0,0.0,0.0,0.0,0.0,0.0,0.0,0.0,0.0,0.0,0.0,0.0,0.0,0.0,0.0,0.0,0.0,0.0,0.0,0.0,0.0,0.0,0.0,0.0,0.0,0.0,0.0,0.0,0.0,0.0,0.0,0.0,0.0,0.0,0.0,0.0,0.0,0.0,0.0,0.0,0.0,0.0,0.0,0.0,0.0,0.0,0.0,0.0,0.0,0.0,0.0,0.0,0.0,0.0,0.0,0.0,0.0,0.0,0.0,0.0,0.0,0.0,0.0,0.0,0.0,0.0,0.0,0.0,0.0,0.0,0.0,0.0,0.0,0.0,0.0,0.0,0.0,0.0,0.0,0.0,0.0,0.0,0.0,0.0,0.0,0.0,0.0,0.0,0.0,0.0,0.0,0.0,0.0,0.0,0.0,0.0,0.0,0.0,0.0,0.0,0.0,0.0,0.0,0.0,0.0,0.0,0.0,0.0,0.0,0.0,0.0,0.0,0.0,0.0,0.0,0.0,0.0,0.0,0.0,0.0,0.0,0.0,0.0,0.0,0.0,0.0,0.0,0.0,0.0,0.0,0.0,0.0,0.0,0.0,0.0,0.0,0.0,0.0,0.0,0.0,0.0,0.0,0.0,0.0,0.0,0.0,0.0,0.0,0.0,0.0,0.0,0.0,0.0,0.0,0.0,0.0,0.0,0.0,0.0,0.0,0.0,0.0,0.0,0.0,0.0,0.0,0.0,0.0,0.0,0.0,0.0,0.0,0.0,0.0,0.0,0.0,0.0,0.0,0.0,0.0,0.0,0.0,0.0,0.0,0.0,0.0,0.0,0.0,0.0,0.0,0.0,0.0,0.0,0.0,0.0,0.0,0.0,0.0,0.0,0.0,0.0,0.0,0.0,0.0,0.0,0.0,0.0,0.0,0.0,0.0,0.0,0.0,0.0,0.0,0.0,0.0,0.0,0.0,0.0,0.0,0.0,0.0,0.0,0.0,0.0,0.0,0.0,0.0,0.0,0.0,0.0,0.0,0.0,0.0,0.0,0.0,0.0,0.0,0.0,0.0,0.0,0.0,0.0,0.0,0.0,0.0,0.0,0.0,0.0,0.0,0.0,0.0,0.0,0.0,0.0,0.0,0.0,0.0,0.0,0.0,0.0,0.0,0.0,0.0,0.0,0.0,0.0,0.0,0.0,0.0,0.0,0.0,0.0,0.0,0.0,0.0,0.0,0.0,0.0,0.0,0.0,0.0,0.0,0.0,0.0,0.0,0.0,0.0,0.0,0.0,0.0,0.0,0.0,0.0,0.0,0.0,0.0,0.0,0.0,0.0,0.0,0.0,0.0,0.0,0.0,0.0,0.0,0.0,0.0,0.0,0.0,0.0,0.0,0.0,0.0,0.0,0.0,0.0,0.0,0.0,0.0,0.0,0.0,0.0,0.0,0.0,0.0,0.0,0.0,0.0,0.0,0.0,0.0,0.0,0.0,0.0,0.0,0.0,0.0,0.0,0.0,0.0,0.0,0.0,0.0,0.0,0.0,0.0,0.0,0.0,0.0,0.0,0.0,0.0,0.0,0.0,0.0,0.0,0.0,0.0,0.0,0.0,0.0,0.0,0.0,0.0,0.0,0.0,0.0,0.0,0.0,0.0,0.0,0.0,0.0,0.0,0.0,0.0,0.0,0.0,0.0,0.0,0.0,0.0,0.0,0.0,0.0,0.0,0.0,0.0,0.0,0.0,0.0,0.0,0.0,0.0,0.0,0.0,0.0,0.0,0.0,0.0,0.0,0.0,0.0,0.0,0.0,0.0,0.0,0.0,0.0,0.0,0.0,0.0,0.0,0.0,0.0,0.0,0.0,0.0,0.0,0.0,0.0,0.0,0.0,0.0,0.0,0.0,0.0,0.0,0.0,0.0,0.0,0.0,0.0,0.0,0.0,0.0,0.0,0.0,0.0,0.0,0.0,0.0,0.0,0.0,0.0,0.0,0.0,0.0,0.0,0.0,0.0,0.0,0.0,0.0,0.0,0.0,0.0,0.0,0.0,0.0,0.0,0.0,0.0,0.0,0.0,0.0,0.0,0.0,0.0,0.0,0.0,0.0,0.0,0.0,0.0,0.0,0.0,0.0,0.0,0.0,0.0,0.0,0.0,0.0,0.0,0.0,0.0,0.0,0.0,0.0,0.0,0.0,0.0,0.0,0.0,0.0,0.0,0.0,0.0,0.0,0.0,0.0,0.0,0.0,0.0,0.0,0.0,0.0,0.0,0.0,0.0,0.0,0.0,0.0,0.0,0.0,0.0,0.0,0.0,0.0,0.0,0.0,0.0,0.0,0.0,0.0,0.0,0.0,0.0,0.0,0.0,0.0,0.0,0.0,0.0,0.0,0.0,0.0,0.0,0.0,0.0,0.0,0.0,0.0,0.0,0.0,0.0,0.0,0.0,0.0,0.0,0.0,0.0,0.0,0.0,0.0,0.0,0.0,0.0,0.0,0.0,0.0,0.0,0.0,0.0,0.0,0.0,0.0,0.0,0.0,0.0,0.0,0.0,0.0,0.0,0.0,0.0,0.0,0.0,0.0,0.0,0.0,0.0,0.0,0.0,0.0,0.0,0.0,0.0,0.0,0.0,0.0,0.0,0.0,0.0,0.0,0.0,0.0,0.0,0.0,0.0,0.0,0.0,0.0,0.0,0.0,0.0,0.0,0.0,0.0,0.0,0.0,0.0,0.0,0.0,0.0,0.0,0.0,0.0,0.0,0.0,0.0,0.0,0.0,0.0,0.0,0.0,0.0,0.0,0.0,0.0,0.0,0.0,0.0,0.0,0.0,0.0,0.0,0.0,0.0,0.0,0.0,0.0,0.0,0.0,0.0,0.0,0.0,0.0,0.0,0.0,0.0,0.0,0.0,0.0,0.0,0.0,0.0,0.0,0.0,0.0,0.0,0.0,0.0,0.0,0.0,0.0,0.0,0.0,0.0,0.0,0.0,0.0,0.0,0.0,0.0,0.0,0.0,0.0,0.0,0.0,0.0,0.0,0.0,0.0,0.0,0.0,0.0,0.0,0.0,0.0,0.0,0.0,0.0,0.0,0.0,0.0,0.0,0.0,0.0,0.0,0.0,0.0,0.0,0.0,0.0,0.0,0.0,0.0,0.0,0.0,0.0,0.0,0.0,0.0,0.0,0.0,0.0,0.0,0.0,0.0,0.0,0.0,0.0,0.0,0.0,0.0,0.0,0.0,0.0,0.0,0.0,0.0,0.0,0.0,0.0,0.0,0.0,0.0,0.0,0.0,0.0,0.0,0.0,0.0,0.0,0.0,0.0,0.0,0.0,0.0,0.0,0.0,0.0,0.0,0.0,0.0,0.0,0.0,0.0,0.0,0.0,0.0,0.0,0.0,0.0,0.0,0.0,0.0,0.0,0.0,0.0,0.0,0.0,0.0,0.0,0.0,0.0,0.0,0.0,0.0,0.0,0.0,0.0,0.0,0.0,0.0,0.0,0.0,0.0,0.0,0.0,0.0,0.0,0.0,0.0,0.0,0.0,0.0,0.0,0.0,0.0,0.0,0.0,0.0,0.0,0.0,0.0,0.0,0.0,0.0,0.0,0.0,0.0,0.0,0.0,0.0,0.0,0.0,0.0,0.0,0.0,0.0,0.0,0.0,0.0,0.0,0.0,0.0,0.0,0.0,0.0,0.0,0.0,0.0,0.0,0.0,0.0,0.0,0.0,0.0,0.0,0.0,0.0,0.0,0.0,0.0,0.0,0.0,0.0,0.0,0.0,0.0,0.0,0.0,0.0,0.0,0.0,0.0,0.0,0.0,0.0,0.0,0.0,0.0,0.0,0.0,0.0,0.0,0.0,0.0,0.0,0.0,0.0,0.0,0.0,0.0,0.0,0.0,0.0,0.0,0.0,0.0,0.0,0.0,0.0,0.0,0.0,0.0,0.0,0.0,0.0,0.0,0.0,0.0,0.0,0.0,0.0,0.0,0.0,0.0,0.0,0.0,0.0,0.0,0.0,0.0,0.0,0.0,0.0,0.0,0.0,0.0,0.0,0.0,0.0,0.0,0.0,0.0,0.0,0.0,0.0,0.0,0.0,0.0,0.0,0.0,0.0,0.0,0.0,0.0,0.0,0.0,0.0,0.0,0.0,0.0,0.0,0.0,0.0,0.0,0.0,0.0,0.0,0.0,0.0,0.0,0.0,0.0,0.0,0.0,0.0,0.0,0.0,0.0,0.0,0.0,0.0,0.0,0.0,0.0,0.0,0.0,0.0,0.0,0.0,0.0,0.0,0.0,0.0,0.0,0.0,0.0,0.0,0.0,0.0,0.0,0.0,0.0,0.0,0.0,0.0,0.0,0.0,0.0,0.0,0.0,0.0,0.0,0.0,0.0,0.0,0.0,0.0,0.0,0.0,0.0,0.0,0.0,0.0,0.0,0.0,0.0,0.0,0.0,0.0,0.0,0.0,0.0,0.0,0.0,0.0,0.0,0.0,0.0,0.0,0.0,0.0,0.0,0.0,0.0,0.0,0.0,0.0,0.0,0.0,0.0,0.0,0.0,0.0,0.0,0.0,0.0,0.0,0.0,0.0,0.0,0.0,0.0,0.0,0.0,0.0,0.0,0.0,0.0,0.0,0.0,0.0,0.0,0.0,0.0,0.0,0.0,0.0,0.0,0.0,0.0,0.0,0.0,0.0,0.0,0.0,0.0,0.0,0.0,0.0,0.0,0.0,0.0,0.0,0.0,0.0,0.0,0.0,0.0,0.0,0.0,0.0,0.0,0.0,0.0,0.0,0.0,0.0,0.0,0.0,0.0,0.0,0.0,0.0,0.0,0.0,0.0,0.0,0.0,0.0,0.0,0.0,0.0,0.0,0.0,0.0,0.0,0.0,0.0,0.0,0.0,0.0,0.0,0.0,0.0,0.0,0.0,0.0,0.0,0.0,0.0,0.0,0.0,0.0,0.0,0.0,0.0,0.0,0.0,0.0,0.0,0.0,0.0,0.0,0.0,0.0,0.0,0.0,0.0,0.0,0.0,0.0,0.0,0.0,0.0,0.0,0.0,0.0,0.0,0.0,0.0,0.0,0.0,0.0,0.0,0.0,0.0,0.0,0.0,0.0,0.0,0.0,0.0,0.0,0.0,0.0,0.0,0.0,0.0,0.0,0.0,0.0,0.0,0.0,0.0,0.0,0.0,0.0,0.0,0.0,0.0,0.0,0.0,0.0,0.0,0.0,0.0,0.0,0.0,0.0,0.0,0.0,0.0,0.0,0.0,0.0,0.0,0.0,0.0,0.0,0.0,0.0,0.0,0.0,0.0,0.0,0.0,0.0,0.0,0.0,0.0,0.0,0.0,0.0,0.0,0.0,0.0,0.0,0.0,0.0,0.0,0.0,0.0,0.0,0.0,0.0,0.0,0.0,0.0,0.0,0.0,0.0,0.0,0.0,0.0,0.0,0.0,0.0,0.0,0.0,0.0,0.0,-1.9108,0.0,0.0,0.0,0.0,0.0,0.0,0.0,0.0,0.0,0.0,0.0,0.0,0.0,0.0,0.0,0.0,0.0,0.0,0.0,0.0,0.0,0.0,0.0,0.0,-0.8614,-0.912,-0.9842,-1.0144,-1.0182,-0.9918,0.0,0.0,0.0,0.0,0.0,-0.9491,-0.9466,-0.9867,-1.0723,-1.0973,-1.1964,-1.3596,-1.3516,-1.294,-1.1964,0.0,0.0,0.0,0.0,0.0,0.0,0.0,0.0,0.0,0.0,0.0,0.0,0.0,0.0,0.0,0.0,0.0,0.0,0.0,0.0,0.0,0.0,0.0,0.0,0.0,0.0,0.0,0.0,0.0,0.0,0.0,0.0,0.0,0.0,0.0,0.0,0.0,0.0,0.0,0.0,0.0,0.0,0.0,0.0,0.0,0.0,0.0,0.0,0.0,0.0,0.0,0.0,0.0,0.0,0.0,0.0,0.0,0.0,0.0,0.0,0.0,0.0,0.0,0.0,0.0,0.0,0.0,0.0,0.0,0.0,0.0,-2.0564,0.0,0.0,0.0,0.0,0.0,0.0,0.0,0.0,0.0,0.0,0.0,0.0,0.0,0.0,0.0,0.0,0.0,0.0,0.0,0.0,0.0,-0.7361,-0.8329,-0.9071,-0.9676,-1.0146,-1.052,-1.052,-1.006,-0.9962,0.0,0.0,0.0,-0.9943,-1.0044,-1.0582,-1.114,-1.1725,-1.2508,-1.3649,-1.511,-1.6147,-1.5339,-1.3028,-1.3415,0.0,0.0,0.0,0.0,0.0,0.0,0.0,0.0,0.0,0.0,0.0,0.0,0.0,0.0,0.0,0.0,0.0,0.0,0.0,0.0,0.0,0.0,0.0,0.0,0.0,0.0,0.0,0.0,0.0,0.0,0.0,0.0,0.0,0.0,0.0,0.0,0.0,0.0,0.0,0.0,0.0,0.0,0.0,0.0,0.0,0.0,0.0,0.0,0.0,0.0,0.0,0.0,0.0,0.0,0.0,0.0,0.0,0.0,0.0,0.0,0.0,0.0,0.0,0.0,-2.5234,-2.5172,-2.5724,-2.6201,-2.6527,-2.5139,-2.4424,-2.4117,0.0,0.0,0.0,0.0,0.0,0.0,0.0,0.0,0.0,0.0,0.0,0.0,0.0,0.0,0.0,0.0,0.0,0.0,0.0,0.0,-0.7762,-0.8875,-0.9504,-1.0223,-1.1191,-1.0987,-1.0738,-1.0602,-1.0211,0.0,0.0,-0.9905,-1.0119,-1.0581,-1.1186,-1.1729,-1.2212,-1.396,-1.5192,-1.5869,-1.6782,-1.6715,-1.5832,-1.5336,-1.4648,-1.3839,0.0,0.0,0.0,0.0,0.0,0.0,0.0,0.0,0.0,0.0,0.0,0.0,0.0,0.0,0.0,0.0,0.0,0.0,0.0,0.0,0.0,0.0,0.0,0.0,0.0,0.0,0.0,0.0,0.0,0.0,0.0,0.0,0.0,0.0,0.0,0.0,0.0,0.0,0.0,0.0,0.0,-1.504,-1.5341,0.0,0.0,0.0,0.0,0.0,0.0,0.0,0.0,0.0,0.0,0.0,0.0,0.0,0.0,-2.3665,-2.6189,-2.7205,-2.6766,-2.9239,-3.0181,-2.9767,-3.0281,-3.057,-3.062,-3.0394,0.0,-2.5285,-2.4067,0.0,0.0,0.0,0.0,0.0,0.0,0.0,0.0,0.0,0.0,0.0,0.0,0.0,0.0,0.0,0.0,0.0,0.0,0.0,0.0,0.0,-1.011,-1.0771,-1.1388,-1.1525,-1.1322,-1.0738,-1.0794,-1.0723,-1.0421,-1.0411,-1.0797,-1.1648,-1.196,-1.2878,-1.4432,-1.6033,-1.7087,-1.7534,-1.8268,-1.8335,-1.7905,-1.7613,-1.6591,-1.5023,-1.4462,0.0,0.0,0.0,0.0,0.0,0.0,0.0,0.0,0.0,0.0,0.0,0.0,0.0,0.0,0.0,0.0,0.0,0.0,0.0,0.0,0.0,0.0,0.0,0.0,0.0,0.0,0.0,0.0,0.0,0.0,0.0,0.0,0.0,0.0,0.0,0.0,0.0,0.0,0.0,-1.4983,-1.6986,-1.6685,-1.7378,-1.7589,0.0,0.0,0.0,0.0,0.0,0.0,0.0,0.0,0.0,-2.5059,-2.5887,-2.6766,-2.7708,-2.9202,-2.9829,-2.9603,-3.0809,-3.1273,-3.106,-3.1286,-3.1386,-3.1386,-3.1386,-3.0419,-2.8725,-2.7005,-2.5787,-2.4858,0.0,0.0,0.0,0.0,0.0,-2.3873,0.0,0.0,0.0,0.0,0.0,0.0,0.0,0.0,0.0,0.0,0.0,0.0,-0.989,-1.0695,-1.1327,-1.1776,-1.2052,-1.188,-1.1105,-1.1213,-1.1217,-1.0986,-1.0739,-1.1176,-1.2361,-1.2745,-1.4137,-1.6625,-1.7481,-1.8276,-1.8981,-1.9351,-1.9375,-1.9148,-1.9148,-1.8112,-1.6305,-1.5698,-1.423,-1.2293,0.0,0.0,0.0,0.0,0.0,0.0,0.0,0.0,0.0,0.0,0.0,0.0,0.0,0.0,0.0,0.0,0.0,0.0,0.0,0.0,0.0,0.0,0.0,0.0,0.0,0.0,0.0,0.0,0.0,0.0,0.0,0.0,0.0,0.0,0.0,0.0,0.0,-1.6839,-1.8794,-1.8114,-1.9484,-1.9962,0.0,0.0,0.0,0.0,0.0,0.0,-2.4098,-2.487,-2.6138,-2.8072,-2.8662,-2.9616,-3.1009,-3.1549,-3.1888,-3.2039,-3.2177,-3.224,-3.224,-3.224,-3.224,-3.224,-3.224,-3.224,-3.2064,-2.9716,-2.826,-2.7417,-2.6013,-2.5222,-2.4913,-2.5787,-2.6189,-2.654,0.0,0.0,0.0,0.0,0.0,0.0,0.0,0.0,0.0,0.0,0.0,-0.9523,-1.0547,-1.1201,-1.1936,-1.2844,-1.2528,-1.2214,-1.2045,-1.1273,-1.1013,-1.1454,-1.0612,-1.0816,-1.2283,-1.3485,-1.5388,-1.7988,-1.7615,-1.8214,-1.9726,-1.9464,-1.9308,-1.9291,-1.9291,-1.8762,-1.7795,-1.6647,-1.5313,-1.388,-1.273,0.0,0.0,0.0,0.0,0.0,0.0,0.0,0.0,0.0,0.0,0.0,0.0,0.0,0.0,0.0,0.0,0.0,0.0,0.0,0.0,0.0,0.0,0.0,0.0,0.0,0.0,0.0,0.0,0.0,0.0,0.0,0.0,0.0,0.0,0.0,0.0,0.0,0.0,-1.9811,-2.2548,0.0,0.0,0.0,0.0,-2.3703,-2.4305,-2.536,-2.6992,-2.8097,-2.9189,-3.0407,-3.0947,-3.1524,-3.2127,-3.2704,-3.3257,-3.3784,-3.4299,-3.4505,-3.4505,-3.4505,-3.4505,-3.4505,-3.4505,-3.4505,-3.4304,-3.1612,-3.0457,-3.0344,-2.9741,-2.9478,-2.9465,-2.9528,-2.988,-3.0331,0.0,0.0,0.0,0.0,0.0,-0.6345,-0.6345,-0.6833,-0.7248,-0.7361,-0.8697,-0.9944,-1.0685,-1.15,-1.2238,-1.2876,-1.2786,-1.254,-1.2193,-1.1898,-1.2177,-1.3128,-1.2103,-1.2328,-1.4059,-1.5348,-1.6738,-1.8226,-1.8178,-1.8754,-1.9846,-1.973,-1.9844,-2.0155,-2.0155,-1.9785,-1.9121,-1.7599,-1.6355,-1.5273,-1.3971,-1.2736,0.0,0.0,0.0,0.0,0.0,0.0,0.0,0.0,0.0,0.0,0.0,0.0,0.0,0.0,0.0,0.0,0.0,0.0,0.0,0.0,0.0,0.0,0.0,0.0,0.0,0.0,0.0,0.0,0.0,0.0,0.0,0.0,0.0,0.0,0.0,0.0,0.0,-2.2548,-2.4506,0.0,0.0,-2.4632,-2.5511,-2.6076,-2.7293,-2.8436,-2.9377,-3.0118,-3.1035,-3.2164,-3.2378,-3.2918,-3.3822,-3.4035,-3.4236,-3.4437,-3.4625,-3.468,-3.468,-3.468,-3.468,-3.468,-3.468,-3.468,-3.4605,-3.3615,-3.2842,-3.2139,-3.1574,-3.1135,-3.0821,-3.0821,-3.0947,-3.111,0.0,0.0,0.0,0.0,-0.6388,-0.6298,-0.6206,-0.6823,-0.7445,-0.7863,-0.9137,-1.0337,-1.1186,-1.1832,-1.2389,-1.2866,-1.2905,-1.2778,-1.2471,-1.2338,-1.2706,-1.3696,-1.322,-1.3655,-1.5185,-1.6483,-1.762,-1.8654,-1.9264,-1.9925,-2.0637,-2.0965,-2.1278,-2.1565,-2.1231,-2.0918,-2.0509,-1.8911,-1.7646,-1.6652,-1.5439,-1.4451,-1.3585,0.0,0.0,0.0,0.0,0.0,0.0,0.0,0.0,0.0,0.0,0.0,0.0,0.0,0.0,0.0,0.0,0.0,0.0,0.0,0.0,0.0,0.0,0.0,0.0,0.0,0.0,0.0,0.0,0.0,0.0,0.0,0.0,0.0,0.0,0.0,-2.4531,-2.4531,-2.6502,-2.7356,-2.605,-2.7256,-2.8309,-2.8637,-2.988,-3.0846,-3.1411,-3.1951,-3.2667,-3.3608,-3.3633,-3.4073,-3.4944,-3.4956,-3.509,-3.5278,-3.5278,-3.5278,-3.5278,-3.5278,-3.5278,-3.5278,-3.5278,-3.5278,-3.5278,-3.5278,-3.4738,-3.3859,-3.3282,-3.2842,-3.2516,-3.2516,-3.2403,-3.2215,0.0,0.0,0.0,-0.6262,-0.6427,-0.6509,-0.6254,-0.707,-0.8036,-0.895,-0.976,-1.0727,-1.2047,-1.2227,-1.2422,-1.2866,-1.2929,-1.2929,-1.2905,-1.2447,-1.2444,-1.3024,-1.3845,-1.4665,-1.5459,-1.6748,-1.8061,-1.938,-2.072,-2.1623,-2.2027,-2.2999,-2.3441,-2.3368,-2.2403,-2.1952,-2.1855,-2.0504,-1.9219,-1.8042,-1.7139,-1.6229,-1.537,0.0,0.0,0.0,0.0,0.0,0.0,0.0,0.0,0.0,0.0,0.0,0.0,0.0,0.0,0.0,0.0,0.0,0.0,0.0,0.0,0.0,0.0,0.0,0.0,0.0,0.0,0.0,0.0,0.0,0.0,0.0,0.0,0.0,-2.241,-2.4293,-2.5686,-2.5724,-2.8612,-2.998,-2.836,-3.0156,-3.1424,-3.1436,-3.1951,-3.2516,-3.3106,-3.3633,-3.4173,-3.4726,-3.4705,-3.4969,-3.552,-3.552,-3.583,-3.6405,-3.6405,-3.6405,-3.6405,-3.6405,-3.6405,-3.6405,-3.6405,-3.6405,-3.6405,-3.6405,-3.6056,-3.547,-3.4919,-3.4693,-3.468,-3.468,-3.4387,-3.3847,0.0,0.0,-0.6582,-0.6509,-0.6388,-0.6354,-0.647,-0.7265,-0.8039,-0.86,-1.0069,-1.1278,-1.1789,-1.2756,-1.324,-1.2944,-1.331,-1.3372,-1.2929,-1.2447,-1.2684,-1.3759,-1.5451,-1.6675,-1.7266,-1.7656,-1.8829,-2.0813,-2.123,-2.1623,-2.2,-2.2291,-2.2038,-2.1385,-2.1116,-2.0972,-2.0962,-2.0584,-2.0584,-2.075,-1.8854,-1.7564,-1.675,0.0,0.0,0.0,0.0,0.0,0.0,0.0,0.0,0.0,0.0,0.0,0.0,0.0,0.0,0.0,0.0,0.0,0.0,0.0,0.0,0.0,0.0,0.0,0.0,0.0,0.0,0.0,0.0,0.0,0.0,0.0,0.0,-2.4268,-2.4644,-2.6264,-2.772,-2.8549,-2.9804,-3.0583,-3.0495,-3.1399,-3.2164,-3.2579,-3.3119,-3.3671,-3.4236,-3.4412,-3.4751,-3.5257,-3.527,-3.5579,-3.6132,-3.6132,-3.6267,-3.6405,-3.6405,-3.6405,-3.6405,-3.6405,-3.6405,-3.6405,-3.6405,-3.6405,-3.6405,-3.6405,-3.6317,-3.6081,-3.5483,-3.5031,-3.468,-3.468,-3.4625,-3.4474,0.0,-0.6599,-0.6573,-0.6453,-0.6388,-0.638,-0.6427,-0.7213,-0.8121,-0.8938,-1.0518,-1.1738,-1.2205,-1.3395,-1.3836,-1.2968,-1.3671,-1.3802,-1.2954,-1.2812,-1.3481,-1.511,-1.6189,-1.7585,-1.9393,-1.9257,-2.0193,-2.2302,-2.2702,-2.3028,-2.3257,-2.3697,-2.3576,-2.3036,-2.2638,-2.2451,-2.2387,-2.1527,-2.1479,-2.1889,-2.0557,-1.9657,-1.8944,-1.7532,-1.6608,-1.6014,-1.6199,-1.6205,-1.6149,-1.6308,0.0,0.0,0.0,0.0,0.0,0.0,0.0,0.0,0.0,0.0,0.0,0.0,0.0,0.0,0.0,0.0,0.0,0.0,0.0,0.0,0.0,0.0,0.0,0.0,-2.5046,-2.6553,-2.7557,-2.8348,-2.9139,-3.003,-3.0821,-3.1399,-3.17,-3.2453,-3.3056,-3.3395,-3.4148,-3.4726,-3.5006,-3.5278,-3.5554,-3.5881,-3.5893,-3.6044,-3.6405,-3.6631,-3.6757,-3.6757,-3.6935,-3.7048,-3.7048,-3.7048,-3.7048,0.0,-3.6857,-3.6757,-3.6732,-3.6505,-3.6405,0.0,0.0,0.0,0.0,0.0,-3.5019,-3.4994,0.0,-0.6599,-0.6526,-0.628,-0.6444,-0.6517,-0.628,-0.711,-0.8264,-0.9643,-1.0949,-1.2069,-1.2913,-1.4026,-1.4264,-1.3106,-1.4099,-1.4339,-1.3246,-1.3555,-1.4712,-1.6821,-1.6664,-1.8062,-2.1397,-2.1125,-2.1843,-2.3672,-2.4564,-2.5004,-2.5016,-2.5908,-2.6267,-2.6129,-2.5277,-2.4909,-2.479,-2.3012,-2.2327,-2.2392,-2.2237,-2.1866,-2.1213,-1.9473,-1.8816,-1.8764,-1.8267,-1.8255,-1.8394,-1.7942,0.0,0.0,0.0,0.0,0.0,0.0,0.0,0.0,0.0,0.0,0.0,0.0,0.0,0.0,0.0,0.0,0.0,0.0,0.0,0.0,0.0,0.0,0.0,0.0,-2.7532,-2.8837,-3.0394,-3.0294,-3.0244,-3.0733,-3.1637,-3.2265,-3.239,-3.3307,-3.3947,-3.4073,-3.4944,-3.552,-3.5596,0.0,0.0,0.0,0.0,-3.6505,-3.6505,-3.6998,-3.7274,-3.7287,-3.7776,-3.8002,-3.8002,-3.8002,-3.8002,-3.7977,-3.7487,-3.7274,-3.7236,-3.6732,-3.6468,-3.6405,-3.6405,-3.6405,-3.6355,-3.5818,-3.5596,0.0,0.0,-0.6599,-0.6582,-0.6526,-0.6573,-0.6582,-0.6526,-0.7469,-0.8599,-0.9737,-1.0864,-1.1959,-1.2973,-1.4113,-1.4498,-1.3761,-1.4754,-1.5291,-1.5006,-1.5369,-1.6363,-1.808,-1.8791,-2.0003,-2.1833,-2.1819,-2.2739,-2.4707,-2.4898,-2.5004,-2.5004,-2.5194,-2.485,-2.4084,-2.4349,-2.4456,-2.4419,-2.4033,-2.4322,-2.4955,-2.3708,-2.2494,-2.1423,-2.1846,-2.133,-2.0422,-2.0908,-2.0867,-2.0605,-2.0659,-2.0696,-2.0401,-1.8744,-1.7614,0.0,0.0,0.0,0.0,0.0,0.0,0.0,0.0,0.0,0.0,0.0,0.0,0.0,0.0,0.0,0.0,0.0,0.0,0.0,-2.6927,-2.8448,-2.9741,-3.0507,-3.1273,-3.1788,-3.1888,-3.2089,-3.2566,-3.3483,-3.3771,-3.4274,-3.5119,-3.537,-3.5683,-3.6182,-3.6355,0.0,-3.6405,-3.6832,-3.7023,-3.7023,-3.7575,-3.7852,-3.7852,0.0,0.0,-3.8002,-3.8002,-3.8002,-3.8002,-3.7889,-3.7852,-3.7801,-3.7249,-3.6807,-3.6405,-3.6405,-3.6405,-3.6405,-3.6292,-3.6207,-3.6194,-0.6599,-0.6599,-0.6599,-0.6599,-0.6599,-0.6599,-0.6599,-0.7573,-0.8587,-0.9403,-1.0925,-1.2128,-1.2636,-1.3744,-1.4181,-1.3503,-1.4255,-1.5084,-1.5856,-1.6316,-1.741,-1.9373,-1.9731,-2.0991,-2.3366,-2.2976,-2.373,-2.5734,-2.5734,-2.5734,-2.5734,-2.5734,-2.5476,-2.4992,-2.529,-2.5409,-2.5373,-2.4853,-2.4938,-2.5313,-2.4549,-2.3815,-2.3169,-2.2969,-2.2537,-2.2064,-2.2237,-2.2247,-2.2119,-2.1968,-2.1895,-2.1656,-2.0275,-1.9271,-1.8317,0.0,0.0,0.0,0.0,0.0,0.0,0.0,0.0,0.0,0.0,0.0,0.0,0.0,0.0,-2.3577,0.0,0.0,-2.7306,-2.8725,-2.9654,-3.0482,-3.1298,-3.1876,-3.2215,-3.2215,-3.2466,-3.298,-3.3822,-3.4148,-3.4605,-3.5433,-3.5805,-3.6069,-3.6392,-3.6669,-3.682,-3.682,-3.7312,-3.76,-3.76,-3.8165,-3.8442,-3.8442,-3.8718,-3.8856,-3.8856,-3.8856,-3.8856,-3.8831,-3.8567,-3.8442,-3.8391,-3.7826,-3.7274,-3.682,-3.682,-3.6656,-3.6405,-3.6405,-3.6405,-3.6405,-0.6599,-0.6599,-0.6599,-0.6599,-0.6599,-0.6599,-0.6599,-0.7473,-0.8361,-0.9012,-1.0734,-1.1974,-1.215,-1.312,-1.3625,-1.326,-1.3638,-1.4649,-1.6395,-1.696,-1.8228,-2.0506,-2.0457,-2.1756,-2.475,-2.4099,-2.4646,-2.6499,-2.6499,-2.6499,-2.6499,-2.6499,-2.6499,-2.6499,-2.6612,-2.665,-2.6615,-2.5775,-2.5456,-2.5444,-2.5336,-2.53,-2.5169,-2.391,-2.35,-2.3529,-2.3111,-2.2898,-2.2719,-2.2297,-2.2083,-2.1832,-2.0968,-2.0302,-1.9522,-1.8116,-1.7574,0.0,0.0,0.0,0.0,0.0,0.0,0.0,0.0,0.0,-2.2124,-2.3722,-2.4876,-2.6025,-2.7356,-2.8147,-2.9038,-3.0394,-3.0783,-3.1223,-3.2089,-3.2303,-3.2378,-3.2378,-3.2792,-3.3332,-3.3997,-3.4462,-3.4956,-3.5608,-3.6119,-3.6455,-3.6568,-3.6996,-3.7236,-3.7337,-3.7877,-3.8165,-3.8165,-3.8743,-3.9082,-3.9032,-3.9484,-3.9697,-3.9697,-3.9697,-3.9697,-3.9672,-3.922,-3.902,-3.8881,-3.8366,-3.7852,-3.7337,-3.7224,-3.6958,-3.6556,-3.6455,-3.6405,-3.6405,0.0,-0.6599,-0.6599,-0.6599,-0.6599,-0.6599,-0.6599,-0.7116,-0.7889,-0.8962,-0.973,-1.0556,-1.1575,-1.2221,-1.2956,-1.3908,-1.3989,-1.4908,-1.7127,-1.7715,-1.8984,-2.1266,-2.1807,-2.2907,-2.475,-2.4691,-2.5248,-2.6499,-2.6499,-2.6499,-2.6499,-2.6499,-2.6499,-2.6512,-2.7002,-2.7228,-2.7193,-2.7074,-2.7039,-2.7001,-2.6502,-2.6349,-2.6252,-2.5564,-2.5029,-2.4571,-2.4022,-2.2927,-2.1656,-2.1606,-2.1282,-2.0855,-2.0729,-2.0302,-1.9673,-1.9008,0.0,-1.7574,-1.8318,-1.9409,-2.044,-2.093,-2.1493,-2.2723,0.0,0.0,-2.5523,-2.7205,-2.7998,-2.8487,-2.8675,-2.9616,-3.0394,-3.0583,-3.1411,-3.2077,-3.219,-3.2654,-3.298,-3.298,-3.3074,-3.3483,-3.4525,-3.4643,-3.5152,-3.6241,-3.6367,-3.6619,-3.7073,-3.7149,-3.7412,-3.7902,-3.8479,-3.8781,-3.8781,-3.932,-3.9597,-3.9597,-3.9659,-3.9697,-3.9697,-3.9697,-3.9697,-3.9697,-3.9634,-3.932,-3.8906,-3.8856,-3.8429,-3.7864,-3.7374,-3.7149,-3.7036,-3.6593,-3.6405,-3.6405,0.0,-0.6599,-0.6599,-0.6599,-0.6599,-0.6599,-0.6599,-0.7053,-0.7691,-0.8524,-0.9378,-1.0207,-1.0998,-1.1588,-1.2131,-1.2596,-1.3518,-1.4854,-1.6751,-1.7966,-1.9478,-2.1418,-2.202,-2.2949,-2.4305,-2.4625,-2.5197,-2.5996,-2.6336,-2.6499,-2.6499,-2.6499,-2.6499,-2.6499,-2.6738,-2.6839,-2.6839,-2.6839,-2.6839,-2.6813,-2.6587,-2.6298,-2.59,-2.536,-2.4406,-2.3339,-2.31,-2.2146,0.0,-2.1031,-2.088,-2.0742,-2.1069,-2.0553,-1.9761,-1.9547,-1.9384,0.0,-2.1443,-2.2008,-2.2322,0.0,-2.4318,-2.5485,-2.66,-2.6942,-2.7344,-2.8373,-2.9038,-2.9428,-2.9428,-2.9817,-3.0344,0.0,-3.1436,-3.1964,-3.2616,-3.2641,-3.2579,-3.2579,-3.2579,-3.3006,-3.4135,-3.4537,-3.5052,-3.583,-3.6182,-3.6505,-3.6732,-3.7312,-3.7764,-3.8002,-3.8881,-3.9346,-3.9346,-3.9584,-3.9697,-3.9697,-3.9697,-3.9697,-3.9697,-3.9697,-3.9697,-3.9697,-3.9697,-3.9559,-3.9346,-3.9346,-3.9019,-3.8454,-3.7877,-3.7462,-3.7123,-3.6619,-3.6405,-3.6405,0.0,-0.6599,-0.6599,-0.6599,-0.6599,-0.6599,-0.6599,-0.6928,-0.7441,-0.82,-0.8976,-0.9717,-1.0407,-1.0872,-1.1263,-1.1578,-1.2973,-1.4544,-1.6183,-1.7704,-1.9309,-2.0953,-2.1556,-2.2447,-2.3728,-2.4305,-2.4858,-2.5385,-2.5799,-2.6047,-2.6047,-2.6185,-2.6248,-2.626,-2.6424,-2.6499,-2.6499,-2.6499,-2.6399,-2.6248,-2.6248,-2.582,-2.5096,-2.4525,-2.3283,-2.1857,-2.1857,-2.1054,-2.0013,-2.0013,-1.9912,-1.9874,-2.0413,-2.0024,-1.9447,-1.9911,-2.0805,-2.1898,-2.3175,0.0,0.0,-2.5071,-2.6515,-2.7632,-2.7231,-2.7883,-2.8687,-2.9089,-2.9503,-2.9792,-2.9792,-2.9917,-3.0319,-3.1235,-3.1524,-3.1964,-3.2943,-3.2579,-3.2215,-3.2215,-3.2077,-3.2365,-3.3345,-3.4073,-3.4743,-3.5445,-3.5906,-3.6332,-3.6832,-3.7575,-3.8153,-3.8467,-3.927,-3.9697,-3.9697,-3.9697,-3.9697,-3.9697,-3.9697,-3.9697,-3.9697,-3.9697,-3.9697,-3.9697,-3.9697,-3.9697,-3.9697,-3.9697,-3.9459,-3.9032,-3.8291,-3.7764,-3.7324,-3.6669,-3.6405,-3.6405,0.0,0.0,-0.6599,-0.6599,-0.6599,-0.6599,-0.6599,-0.6611,-0.7025,-0.816,-0.8336,-0.875,-0.9805,-0.9943,-1.0409,-1.1487,-1.2601,-1.3942,-1.5605,-1.682,-1.8177,-1.9786,-2.0427,-2.1509,-2.3095,-2.3728,-2.4293,-2.4813,-2.4825,-2.4838,-2.485,-2.5385,-2.5624,-2.5649,-2.6248,-2.6499,-2.6499,-2.6499,-2.6172,-2.5624,-2.5624,-2.4983,-2.3979,-2.3384,-2.2159,-2.0742,-2.0742,-1.9686,-1.8279,-1.8279,-1.7928,-1.7576,-1.8129,-1.8279,0.0,-2.0201,-2.2184,-2.3665,0.0,0.0,-2.6399,-2.6436,-2.7657,-2.8838,-2.8813,-2.9315,-2.9741,-2.9767,-2.9779,-2.9792,-2.9792,-3.0231,-3.0771,-3.1298,-3.1838,-3.239,-3.2993,-3.2579,-3.2215,-3.2215,-3.1738,-3.1637,0.0,-3.3269,-3.4374,-3.542,-3.552,-3.6223,-3.7864,-3.799,-3.8517,-3.9609,-3.9672,-3.9697,-3.9697,-3.9697,-3.9697,-3.9697,-3.9697,-3.9697,-3.9697,-3.9697,-3.9697,-3.9697,-3.9697,-3.9697,-3.9697,-3.9697,-3.9685,-3.9559,-3.8442,-3.8002,-3.7852,-3.6807,-3.6405,-3.6405,0.0,0.0,0.0,-0.6599,-0.6599,-0.6599,-0.6599,-0.6599,-0.7,-0.816,-0.8926,0.0,0.0,0.0,0.0,0.0,-1.2024,-1.3383,-1.506,-1.6183,-1.7551,-1.9196,-1.9798,-2.0526,-2.1481,-2.2397,-2.312,-2.3672,-2.4061,-2.4456,-2.4788,-2.4963,-2.5084,-2.5096,-2.5285,-2.5372,-2.5372,-2.5372,-2.546,-2.5536,-2.482,-2.4318,-2.3853,-2.2548,-2.1016,-1.9535,0.0,-1.8442,-1.7664,-1.7664,-1.7561,-1.7498,-1.8028,0.0,-1.8077,-2.0101,-2.1719,-2.3201,-2.4669,0.0,-2.718,-2.7908,-2.88,-2.9503,-2.9503,-2.9654,-2.9792,-2.9792,-2.949,-2.9176,-2.9176,-2.9327,-2.9765,-3.0733,-3.1323,-3.2001,-3.2986,-3.2579,-3.2077,-3.1712,-3.1825,0.0,0.0,0.0,0.0,-3.4868,-3.5295,-3.606,-3.74,-3.7814,-3.8354,-3.912,-3.9496,-3.9697,-3.9697,-3.9697,-3.9697,-3.9697,-3.9697,-3.9697,-3.9697,-3.9697,-3.9697,-3.9697,-3.9697,-3.9697,-3.9697,-3.9697,-3.9697,-3.9622,-3.8868,-3.8341,-3.7914,-3.7174,-3.6719,-3.6405,0.0,0.0,0.0,0.0,0.0,0.0,0.0,0.0,0.0,0.0,0.0,0.0,0.0,0.0,0.0,0.0,0.0,0.0,-1.4199,-1.5316,-1.6584,-1.8042,-1.8455,-1.9083,-2.0062,-2.0778,-2.1377,-2.1917,-2.2322,-2.2786,-2.3339,-2.354,-2.371,-2.391,-2.4098,-2.4186,-2.4186,-2.4186,-2.4261,-2.4343,-2.3452,-2.2862,-2.2359,-2.1091,-1.971,0.0,-1.8041,-1.7551,-1.7074,-1.7074,-1.7074,-1.7174,-1.7739,-1.8342,-1.9196,-2.0805,-2.2309,-2.4004,-2.6436,-2.7306,-2.7846,-2.8963,-2.9515,-2.9792,-2.9792,-2.9792,-2.9679,-2.9277,-2.8888,-2.8511,-2.8122,-2.8047,-2.8486,-2.9765,-3.047,-3.1273,-3.2579,-3.2441,-3.2077,-3.1725,-3.2001,0.0,0.0,0.0,0.0,-3.4605,-3.5194,-3.606,-3.7412,-3.7814,-3.8366,-3.9145,-3.9509,-3.9697,-3.9697,-3.9697,-3.9697,-3.9697,-3.9697,-3.9697,-3.9697,-3.9697,-3.9697,-3.9697,-3.9697,-3.9697,-3.9697,-3.9697,-3.9697,-3.9622,-3.8856,-3.8329,-3.7914,-3.7161,-3.6719,-3.6405,0.0,0.0,0.0,0.0,0.0,0.0,0.0,0.0,0.0,0.0,0.0,0.0,0.0,0.0,0.0,0.0,0.0,0.0,-1.3123,-1.4199,-1.5299,-1.6362,-1.6463,-1.724,-1.8845,-1.8933,-1.9221,-1.9761,-1.9761,-2.0062,-2.0666,-2.1182,-2.1681,-2.2196,-2.2694,-2.2932,-2.2932,-2.2932,-2.2656,-2.2184,-2.1594,-2.074,-1.9748,-1.9171,-1.8317,-1.741,-1.741,-1.7011,-1.65,-1.6538,0.0,0.0,0.0,0.0,0.0,-2.2234,-2.3954,-2.6038,-2.7657,-2.8147,-2.8448,-2.9528,-2.9792,-2.9779,-2.9754,-2.9729,-2.939,-2.8247,-2.7984,-2.7595,0.0,0.0,-2.7002,-2.8512,-2.9402,-3.0419,-3.1989,-3.2265,-3.229,0.0,0.0,0.0,0.0,0.0,0.0,-3.468,0.0,-3.6223,-3.7914,-3.8002,-3.8517,-3.9659,-3.9697,-3.9697,-3.9697,-3.9697,-3.9697,-3.9697,-3.9697,-3.9697,-3.9697,-3.9697,-3.9697,-3.9697,-3.9697,-3.9697,-3.9697,-3.9697,-3.9697,-3.9584,-3.8479,-3.804,-3.7877,-3.6845,-3.643,-3.6405,0.0,0.0,0.0,0.0,0.0,0.0,0.0,0.0,0.0,0.0,0.0,0.0,0.0,0.0,0.0,0.0,0.0,0.0,-1.2538,-1.3253,-1.4118,-1.5261,-1.6082,-1.6701,-1.7127,-1.7955,-1.8657,-1.9196,-1.9196,-1.9497,-2.0024,-2.0162,-2.0313,-2.0451,-2.0589,-2.0652,-2.0652,-2.0652,-2.0815,-2.1031,-2.0037,-1.971,-1.9698,-1.8769,-1.799,-1.741,-1.741,0.0,0.0,0.0,0.0,0.0,0.0,-2.1154,-2.2794,0.0,0.0,-2.7042,-2.7871,-2.8725,-2.9428,-2.9716,-2.9792,-2.9679,-2.9252,-2.8837,-2.8222,-2.714,-2.6226,-2.531,0.0,0.0,0.0,-2.7052,-2.9277,0.0,-3.2102,-3.2943,0.0,-3.2905,0.0,-3.3985,-3.3721,-3.4562,0.0,0.0,-3.542,-3.6223,-3.7914,-3.8002,-3.8517,-3.9659,-3.9697,-3.9697,-3.9697,-3.9697,-3.9697,-3.9697,-3.9697,-3.9697,-3.9697,-3.9697,-3.9697,-3.9697,-3.9697,-3.9697,-3.9697,-3.9697,-3.9697,-3.9622,-3.8919,-3.8391,-3.7927,-3.7224,-3.6757,-3.6405,0.0,0.0,0.0,0.0,0.0,0.0,0.0,0.0,0.0,0.0,0.0,0.0,0.0,0.0,0.0,0.0,0.0,0.0,0.0,-1.2739,-1.3493,-1.4335,-1.5168,-1.5757,-1.6053,-1.6693,-1.7157,-1.7476,-1.7529,-1.7714,-1.8003,-1.8242,-1.8493,-1.8756,-1.8995,-1.9108,-1.9108,-1.9108,-1.9284,0.0,0.0,-1.848,-1.8643,-1.779,-1.7275,-1.6999,0.0,0.0,0.0,0.0,0.0,-2.069,-2.1493,-2.2887,-2.4368,-2.5197,0.0,-2.7821,-2.8624,-2.9315,-2.9792,-2.9792,-2.9792,-2.9515,-2.8448,-2.7959,-2.7155,-2.5071,-2.4155,0.0,0.0,0.0,0.0,0.0,0.0,0.0,-3.1675,-3.283,-3.3508,0.0,-3.4412,0.0,-3.465,-3.5403,-3.5893,0.0,-3.5893,-3.6521,-3.7927,-3.8002,-3.8517,-3.9659,-3.9697,-3.9697,-3.9697,-3.9697,-3.9697,-3.9697,-3.9697,-3.9697,-3.9697,-3.9697,-3.9697,-3.9697,0.0,-3.9697,-3.9697,-3.9697,-3.9697,-3.9609,-3.8806,-3.8291,-3.7914,-3.7111,-3.6669,-3.6405,0.0,0.0,0.0,0.0,0.0,0.0,0.0,0.0,0.0,0.0,0.0,0.0,0.0,0.0,0.0,0.0,0.0,0.0,0.0,0.0,0.0,-1.3776,-1.4327,-1.4876,-1.547,-1.5501,-1.5504,-1.5504,0.0,-1.558,-1.5593,-1.607,-1.6572,-1.7096,-1.7551,-1.7765,-1.7765,-1.7765,-1.7802,-1.7827,-1.735,-1.7222,-1.7212,0.0,0.0,0.0,0.0,0.0,0.0,0.0,-2.1257,-2.2121,-2.3195,-2.4707,-2.6226,-2.7205,-2.7896,-2.8549,-2.9528,-2.9792,-2.9792,-2.9792,-2.9729,-2.9239,-2.7557,-2.7005,-2.5937,-2.2749,0.0,-2.1352,-1.9773,-2.0978,-2.2736,-2.4299,0.0,-2.8875,-3.1085,-3.2428,-3.3395,-3.3935,-3.4931,-3.5608,-3.5608,-3.6081,-3.6405,-3.6405,-3.6405,-3.6857,-3.7839,-3.7902,-3.8417,-3.9546,-3.9647,-3.9697,-3.9697,-3.9697,-3.9697,-3.9697,-3.9697,-3.9697,-3.9697,-3.9697,-3.9697,-3.9697,0.0,0.0,-3.9697,-3.9697,-3.9697,-3.9584,-3.8454,-3.8002,-3.7877,-3.682,-3.6405,-3.6405,0.0,0.0,0.0,0.0,0.0,0.0,0.0,0.0,0.0,0.0,-1.0801,-1.0396,0.0,0.0,0.0,0.0,0.0,0.0,0.0,0.0,0.0,-1.4303,-1.4886,-1.5226,-1.5329,0.0,0.0,0.0,0.0,0.0,-1.5035,-1.5135,-1.5236,-1.5336,-1.5424,-1.5462,-1.5462,-1.5462,-1.5739,-1.612,-1.6019,-1.6258,-1.6638,0.0,0.0,0.0,0.0,0.0,0.0,0.0,-2.2259,-2.4431,-2.5536,-2.7017,-2.8349,-2.8549,-2.9051,-2.9541,-2.9741,-2.9792,-2.9792,-2.9792,-2.9428,-2.8649,-2.7014,-2.5581,0.0,0.0,-2.0225,-1.9208,-1.8016,-1.9899,0.0,-2.3195,0.0,0.0,0.0,0.0,-3.396,0.0,0.0,0.0,0.0,0.0,0.0,0.0,0.0,0.0,-3.7299,-3.7324,-3.7839,-3.8981,-3.9459,-3.9697,-3.9697,-3.9697,-3.9697,-3.9697,-3.9697,-3.9697,-3.9697,-3.9697,-3.9697,-3.9697,0.0,0.0,-3.9697,-3.9697,-3.9697,-3.9584,-3.8454,-3.8002,-3.7877,-3.682,-3.6405,-3.6405,0.0,0.0,0.0,0.0,0.0,0.0,0.0,-1.0058,-1.0969,-1.2394,-1.2486,-1.216,-1.1454,-1.1071,-1.0926,0.0,0.0,0.0,0.0,0.0,0.0,0.0,0.0,-1.5456,0.0,0.0,0.0,0.0,0.0,0.0,0.0,0.0,0.0,0.0,0.0,0.0,0.0,0.0,0.0,0.0,0.0,0.0,0.0,0.0,0.0,0.0,0.0,0.0,0.0,0.0,-2.1468,-2.3853,-2.5871,-2.7394,-2.8561,-2.8813,-2.9088,-2.9415,-2.9716,-2.9792,-2.9792,-2.9792,-2.9139,-2.7921,-2.5686,0.0,0.0,0.0,-1.8567,-1.7915,-1.7087,0.0,0.0,0.0,0.0,0.0,0.0,0.0,0.0,0.0,0.0,0.0,0.0,0.0,0.0,0.0,0.0,0.0,-3.7149,-3.745,-3.8002,-3.8894,-3.9132,-3.9408,-3.9697,-3.9697,-3.9697,-3.9697,-3.9697,-3.9697,-3.9697,-3.9697,-3.9697,-3.9697,-3.9697,0.0,-3.9697,-3.9697,-3.9521,-3.9182,-3.8341,-3.7839,-3.7475,-3.6707,-3.6405,-3.6405,0.0,0.0,0.0,0.0,0.0,0.0,0.0,-1.0689,-1.1454,-1.3372,-1.4074,-1.3944,-1.2752,-1.2098,-1.1644,0.0,0.0,0.0,0.0,0.0,0.0,0.0,0.0,0.0,0.0,0.0,0.0,0.0,0.0,0.0,0.0,0.0,0.0,0.0,0.0,0.0,0.0,0.0,0.0,0.0,0.0,0.0,0.0,0.0,0.0,0.0,0.0,0.0,0.0,0.0,-2.0061,-2.2033,-2.4488,-2.6424,-2.7858,-2.8411,-2.87,-2.9013,-2.9641,-2.9792,-2.9792,-2.9792,-2.885,-2.7243,-2.4607,-2.2937,0.0,0.0,-1.731,-1.7049,-1.6588,0.0,0.0,0.0,0.0,0.0,0.0,0.0,0.0,0.0,0.0,0.0,0.0,0.0,0.0,0.0,0.0,0.0,0.0,-3.7525,-3.804,-3.8542,-3.868,-3.8956,-3.9509,-3.9521,-3.9584,-3.9697,-3.9697,-3.9697,-3.9697,-3.9697,-3.9697,-3.9697,-3.9697,0.0,0.0,-3.9521,-3.9182,-3.863,-3.8052,-3.7563,-3.7123,-3.6619,-3.6405,-3.6405,0.0,0.0,0.0,0.0,0.0,0.0,0.0,-1.1295,-1.241,-1.4397,-1.4725,-1.4473,-1.3744,-1.3337,-1.276,0.0,0.0,0.0,0.0,0.0,0.0,0.0,0.0,0.0,0.0,0.0,0.0,0.0,0.0,0.0,0.0,0.0,0.0,0.0,0.0,0.0,0.0,0.0,0.0,0.0,0.0,0.0,0.0,0.0,0.0,0.0,0.0,0.0,0.0,0.0,0.0,-1.9522,-2.083,-2.3721,-2.6751,-2.7268,0.0,0.0,-2.9641,-2.9792,-2.9792,-2.9792,-2.8561,-2.6766,-2.4519,0.0,0.0,-1.7876,-1.6961,-1.6563,-1.65,-1.7074,0.0,0.0,0.0,-2.4286,0.0,0.0,0.0,0.0,0.0,0.0,0.0,0.0,0.0,0.0,0.0,0.0,0.0,-3.696,-3.7287,-3.7337,-3.7826,-3.8366,-3.8994,-3.8994,-3.9195,-3.9697,-3.9697,-3.9697,-3.9697,-3.9697,-3.9697,-3.9697,0.0,0.0,0.0,-3.8994,-3.8605,-3.804,-3.7475,-3.7224,-3.7123,-3.6619,-3.6405,-3.6405,0.0,0.0,0.0,0.0,0.0,0.0,-1.0499,-1.1032,-1.2063,-1.4468,-1.5155,-1.5155,-1.4468,-1.4286,-1.3562,-1.1944,0.0,0.0,0.0,0.0,0.0,0.0,0.0,0.0,0.0,0.0,0.0,0.0,0.0,0.0,0.0,0.0,0.0,0.0,0.0,0.0,0.0,0.0,0.0,0.0,0.0,0.0,0.0,0.0,0.0,0.0,0.0,0.0,0.0,0.0,0.0,0.0,-1.858,-2.0651,0.0,0.0,-2.6578,-2.7708,-2.8938,-2.9528,-2.9704,-2.9365,-2.8021,-2.6147,-2.3565,0.0,-1.9522,-1.7313,-1.6663,-1.65,-1.65,-1.671,-1.7488,-1.9371,-1.9923,-2.1302,-2.4612,0.0,0.0,0.0,0.0,0.0,0.0,0.0,0.0,0.0,0.0,0.0,0.0,-3.6619,-3.6883,-3.7174,-3.74,-3.7776,-3.8341,-3.8354,-3.8467,-3.868,-3.868,-3.868,-3.868,-3.868,-3.868,-3.868,0.0,0.0,0.0,-3.8354,-3.8015,-3.7487,-3.7262,-3.6973,-3.6707,-3.6493,-3.6405,-3.6405,0.0,0.0,0.0,0.0,0.0,-0.8491,-1.0254,-1.0688,-1.1615,-1.3912,-1.4796,-1.5035,-1.4571,-1.4332,-1.3643,-1.222,-1.191,0.0,0.0,0.0,0.0,0.0,0.0,0.0,0.0,0.0,0.0,0.0,0.0,0.0,0.0,0.0,0.0,0.0,0.0,0.0,0.0,0.0,0.0,0.0,0.0,0.0,0.0,0.0,0.0,0.0,0.0,0.0,0.0,0.0,0.0,0.0,0.0,0.0,0.0,0.0,-2.4974,-2.6527,-2.7819,-2.8737,-2.9202,-2.8787,-2.7318,-2.5335,0.0,-2.0891,-1.8995,-1.6914,-1.65,-1.65,-1.65,-1.65,-1.6939,-1.8306,-1.8618,-1.9723,-2.2681,0.0,0.0,0.0,0.0,0.0,0.0,0.0,0.0,0.0,0.0,0.0,0.0,-3.6405,-3.6581,-3.6923,-3.6935,-3.7211,-3.7764,-3.7764,-3.7839,-3.8002,-3.8002,-3.8002,-3.8002,-3.8002,-3.8002,0.0,0.0,0.0,0.0,-3.7764,-3.7437,-3.6935,-3.6935,-3.6757,-3.6405,-3.6405,-3.6405,-3.6405,0.0,0.0,0.0,0.0,0.0,0.0,-0.9704,-1.0419,-1.1286,-1.2639,-1.3391,-1.3812,-1.3812,-1.3223,-1.2816,-1.2786,-1.2179,0.0,0.0,0.0,0.0,0.0,0.0,0.0,0.0,0.0,0.0,-1.6681,0.0,0.0,0.0,0.0,0.0,0.0,0.0,0.0,0.0,0.0,0.0,0.0,0.0,0.0,0.0,0.0,0.0,0.0,0.0,0.0,0.0,0.0,0.0,0.0,0.0,0.0,0.0,0.0,-2.345,-2.5742,-2.6346,-2.7281,-2.8122,-2.8109,-2.6465,-2.4362,0.0,-2.0588,-1.8531,-1.6851,-1.65,-1.65,-1.65,-1.65,-1.671,-1.7322,-1.8744,-2.0564,-2.2794,0.0,0.0,0.0,0.0,0.0,0.0,0.0,0.0,0.0,0.0,0.0,0.0,0.0,-3.6405,-3.6417,-3.6417,-3.6681,-3.7186,-3.7199,-3.7462,-3.8002,-3.8002,-3.8002,-3.8002,-3.8002,0.0,0.0,0.0,0.0,0.0,-3.7199,-3.6872,-3.6417,-3.6417,-3.6417,-3.6405,-3.6405,-3.6405,-3.6405,0.0,0.0,0.0,0.0,0.0,0.0,0.0,-0.9383,-0.9959,-1.1256,-1.1615,-1.2093,-1.3014,-1.2519,-1.2295,-1.2771,-1.219,0.0,0.0,0.0,0.0,0.0,0.0,0.0,0.0,0.0,-1.6502,-1.6696,-1.7624,-1.7791,0.0,0.0,0.0,0.0,0.0,0.0,0.0,0.0,0.0,0.0,0.0,0.0,0.0,0.0,0.0,0.0,0.0,0.0,0.0,0.0,0.0,0.0,0.0,0.0,0.0,-1.9553,-2.1736,0.0,-2.4572,-2.5318,-2.5806,-2.5323,-2.3871,-2.2194,-2.0887,-1.9494,-1.8067,-1.6763,-1.65,-1.65,-1.65,-1.65,-1.72,-1.9309,-2.0075,-2.1207,0.0,0.0,0.0,0.0,0.0,0.0,0.0,0.0,0.0,0.0,0.0,0.0,0.0,0.0,-3.6405,-3.6405,-3.6405,-3.6493,-3.6669,-3.6669,-3.6757,-3.6933,-3.6933,-3.6933,-3.6933,-3.6933,0.0,0.0,0.0,0.0,0.0,-3.6669,-3.6568,-3.6405,-3.6405,-3.6405,-3.6499,-3.7276,-3.7057,-3.6499,0.0,0.0,0.0,0.0,0.0,0.0,0.0,-0.874,-0.9182,-0.998,-1.0299,-1.0877,-1.1925,-1.167,-1.1685,-1.2355,-1.204,0.0,0.0,0.0,0.0,0.0,0.0,0.0,0.0,-1.5785,-1.6338,-1.7085,-1.7908,-1.8255,-1.8091,-1.791,-1.7236,0.0,0.0,0.0,0.0,0.0,0.0,0.0,0.0,0.0,0.0,0.0,0.0,0.0,0.0,0.0,0.0,0.0,0.0,0.0,0.0,0.0,0.0,0.0,-2.0656,-2.2347,0.0,-2.3566,-2.412,-2.3716,-2.2511,-2.116,-2.0048,-1.8973,-1.7932,-1.7008,-1.6637,-1.6552,-1.6752,-1.6637,-1.7064,-1.8819,-1.9661,0.0,0.0,0.0,0.0,0.0,0.0,0.0,0.0,0.0,0.0,0.0,0.0,0.0,0.0,0.0,-3.6405,-3.6405,-3.6405,-3.6405,-3.6405,-3.6405,-3.6405,-3.6405,-3.6405,-3.6405,-3.6405,0.0,0.0,0.0,0.0,0.0,0.0,-3.6849,-3.7023,-3.7116,-3.7553,-3.7736,-3.7828,-3.8527,-3.8347,-3.7828,0.0,0.0,0.0,0.0,0.0,0.0,0.0,-0.8432,-0.883,-0.883,-0.9368,-0.9994,-1.0598,-1.0663,-1.0957,-1.167,0.0,0.0,0.0,0.0,0.0,0.0,0.0,0.0,-1.4767,-1.4856,-1.58,-1.7713,-1.7758,-1.8431,-1.9675,-1.862,-1.7783,-1.711,0.0,0.0,0.0,0.0,0.0,0.0,0.0,0.0,0.0,0.0,0.0,0.0,0.0,0.0,0.0,0.0,0.0,0.0,0.0,0.0,0.0,0.0,0.0,0.0,0.0,-2.2024,0.0,-2.2869,-2.1999,-2.0914,-1.9943,-1.8944,0.0,-1.7431,-1.6888,-1.6714,-1.7264,-1.6927,-1.6638,-1.6876,0.0,0.0,0.0,0.0,0.0,0.0,0.0,0.0,0.0,0.0,0.0,0.0,0.0,0.0,0.0,0.0,0.0,-3.6292,-3.6292,-3.6329,-3.6405,-3.6405,-3.6405,-3.6405,-3.6499,-3.6546,-3.6546,0.0,0.0,0.0,0.0,0.0,0.0,-3.7815,-3.8243,-3.8334,-3.9448,-3.9899,-3.9899,-3.9986,-3.9986,-3.9899,0.0,0.0,0.0,0.0,0.0,0.0,0.0,0.0,0.0,0.0,-0.8274,-0.8619,-0.9278,-0.9338,-0.9794,0.0,0.0,0.0,0.0,0.0,0.0,0.0,0.0,0.0,-1.4767,-1.529,-1.6278,-1.7713,-1.8207,-1.8897,-1.9693,-1.8914,-1.8208,-1.7522,-1.6537,-1.5489,0.0,0.0,0.0,0.0,0.0,0.0,0.0,0.0,0.0,0.0,0.0,0.0,0.0,0.0,0.0,0.0,0.0,0.0,0.0,0.0,-1.864,-1.92,-1.9302,0.0,-2.062,-2.0524,-1.9685,-1.8921,0.0,-1.8601,-1.7963,-1.7421,-1.7188,-1.7286,-1.7877,-1.7554,-1.8003,0.0,0.0,0.0,0.0,0.0,0.0,0.0,0.0,0.0,0.0,0.0,0.0,0.0,0.0,0.0,0.0,0.0,0.0,-3.5115,-3.5115,-3.5504,-3.6405,-3.6405,-3.6405,-3.6405,-3.7276,-3.7723,-3.7723,0.0,0.0,0.0,0.0,0.0,-3.9108,-3.9373,-3.9492,-3.9492,-3.9812,-3.9899,-4.0029,-4.0873,-4.0661,-4.0029,0.0,0.0,0.0,0.0,0.0,0.0,0.0,0.0,0.0,0.0,0.0,0.0,0.0,0.0,0.0,0.0,0.0,0.0,0.0,0.0,0.0,0.0,0.0,-1.2969,-1.4318,-1.4706,-1.5815,-1.7713,-1.8057,-1.8747,-1.9693,-1.9333,-1.8642,-1.7652,-1.6466,-1.565,0.0,0.0,0.0,0.0,0.0,0.0,0.0,0.0,0.0,0.0,0.0,-1.5829,0.0,-1.6976,-1.7848,-1.8642,0.0,0.0,0.0,0.0,-1.7968,-1.8311,-1.8627,-1.9475,-2.0244,-2.0169,-1.9732,-1.93,-1.9339,-1.8902,-1.8322,-1.7787,0.0,0.0,0.0,0.0,0.0,0.0,0.0,0.0,0.0,0.0,0.0,0.0,0.0,0.0,0.0,0.0,0.0,0.0,0.0,0.0,0.0,0.0,0.0,0.0,-3.468,-3.5127,-3.5981,-3.5994,-3.6119,-3.6405,-3.754,-3.8107,-3.8153,0.0,0.0,0.0,0.0,0.0,-3.9942,-4.0447,-4.0703,-4.0746,-4.1267,-4.1449,-4.1518,-4.2167,-4.1988,-4.1532,0.0,0.0,0.0,0.0,0.0,0.0,0.0,0.0,0.0,0.0,0.0,0.0,0.0,0.0,0.0,0.0,0.0,0.0,0.0,0.0,0.0,0.0,0.0,-1.2478,-1.3917,-1.3842,-1.5083,-1.7713,-1.7713,-1.8326,-1.9558,-1.9648,-1.8986,-1.7654,-1.6458,-1.5889,0.0,0.0,0.0,0.0,0.0,0.0,0.0,0.0,0.0,0.0,0.0,0.0,0.0,-1.722,-1.7908,-1.8506,-1.8313,0.0,0.0,0.0,0.0,0.0,-1.8493,-1.9765,-2.0793,-2.0598,-2.0613,-2.0563,-2.0007,0.0,0.0,0.0,0.0,0.0,0.0,0.0,0.0,0.0,0.0,0.0,0.0,0.0,0.0,0.0,0.0,0.0,0.0,0.0,0.0,0.0,0.0,0.0,0.0,0.0,0.0,0.0,-3.4474,-3.4771,-3.5494,-3.5583,-3.5991,-3.6802,-3.7851,-3.8363,-3.8546,-3.9733,0.0,0.0,0.0,0.0,-4.0504,-4.1462,-4.185,-4.1932,-4.29,-4.329,-4.329,-4.3185,-4.314,-4.3125,0.0,0.0,0.0,0.0,0.0,0.0,0.0,0.0,0.0,0.0,0.0,0.0,0.0,0.0,0.0,0.0,0.0,0.0,0.0,0.0,0.0,-1.1805,-1.1805,-1.2688,-1.4588,-1.4094,-1.5083,-1.7713,-1.7713,-1.8102,-1.8867,-1.942,-1.8986,-1.7669,-1.6891,-1.6278,-1.5799,0.0,0.0,0.0,0.0,0.0,0.0,0.0,0.0,0.0,0.0,0.0,0.0,-1.6068,-1.6877,-1.7669,-1.6593,0.0,0.0,0.0,0.0,0.0,-1.8356,-2.0094,-2.1276,-2.0142,-2.0288,-2.052,-1.9882,-1.9298,0.0,0.0,0.0,0.0,0.0,0.0,0.0,0.0,0.0,0.0,0.0,0.0,0.0,0.0,0.0,0.0,0.0,0.0,0.0,0.0,0.0,0.0,0.0,0.0,0.0,0.0,0.0,-3.4035,-3.5499,-3.5953,-3.6976,-3.8526,-3.9116,-3.9694,-4.0247,-4.1485,-4.2006,0.0,0.0,-4.278,-4.278,-4.2996,-4.3036,-4.3076,-4.325,-4.329,-4.323,-4.2716,-4.2545,-4.247,0.0,0.0,0.0,0.0,0.0,0.0,0.0,0.0,0.0,0.0,0.0,0.0,0.0,0.0,0.0,0.0,0.0,0.0,0.0,0.0,0.0,-1.231,-1.234,-1.3118,-1.4766,-1.4856,-1.5979,-1.8237,-1.8237,-1.8565,-1.9226,-1.8807,-1.8281,-1.7669,-1.6652,-1.6069,-1.5799,-1.5799,0.0,0.0,0.0,0.0,0.0,0.0,0.0,0.0,0.0,0.0,0.0,0.0,-1.6637,-1.7518,-1.6577,0.0,0.0,0.0,0.0,0.0,-1.737,-1.882,-2.0109,-2.0213,-2.1525,-2.2631,-2.1964,-2.1624,-2.1249,0.0,0.0,0.0,0.0,0.0,0.0,0.0,0.0,0.0,0.0,0.0,0.0,0.0,0.0,0.0,0.0,0.0,0.0,0.0,0.0,0.0,0.0,0.0,0.0,0.0,0.0,0.0,-3.6733,-3.6984,-3.7551,-3.8379,-3.9187,-3.9779,-4.0107,-4.1326,-4.1871,-4.1886,0.0,-4.2282,-4.2282,-4.2282,-4.2282,-4.2282,-4.2282,-4.2282,-4.2237,-4.1938,-4.1871,-4.1826,0.0,0.0,0.0,0.0,0.0,0.0,0.0,0.0,0.0,0.0,0.0,0.0,0.0,0.0,0.0,0.0,0.0,0.0,0.0,0.0,-1.1256,-1.2295,-1.2774,-1.3732,-1.5216,-1.5604,-1.6743,-1.8702,-1.8702,-1.9031,-1.9678,-1.8493,-1.7848,-1.7637,-1.6518,-1.5919,-1.5799,-1.5799,-1.5799,0.0,0.0,0.0,0.0,0.0,0.0,0.0,0.0,0.0,0.0,0.0,0.0,0.0,0.0,0.0,0.0,-1.6293,-1.5904,-1.5994,-1.6921,-1.8027,-1.9226,-2.0404,-2.2213,-2.3708,-2.3819,-2.3459,-2.3044,0.0,0.0,0.0,0.0,0.0,0.0,0.0,0.0,0.0,0.0,0.0,0.0,0.0,0.0,0.0,0.0,0.0,0.0,0.0,0.0,0.0,0.0,0.0,0.0,0.0,0.0,0.0,-3.7791,-3.7791,-3.8029,-3.8496,-3.9222,-3.9644,-3.9828,-4.0736,-4.1145,-4.116,-4.1309,-4.1422,-4.1422,-4.1422,-4.1422,-4.1422,-4.1422,-4.128,-4.1145,-4.1145,-4.1055,-4.092,0.0,0.0,0.0,0.0,0.0,0.0,0.0,0.0,0.0,0.0,0.0,0.0,0.0,0.0,0.0,0.0,0.0,0.0,0.0,0.0,-1.0842,-1.0932,-1.2736,-1.4619,-1.6517,-1.6054,-1.6743,-1.8702,-1.8702,-1.9031,-1.9693,-1.8957,-1.8296,-1.7669,-1.695,-1.6323,-1.5799,-1.5799,-1.5799,-1.5799,0.0,0.0,0.0,0.0,0.0,0.0,0.0,0.0,0.0,0.0,0.0,0.0,0.0,0.0,-1.6741,-1.6651,-1.6248,-1.6188,-1.8059,-1.9076,-1.9794,-2.0509,-2.0838,-2.16,-2.3992,-2.2996,0.0,-2.5599,0.0,0.0,0.0,0.0,0.0,0.0,0.0,0.0,0.0,0.0,0.0,0.0,0.0,0.0,0.0,0.0,0.0,0.0,0.0,0.0,0.0,0.0,0.0,0.0,0.0,0.0,-3.7791,-3.7791,-3.8606,-4.0219,-3.9682,-3.9727,-4.0345,-4.0435,-4.0472,-4.0502,-4.1115,-4.1422,-4.1422,-4.1422,-4.1422,-4.1422,-4.1422,-4.101,-4.0472,-4.0472,-4.0083,-3.9523,0.0,0.0,0.0,0.0,0.0,0.0,0.0,0.0,0.0,0.0,0.0,0.0,0.0,0.0,0.0,0.0,0.0,0.0,0.0,-0.9734,-1.0583,-1.139,-1.2538,-1.3914,-1.5471,-1.6488,-1.7745,-1.9316,-1.8897,-1.8837,-1.9046,-1.7968,-1.7324,-1.7055,-1.6413,-1.6009,-1.5799,-1.5799,-1.5559,-1.517,-1.517,0.0,0.0,0.0,0.0,0.0,0.0,0.0,0.0,0.0,-1.4569,-1.5724,-1.5305,-1.5875,-1.6637,-1.6263,-1.5979,-1.5963,-1.6698,-1.827,-1.9872,-2.0524,-2.162,0.0,0.0,-2.5565,-2.6352,-2.8013,-2.7751,0.0,0.0,0.0,0.0,0.0,0.0,0.0,0.0,0.0,0.0,0.0,0.0,0.0,0.0,0.0,0.0,0.0,0.0,0.0,0.0,0.0,0.0,0.0,0.0,0.0,0.0,-3.8148,-3.872,-3.9783,-3.9508,-3.9508,-3.9783,-3.9783,-3.9783,-3.9798,-4.0053,-4.0172,-4.0172,-4.0172,-4.0172,-4.0172,-4.0172,-4.0008,-3.9783,-3.9783,-3.9634,-3.9388,0.0,0.0,0.0,0.0,0.0,0.0,0.0,0.0,0.0,0.0,0.0,0.0,0.0,0.0,0.0,0.0,0.0,0.0,-0.8552,-0.9203,-0.9974,-1.0842,-1.1905,-1.3014,-1.4137,-1.6099,-1.7639,-1.8747,-1.8508,-1.8371,-1.8356,-1.7234,-1.6801,-1.698,-1.6159,-1.5904,-1.6069,-1.5649,-1.5215,-1.4767,-1.4573,-1.3807,0.0,0.0,0.0,0.0,0.0,0.0,0.0,0.0,-1.3715,-1.4854,-1.4811,-1.5397,-1.6099,-1.6084,-1.6069,-1.6129,-1.6338,-1.7849,-1.9585,-2.0479,0.0,0.0,-2.6108,-2.7524,-2.8878,-3.0368,-3.0313,0.0,0.0,0.0,0.0,0.0,0.0,0.0,0.0,0.0,0.0,0.0,0.0,0.0,0.0,0.0,0.0,0.0,0.0,0.0,0.0,0.0,0.0,0.0,0.0,0.0,0.0,-3.8078,-3.8317,-3.876,-3.899,-3.9215,-3.9388,-3.9388,-3.9388,-3.9388,-3.9388,-3.9388,-3.9388,-3.9388,-3.9388,-3.9388,-3.9388,-3.9388,-3.9388,-3.9388,-3.9388,-3.9388,0.0,0.0,0.0,0.0,0.0,0.0,0.0,0.0,0.0,0.0,0.0,0.0,0.0,0.0,0.0,0.0,0.0,0.0,-0.7899,-0.8522,-0.8905,-0.8905,-1.0752,-1.21,-1.2786,-1.4749,-1.6069,-1.6696,-1.7354,-1.7684,-1.7669,-1.701,-1.7055,-1.7639,-1.6368,-1.6129,-1.6592,-1.5351,-1.4811,-1.4722,-1.4079,-1.3391,0.0,0.0,0.0,0.0,0.0,0.0,0.0,0.0,-1.2789,-1.3029,-1.4376,-1.4811,-1.5052,-1.6323,-1.6696,-1.6845,-1.7503,-1.8192,-1.9061,0.0,0.0,0.0,-2.7859,-2.8366,-2.9131,-3.2764,-3.2803,-3.1915,-3.0979,0.0,0.0,0.0,0.0,0.0,0.0,0.0,0.0,0.0,0.0,0.0,0.0,0.0,0.0,0.0,0.0,0.0,0.0,0.0,0.0,0.0,0.0,0.0,0.0,-3.7404,-3.7404,-3.7419,-3.8063,-3.8736,-3.9373,-3.9388,-3.9388,-3.9388,-3.9388,-3.9388,-3.9388,-3.9388,-3.9388,-3.9388,-3.9388,-3.9388,-3.9388,-3.9388,-3.9388,-3.9388,0.0,0.0,0.0,0.0,0.0,0.0,0.0,0.0,0.0,0.0,0.0,0.0,0.0,0.0,0.0,0.0,0.0,0.0,-0.7899,-0.8522,-0.9107,-0.9584,-1.0553,-1.1405,-1.2074,-1.3133,-1.4677,-1.6696,-1.6473,-1.6368,-1.6368,-1.6159,-1.6173,-1.6368,-1.6398,-1.6039,-1.5351,-1.4947,-1.4528,-1.4079,-1.3872,-1.3391,0.0,0.0,0.0,0.0,0.0,0.0,0.0,0.0,0.0,0.0,-1.3825,-1.4737,-1.5574,-1.5964,-1.6697,-1.7339,-1.707,-1.8864,0.0,-2.1874,0.0,0.0,0.0,-3.0208,0.0,0.0,-3.2806,-3.1842,0.0,0.0,0.0,0.0,0.0,0.0,0.0,0.0,0.0,0.0,0.0,0.0,0.0,0.0,0.0,0.0,0.0,0.0,0.0,0.0,0.0,0.0,0.0,0.0,0.0,0.0,-3.6985,-3.7404,-3.7599,-3.8048,-3.8706,-3.92,-3.9388,-3.9388,-3.9388,-3.9388,-3.9388,-3.9388,-3.9388,-3.9388,-3.9388,-3.9388,-3.9388,-3.9388,-3.9388,-3.9388,0.0,0.0,0.0,0.0,0.0,0.0,0.0,0.0,0.0,0.0,0.0,0.0,0.0,0.0,0.0,0.0,0.0,0.0,0.0,-0.8282,-0.8807,-0.9473,-1.0114,-1.0987,-1.2175,-1.2579,-1.3568,-1.5157,-1.5052,-1.514,-1.541,-1.5679,-1.5919,-1.6174,-1.6547,-1.6129,-1.5155,-1.4631,-1.4169,-1.3782,-1.351,-1.3163,-1.2801,0.0,0.0,0.0,0.0,0.0,0.0,0.0,0.0,0.0,-1.3181,-1.3957,-1.4764,-1.5574,-1.6518,-1.7384,-1.7772,-1.9765,0.0,-2.3475,-2.5743,-2.8319,-3.1061,0.0,0.0,0.0,0.0,0.0,0.0,0.0,0.0,0.0,0.0,0.0,0.0,0.0,0.0,0.0,0.0,0.0,0.0,0.0,0.0,0.0,0.0,0.0,0.0,0.0,0.0,0.0,0.0,0.0,0.0,0.0,-3.6282,-3.6656,-3.6926,-3.724,-3.7659,-3.8317,-3.8616,-3.8616,-3.8616,-3.8616,-3.8616,-3.8616,-3.8766,-3.9005,-3.9005,-3.9185,-3.9388,-3.9388,-3.9388,-3.9388,0.0,0.0,0.0,0.0,0.0,0.0,0.0,0.0,0.0,0.0,-0.7899,0.0,0.0,0.0,0.0,0.0,0.0,0.0,0.0,0.0,-0.8237,-0.8965,-0.9689,-1.0902,-1.2669,-1.2639,-1.2639,-1.2699,-1.3376,-1.4049,-1.4707,-1.5395,-1.6024,-1.6622,-1.6622,-1.6249,-1.553,-1.4259,-1.3707,-1.366,-1.3044,-1.2801,-1.2801,-1.2801,0.0,0.0,0.0,0.0,0.0,0.0,0.0,0.0,-1.2579,-1.2834,-1.3253,-1.5154,-1.6219,-1.7204,-1.9091,0.0,0.0,-2.5046,-2.6871,0.0,0.0,0.0,0.0,0.0,0.0,0.0,0.0,0.0,0.0,0.0,0.0,0.0,0.0,0.0,0.0,0.0,0.0,0.0,0.0,0.0,0.0,0.0,0.0,0.0,0.0,0.0,0.0,0.0,0.0,0.0,0.0,-3.5504,-3.5504,0.0,-3.6118,-3.6402,-3.6417,-3.7105,-3.7404,-3.7404,-3.7404,-3.7404,-3.7404,-3.7404,-3.7764,-3.8302,-3.8302,-3.8676,-3.9209,-3.9209,-3.9209,-3.9245,0.0,0.0,0.0,0.0,0.0,0.0,0.0,0.0,0.0,0.0,0.0,0.0,0.0,0.0,0.0,0.0,0.0,0.0,0.0,0.0,-0.8439,-0.9629,-1.0772,-1.158,-1.201,-1.1506,-1.1491,-1.2025,-1.2684,-1.3358,-1.4034,-1.4706,-1.5365,-1.5994,-1.5994,-1.535,-1.4184,-1.3358,-1.3014,-1.2999,-1.2861,-1.2801,-1.2801,-1.2801,-1.2385,0.0,0.0,0.0,0.0,0.0,0.0,0.0,-1.2579,-1.3163,-1.378,-1.4736,-1.6204,-1.7682,-1.8657,-2.0647,0.0,0.0,-2.8936,-3.1674,0.0,0.0,0.0,0.0,0.0,0.0,0.0,0.0,0.0,0.0,0.0,0.0,0.0,0.0,0.0,0.0,0.0,0.0,0.0,0.0,0.0,0.0,0.0,0.0,0.0,0.0,0.0,0.0,0.0,0.0,-3.5504,-3.5504,-3.5504,0.0,-3.5654,-3.5714,-3.5744,-3.6881,-3.7404,-3.7404,-3.7404,-3.7404,-3.7404,-3.7404,-3.7494,-3.7629,-3.7629,-3.7704,-3.7838,-3.7838,-3.7838,-3.7913,0.0,0.0,0.0,0.0,0.0,0.0,0.0,0.0,0.0,0.0,0.0,0.0,0.0,0.0,0.0,0.0,0.0,0.0,0.0,-0.7899,-0.8349,-0.9383,-1.0638,-1.1191,-1.0892,-1.0837,-1.0962,-1.1316,-1.167,-1.2512,-1.3827,-1.5112,-1.589,-1.6234,-1.6234,-1.55,-1.4214,-1.3223,-1.2801,-1.2801,-1.2801,-1.2801,-1.2801,-1.2801,-1.2385,-1.1805,-1.1805,0.0,0.0,0.0,0.0,0.0,0.0,0.0,-1.3047,-1.4034,-1.5485,-1.7071,-1.8358,0.0,0.0,-2.72,0.0,0.0,0.0,0.0,0.0,0.0,0.0,0.0,0.0,0.0,0.0,0.0,0.0,0.0,0.0,0.0,0.0,0.0,0.0,0.0,0.0,0.0,0.0,0.0,0.0,0.0,0.0,0.0,0.0,0.0,0.0,0.0,-3.5504,-3.5504,-3.5504,-3.5504,-3.5504,-3.5504,-3.5534,-3.6193,-3.6492,-3.6492,-3.6492,-3.6492,-3.6492,-3.6492,-3.6686,-3.6971,-3.6971,-3.715,-3.7404,-3.7404,-3.7404,-3.7464,0.0,0.0,0.0,0.0,0.0,0.0,0.0,0.0,0.0,0.0,0.0,0.0,0.0,0.0,0.0,0.0,0.0,0.0,0.0,-0.8026,-0.8327,-0.8875,-1.0024,-1.0404,-0.9905,-1.0279,-1.0583,-1.0798,-1.0798,-1.1899,-1.4006,-1.5621,-1.6502,-1.6696,-1.6592,-1.583,-1.4528,-1.3193,-1.2564,-1.2445,-1.2351,-1.2295,-1.231,-1.2415,-1.2115,-1.164,-1.176,-1.1805,-1.1805,-1.1805,0.0,0.0,0.0,0.0,-1.2044,-1.3271,-1.4586,-1.6008,-1.773,0.0,-2.4477,-2.8169,-2.9789,0.0,0.0,0.0,0.0,0.0,0.0,0.0,0.0,0.0,0.0,0.0,0.0,0.0,0.0,0.0,0.0,0.0,0.0,0.0,0.0,0.0,0.0,0.0,0.0,0.0,0.0,0.0,0.0,0.0,0.0,-3.5504,-3.5504,-3.5504,-3.5504,-3.5504,-3.5504,-3.5504,-3.5504,-3.5504,-3.5504,-3.5504,-3.5504,-3.5504,-3.5504,-3.5504,-3.5833,-3.6312,-3.6312,-3.6626,-3.7075,-3.7075,-3.7075,-3.7105,0.0,0.0,0.0,0.0,0.0,0.0,0.0,0.0,0.0,0.0,0.0,-0.8088,-0.8077,-0.8082,0.0,0.0,0.0,0.0,-0.8077,0.0,0.0,-0.889,-0.9614,-0.998,-0.9905,-0.9413,-0.9689,-1.0798,-1.0798,-1.2123,-1.4663,-1.4932,-1.5636,-1.6681,-1.6144,-1.5185,-1.3855,-1.2508,-1.1595,-1.1017,-1.0503,-1.0288,-1.0339,-1.0867,-1.1017,-1.1017,-1.1595,-1.1805,-1.1805,-1.1805,-1.1805,0.0,0.0,0.0,0.0,0.0,-1.3882,-1.5125,0.0,0.0,-2.4148,0.0,-2.8757,0.0,0.0,0.0,0.0,0.0,0.0,0.0,0.0,0.0,0.0,0.0,0.0,0.0,0.0,0.0,0.0,0.0,0.0,0.0,0.0,0.0,0.0,0.0,0.0,0.0,0.0,0.0,-3.5504,-3.5504,-3.5504,-3.5504,-3.5504,-3.5504,-3.5504,-3.5504,-3.5504,-3.5504,-3.5504,-3.5504,-3.5504,-3.5504,-3.5504,-3.5504,-3.5504,-3.5504,-3.5549,-3.5639,-3.5639,-3.5684,-3.5759,-3.5759,-3.5759,-3.5848,0.0,0.0,0.0,0.0,0.0,0.0,0.0,0.0,0.0,0.0,0.0,-0.8267,-0.8267,-0.8364,0.0,0.0,0.0,0.0,-0.8102,-0.8328,0.0,-0.8453,-0.902,-0.9193,-0.8903,-0.8893,-0.9167,-0.9734,-0.9734,-1.1471,-1.4811,-1.4811,-1.5889,-1.7788,-1.6757,-1.5785,-1.4811,-1.3089,-1.176,-1.0783,-1.0508,-1.0847,-1.1471,-1.0987,-1.1499,-1.2422,-1.1969,-1.1805,-1.1805,0.0,0.0,0.0,0.0,0.0,0.0,0.0,0.0,0.0,-1.7297,-1.9929,-2.2727,0.0,0.0,0.0,0.0,0.0,0.0,0.0,0.0,0.0,0.0,0.0,0.0,0.0,0.0,0.0,0.0,0.0,0.0,0.0,0.0,0.0,0.0,0.0,0.0,0.0,0.0,0.0,0.0,-3.5504,-3.5504,-3.5504,-3.5504,0.0,-3.5504,-3.5504,-3.5504,-3.5504,-3.5504,-3.5504,-3.5504,-3.5504,-3.5504,-3.5504,-3.5504,-3.5504,-3.5504,-3.5504,-3.5504,-3.5504,-3.5504,-3.5504,-3.5504,-3.5504,-3.5504,-3.5549,0.0,0.0,0.0,0.0,0.0,0.0,0.0,0.0,0.0,0.0,0.0,0.0,-0.8479,0.0,0.0,0.0,0.0,0.0,-0.8257,0.0,0.0,0.0,0.0,-0.8507,-0.8111,-0.8454,-0.8725,-0.8905,-0.9062,-1.1092,-1.4811,-1.4975,-1.6458,-1.8897,-1.7728,-1.6577,-1.5439,-1.3762,-1.2373,-1.1286,-1.1121,-1.1655,-1.249,-1.1999,-1.2762,-1.3899,-1.2732,-1.2314,0.0,0.0,0.0,0.0,0.0,0.0,0.0,0.0,0.0,0.0,0.0,0.0,-2.0763,-2.4238,0.0,0.0,0.0,0.0,0.0,0.0,0.0,0.0,0.0,0.0,0.0,0.0,0.0,0.0,0.0,0.0,0.0,0.0,0.0,0.0,0.0,0.0,0.0,0.0,0.0,0.0,-3.5504,-3.5504,-3.5504,-3.5504,-3.5504,-3.5504,-3.5504,-3.5504,-3.5504,-3.5504,-3.5504,-3.5504,-3.5504,-3.5504,-3.5504,-3.5504,-3.5504,-3.5504,-3.5504,-3.5504,-3.5504,-3.5504,-3.5504,-3.5504,-3.5504,-3.5504,-3.5504,-3.5504,0.0,0.0,0.0,0.0,0.0,0.0,0.0,0.0,0.0,0.0,0.0,0.0,-0.8687,-0.8693,-0.8742,-0.8858,0.0,0.0,0.0,0.0,0.0,0.0,0.0,0.0,-0.8095,-0.8007,-0.8267,-0.8905,-0.9533,-1.1546,-1.4811,-1.5454,-1.7132,-1.9618,-1.8912,-1.7206,-1.4811,-1.4064,-1.3331,-1.2651,-1.1999,-1.179,-1.2044,-1.3897,-1.4661,-1.4661,-1.3947,0.0,0.0,0.0,0.0,0.0,0.0,0.0,0.0,0.0,0.0,0.0,0.0,-1.6907,0.0,0.0,0.0,0.0,0.0,0.0,0.0,0.0,0.0,0.0,0.0,0.0,0.0,0.0,0.0,0.0,0.0,0.0,0.0,0.0,0.0,0.0,0.0,0.0,0.0,0.0,0.0,0.0,-3.5504,-3.5504,-3.5504,-3.5504,-3.5504,-3.5504,-3.5504,-3.5504,-3.5504,-3.5504,-3.5504,-3.5504,-3.5504,-3.5504,-3.5504,-3.5504,-3.5504,-3.5504,-3.5504,-3.5504,-3.5504,-3.5504,-3.5504,-3.5504,-3.5504,-3.5504,-3.5504,-3.5504,0.0,0.0,0.0,0.0,0.0,0.0,0.0,0.0,0.0,0.0,0.0,0.0,0.0,-0.8835,-0.8858,-0.8891,-0.8863,0.0,0.0,0.0,0.0,0.0,0.0,0.0,0.0,-0.804,-0.8019,-0.8267,-0.8499,-1.0078,-1.2882,-1.3565,-1.4826,-1.6608,-1.761,-1.7534,-1.6562,-1.5067,0.0,0.0,0.0,-1.36,-1.4391,-1.4691,-1.5575,-1.6562,0.0,0.0,0.0,0.0,0.0,0.0,-1.2849,-1.2732,-1.29,-1.2044,-1.2418,0.0,0.0,0.0,0.0,0.0,0.0,0.0,0.0,0.0,0.0,0.0,0.0,0.0,0.0,0.0,0.0,0.0,0.0,0.0,0.0,0.0,0.0,0.0,0.0,0.0,0.0,0.0,0.0,0.0,0.0,0.0,-3.4218,-3.4218,-3.4218,-3.4218,-3.4218,-3.4412,-3.4846,-3.528,-3.5504,-3.5504,-3.5504,-3.5504,-3.5504,-3.5504,-3.5504,-3.5504,-3.5504,-3.5504,-3.5504,-3.5504,-3.5504,-3.5504,-3.5504,-3.5504,-3.5504,-3.5504,-3.5504,-3.5504,0.0,0.0,0.0,0.0,0.0,0.0,0.0,0.0,0.0,-0.876,0.0,0.0,0.0,0.0,-0.8897,-0.8897,-0.8897,-0.8852,-0.8771,-0.876,0.0,0.0,0.0,0.0,0.0,-0.804,-0.7899,-0.7899,-0.8132,-0.9345,-1.1491,-1.216,-1.3298,-1.4841,-1.568,-1.6443,0.0,0.0,0.0,-1.4799,0.0,0.0,-1.6458,-1.6682,-1.7445,0.0,0.0,0.0,0.0,0.0,0.0,0.0,0.0,-1.3121,-1.2945,-1.2059,-1.2583,0.0,-1.3466,0.0,0.0,0.0,0.0,0.0,0.0,0.0,0.0,0.0,0.0,0.0,0.0,0.0,0.0,0.0,0.0,0.0,0.0,0.0,0.0,0.0,0.0,0.0,0.0,0.0,0.0,0.0,0.0,0.0,-3.3499,-3.3499,-3.3499,-3.3499,-3.3499,-3.3709,-3.4174,-3.4607,-3.4936,-3.516,-3.516,-3.528,-3.5504,-3.5504,-3.5504,-3.5504,-3.5504,-3.5504,-3.5504,-3.5504,-3.5504,-3.5504,-3.5504,-3.5504,-3.5504,-3.5504,-3.5504,-3.5504,0.0,0.0,0.0,0.0,0.0,0.0,0.0,0.0,-0.8897,-0.8897,0.0,0.0,0.0,0.0,0.0,-0.8931,-0.8931,-0.8931,-0.8897,-0.8897,0.0,0.0,0.0,0.0,-0.8115,-0.7983,-0.7914,-0.7906,-0.8567,-0.9527,-1.0753,-1.1431,-1.2804,-1.4631,-1.3358,-1.388,-1.5799,0.0,-1.7234,-1.6771,0.0,-1.7713,-1.7999,0.0,0.0,0.0,-1.9783,-1.9346,0.0,0.0,0.0,0.0,0.0,-1.2945,-1.188,-1.1835,-1.234,-1.2876,0.0,0.0,0.0,0.0,0.0,0.0,0.0,0.0,0.0,0.0,0.0,0.0,0.0,0.0,0.0,0.0,0.0,0.0,0.0,0.0,0.0,0.0,0.0,0.0,0.0,0.0,0.0,0.0,0.0,-3.344,-3.344,-3.344,-3.344,-3.344,-3.3455,-3.3469,-3.3469,-3.3484,-3.3814,-3.4474,-3.4474,-3.4801,-3.5474,-3.5474,-3.5489,-3.5504,-3.5504,-3.5504,-3.5504,-3.5504,-3.5504,-3.5504,-3.5504,-3.5504,-3.5504,-3.5504,-3.5504,-3.5504,0.0,0.0,0.0,0.0,0.0,-0.8897,-0.8897,-0.8897,-0.8897,0.0,0.0,0.0,-0.8965,-0.9377,-0.9686,-0.9686,-0.9686,-0.9472,-0.8931,-0.8897,-0.888,-0.8852,-0.87,-0.8592,-0.8532,-0.8348,-0.8189,-0.8051,-0.8376,-0.8849,-0.9443,-1.0215,-1.1051,-1.1929,-1.2534,-1.3115,-1.3655,-1.4017,0.0,0.0,-1.71,-1.8076,0.0,0.0,0.0,0.0,0.0,-2.1445,-2.0812,0.0,-1.9675,-1.8448,0.0,0.0,-1.378,-1.2804,-1.3685,-1.4644,-1.3205,0.0,0.0,0.0,0.0,0.0,0.0,0.0,0.0,0.0,0.0,0.0,0.0,0.0,0.0,0.0,0.0,0.0,0.0,0.0,0.0,0.0,0.0,0.0,0.0,0.0,0.0,0.0,0.0,-3.2049,-3.2049,-3.2049,-3.2049,-3.2049,-3.2512,-3.2781,-3.2781,-3.326,-3.3589,-3.3769,-3.3769,-3.4113,-3.4788,-3.4788,-3.504,-3.5504,-3.5504,-3.5504,-3.5504,-3.5504,-3.5504,-3.5504,-3.5504,-3.5504,-3.5504,-3.5504,-3.5504,-3.5504,0.0,0.0,0.0,-0.9321,-0.936,-0.9461,-0.9772,-0.9823,-0.9823,0.0,0.0,0.0,-0.9874,-1.0504,-1.0818,-1.048,-1.0176,-0.9821,-0.9393,-0.9078,-0.8869,-0.8823,-0.8747,-0.8663,-0.8573,-0.8467,-0.8348,-0.8234,-0.826,-0.8369,-0.8583,-0.905,-0.9537,-1.0034,-1.0584,-1.1409,-1.2355,-1.1816,0.0,0.0,-1.7895,0.0,0.0,-2.1755,-2.2263,0.0,0.0,0.0,-2.2119,-2.2119,-2.0842,0.0,0.0,-1.5964,-1.5005,-1.3942,-1.4827,-1.5859,-1.4436,-1.5352,0.0,0.0,0.0,0.0,0.0,0.0,0.0,0.0,0.0,0.0,0.0,0.0,0.0,0.0,0.0,0.0,0.0,0.0,0.0,0.0,0.0,0.0,0.0,0.0,0.0,0.0,-3.1511,-3.1511,-3.1511,-3.1511,-3.1511,-3.1511,-3.1869,-3.2079,-3.2079,-3.2452,-3.2811,-3.308,-3.308,-3.3425,-3.4068,-3.4068,-3.4442,-3.507,-3.507,-3.5235,-3.5504,-3.5504,-3.5504,-3.5504,-3.5504,-3.5504,-3.5504,-3.5504,-3.5504,-3.5504,0.0,0.0,-0.93,-0.9915,-1.0013,-1.0278,-1.1113,-1.1171,-1.1171,0.0,-1.1357,-1.1424,-1.157,-1.2094,-1.2162,-1.1536,-1.0734,-1.0227,-1.0125,-0.9427,-0.8936,-0.8735,-0.8729,-0.8634,-0.8457,-0.845,-0.8444,-0.8441,-0.8264,-0.8162,-0.8138,-0.8165,-0.8409,-0.8818,-0.8341,-0.9448,-1.1589,0.0,0.0,-1.6061,-1.8997,-2.0406,0.0,0.0,-2.3589,0.0,-2.3996,-2.3749,-2.2881,-2.2786,-2.1154,0.0,0.0,-1.7206,-1.6173,-1.5261,-1.5965,0.0,-1.6114,-1.6443,-1.7145,0.0,0.0,0.0,0.0,-1.8957,0.0,0.0,0.0,0.0,0.0,0.0,0.0,0.0,0.0,0.0,0.0,0.0,0.0,0.0,0.0,0.0,0.0,0.0,0.0,-3.1241,-3.1286,-3.1286,-3.1286,-3.1346,-3.1391,-3.1391,-3.1466,-3.1511,-3.1511,-3.1511,-3.1795,-3.2378,-3.2378,-3.2751,-3.338,-3.338,-3.3739,-3.4399,-3.4474,-3.4848,-3.54,-3.5474,-3.5504,-3.5504,-3.5504,-3.5504,-3.5504,-3.5504,-3.5504,-3.5504,0.0,-0.9149,-0.9315,-1.0036,-1.0065,-1.0463,-1.1857,-1.1519,-1.1543,-1.2787,-1.2956,-1.3405,-1.458,-1.3794,-1.3354,-1.3794,-1.261,-1.1586,-1.0927,-1.0193,-0.9511,-0.8886,-0.8852,-0.8835,-0.8807,-0.8807,-0.8743,-0.8651,-0.8714,-0.8607,-0.8348,-0.8501,-0.855,-0.8494,-0.8392,-0.9241,-1.0791,0.0,0.0,-1.593,-1.7473,0.0,-2.2783,-2.3813,-2.4399,-2.4627,-2.4463,-2.4251,-2.3984,0.0,-2.2661,-2.161,0.0,0.0,0.0,-1.6995,0.0,-1.8732,-1.7011,-1.7788,-1.8897,-1.7938,0.0,0.0,0.0,-1.7593,0.0,0.0,0.0,0.0,0.0,0.0,0.0,0.0,0.0,0.0,0.0,0.0,0.0,0.0,0.0,0.0,0.0,0.0,-2.9846,-2.9953,-2.9968,-2.9968,-2.9968,-3.0432,-3.0717,-3.0717,-3.1212,-3.1511,-3.1511,-3.1511,-3.157,-3.1705,-3.1705,-3.2049,-3.2706,-3.2706,-3.3066,-3.3724,-3.4279,-3.4578,-3.4758,-3.528,-3.5504,-3.5504,-3.5504,-3.5504,-3.5504,-3.5504,-3.5504,-3.5504,-0.9307,-0.9535,-0.9953,-1.063,-1.1015,-1.1728,-1.3185,-1.3148,-1.3453,-1.4862,-1.5368,-1.5595,-1.5595,-1.5266,-1.4894,-1.4537,-1.3481,-1.2355,-1.1188,-1.0413,-0.9669,-0.8931,-0.8897,-0.9078,-0.9438,-0.9095,-0.9043,-0.9346,-0.8984,-0.8718,-0.8548,-0.8657,-0.9183,-1.0026,-0.938,-1.0451,-1.2683,0.0,-1.4125,-1.6991,-1.8673,0.0,-2.3227,-2.484,-2.5524,-2.5559,-2.5297,-2.5028,-2.4701,-2.4004,-2.3437,0.0,0.0,-2.0805,-2.0812,0.0,-1.9151,-1.9914,-1.8551,-1.8927,-1.9633,-1.9283,0.0,0.0,0.0,0.0,0.0,0.0,0.0,0.0,0.0,0.0,0.0,0.0,0.0,0.0,0.0,0.0,0.0,0.0,0.0,0.0,0.0,0.0,-2.8888,-2.9562,-2.9606,-2.9606,-2.9606,-2.9906,-3.0043,-3.0043,-3.0372,-3.0717,-3.0987,-3.0987,-3.1167,-3.1511,-3.1511,-3.1675,-3.1989,-3.1989,-3.2377,-3.3021,-3.3365,-3.3679,-3.4038,-3.4711,-3.4996,-3.5026,-3.537,-3.5504,-3.5504,-3.5504,-3.5504,-3.5504,-0.9399,-0.997,-1.0612,-1.1074,-1.1931,-1.2954,-1.4143,-1.4452,-1.508,-1.6499,-1.7521,-1.7685,-1.657,-1.6904,-1.6761,-1.5653,-1.464,-1.3447,-1.2068,-1.1147,-1.0335,-0.9586,-0.9264,-0.9461,-1.0193,-0.9343,-0.9196,-0.9787,-0.9089,-0.8747,-0.8747,-0.8879,-0.9888,-1.1548,-1.0818,-1.2182,0.0,0.0,0.0,-1.8705,0.0,-2.1948,-2.3136,-2.5562,-2.6184,-2.5797,-2.5929,-2.5652,-2.509,-2.4364,0.0,-2.315,-2.1797,-2.1675,0.0,0.0,0.0,0.0,0.0,0.0,0.0,0.0,0.0,-1.9765,0.0,0.0,0.0,-1.9941,0.0,0.0,0.0,0.0,0.0,0.0,0.0,0.0,0.0,0.0,0.0,0.0,0.0,0.0,0.0,0.0,-2.739,-2.8738,-2.8697,-2.8742,-2.9022,-2.9277,-2.9427,-2.9427,-2.9547,-2.9819,-3.0313,-3.0447,-3.0776,-3.1316,-3.1436,-3.1511,-3.1511,-3.1511,-3.1795,-3.2303,-3.2422,-3.2826,-3.3365,-3.4039,-3.4324,-3.4399,-3.519,-3.5504,-3.5504,-3.5504,-3.5504,-3.5504,-0.9649,-1.0195,-1.0679,-1.068,-1.1843,-1.2987,-1.3608,-1.3718,-1.4452,-1.6431,-1.8164,-1.9286,-1.9481,-1.927,0.0,-1.9362,0.0,0.0,-1.5138,0.0,-1.2677,-1.1942,-1.0599,-1.0227,-1.0961,-0.962,-0.8948,-0.9027,-0.8931,-0.8869,-0.8886,-0.9549,-1.0312,-1.1215,-1.2442,0.0,0.0,0.0,-1.7754,0.0,-2.1491,-2.2134,0.0,-2.4958,-2.5397,-2.502,-2.5748,-2.5652,-2.509,0.0,-2.3847,-2.32,0.0,-2.2376,0.0,0.0,0.0,0.0,0.0,0.0,0.0,0.0,-2.1889,0.0,0.0,0.0,-1.9286,-1.8252,0.0,0.0,0.0,0.0,0.0,0.0,0.0,0.0,0.0,0.0,0.0,0.0,0.0,0.0,0.0,0.0,0.0,-2.5959,-2.5486,-2.5704,-2.6896,-2.8068,-2.8712,-2.8712,-2.9307,-2.9636,-2.9711,-3.0223,-3.0537,-3.0627,-3.1212,-3.1511,-3.1511,-3.1511,-3.154,-3.1645,-3.2228,-3.2557,-3.2677,-3.3335,-3.3604,-3.3739,-3.5011,-3.5504,-3.5504,-3.5504,-3.5504,-3.5504,-0.9702,-1.0576,-1.1175,-1.0685,-1.2275,-1.379,-1.4337,-1.6352,-1.7926,-1.8186,-1.9653,-2.0689,0.0,0.0,0.0,0.0,0.0,-1.7597,0.0,0.0,-1.4349,-1.299,-1.1908,-1.1485,-1.1789,-1.0318,-0.954,-0.954,-0.9111,-0.8897,-0.8914,-0.9658,-1.1106,-1.31,-1.3752,0.0,-1.8143,0.0,0.0,0.0,0.0,0.0,0.0,-2.5274,-2.6101,-2.5949,-2.6284,-2.6263,-2.5954,0.0,-2.4665,0.0,0.0,0.0,0.0,0.0,0.0,0.0,0.0,0.0,0.0,0.0,0.0,0.0,0.0,0.0,-1.9776,0.0,0.0,0.0,0.0,0.0,0.0,0.0,0.0,0.0,0.0,0.0,0.0,0.0,0.0,0.0,0.0,0.0,0.0,0.0,0.0,-2.4969,-2.6351,-2.7063,-2.7619,-2.8019,-2.8304,-2.8633,-2.9011,-2.9265,-2.9774,-3.0507,-3.0806,-3.1122,-3.1511,-3.1511,-3.1511,-3.1525,-3.1795,-3.1914,-3.1988,-3.3059,-3.3508,-3.3629,-3.5008,-3.5294,-3.4966,-3.5355,-3.5504,-3.5504,-1.0304,0.0,-1.1365,-1.0791,-1.2502,-1.4291,-1.5287,-1.819,-2.0142,-1.9679,0.0,0.0,-2.1803,-2.152,0.0,0.0,-2.0958,-1.9693,0.0,0.0,-1.6245,-1.5237,-1.3726,0.0,0.0,-1.1569,-1.0514,-1.0294,-0.9766,-0.9501,-0.9518,-1.0284,-1.19,-1.4233,-1.5044,-1.7005,-1.971,0.0,0.0,-2.1333,-2.2446,-2.3156,-2.3731,-2.5659,-2.6522,-2.6691,-2.6691,-2.6691,-2.6556,-2.5731,-2.518,0.0,-2.4929,0.0,0.0,0.0,0.0,0.0,-2.2707,0.0,0.0,0.0,0.0,0.0,0.0,0.0,0.0,0.0,0.0,0.0,0.0,0.0,0.0,0.0,0.0,0.0,0.0,0.0,0.0,0.0,0.0,0.0,0.0,0.0,0.0,0.0,0.0,0.0,-2.5874,-2.6489,-2.6996,-2.7533,-2.7887,-2.8261,-2.8576,-2.8921,-2.9457,-3.0226,-3.0407,-3.086,-3.1524,-3.1524,-3.1728,-3.2076,-3.1866,-3.1796,-3.1883,-3.2847,-3.3256,-3.3373,-3.4797,-3.4989,-3.4622,-3.5507,-3.5964,-3.6148,-1.1875,-1.1425,0.0,0.0,-1.2237,-1.4063,-1.6222,-1.7805,-1.9176,-2.0303,0.0,0.0,0.0,0.0,0.0,0.0,0.0,-2.2849,-2.2053,0.0,-1.8668,0.0,0.0,-1.4931,0.0,-1.3509,-1.184,-1.1062,-1.1028,-1.1035,-1.1052,-1.1857,-1.266,-1.3566,-1.6424,-1.8166,-1.908,-2.1248,-2.3021,-2.4355,-2.4406,-2.5286,-2.6488,0.0,-2.6082,-2.6691,-2.6691,0.0,0.0,-2.5396,-2.501,0.0,0.0,0.0,0.0,0.0,0.0,0.0,0.0,0.0,0.0,-2.2631,0.0,0.0,0.0,0.0,-2.2229,0.0,0.0,0.0,0.0,0.0,-1.971,-1.8976,0.0,0.0,0.0,0.0,0.0,0.0,0.0,0.0,0.0,0.0,0.0,0.0,0.0,0.0,-2.4999,-2.6443,-2.7249,-2.7396,-2.8672,-2.9081,-2.851,-2.973,-3.0077,-2.9537,-3.0186,-3.0892,-3.161,-3.161,-3.2306,-3.3495,-3.2841,-3.2559,-3.2574,-3.2617,-3.2633,-3.2761,-3.4122,-3.4633,-3.4755,-3.6159,-3.71,-3.7735,0.0,0.0,0.0,0.0,0.0,-1.4885,-1.723,-1.984,-2.1794,0.0,0.0,0.0,0.0,0.0,-2.567,0.0,0.0,-2.484,-2.4111,-2.2509,0.0,0.0,0.0,-1.7458,0.0,0.0,-1.4107,-1.3354,-1.2365,-1.1891,-1.1891,-1.2162,-1.2694,-1.3532,-1.6475,-1.8217,0.0,0.0,0.0,0.0,0.0,-2.5388,-2.6674,0.0,0.0,-2.6691,-2.6691,-2.6691,0.0,-2.6253,-2.5799,-2.5581,-2.6629,-2.5988,-2.5136,-2.6452,-2.6724,0.0,0.0,0.0,-2.7972,-2.5239,0.0,0.0,0.0,0.0,0.0,0.0,0.0,0.0,0.0,0.0,-2.0228,-1.972,-1.9026,0.0,0.0,0.0,0.0,0.0,0.0,0.0,0.0,0.0,0.0,0.0,0.0,0.0,0.0,-2.5465,-2.6486,-2.7952,-2.8056,-2.821,-2.8511,-2.8919,-2.9262,-2.9509,-3.0129,-3.1033,-3.2196,-3.2196,-3.2714,-3.3582,-3.3365,-3.3261,-3.3287,-3.3735,-3.3937,-3.4003,-3.4896,-3.5592,-3.6042,-3.5997,-3.6087,-3.634,-1.3325,0.0,0.0,0.0,0.0,0.0,0.0,0.0,0.0,0.0,-2.4929,0.0,-2.6703,0.0,-2.6729,0.0,-2.7061,-2.6327,-2.545,-2.4451,0.0,-2.3184,-2.1172,0.0,0.0,0.0,-1.6326,-1.5069,-1.4262,-1.3456,-1.2694,-1.2957,-1.3346,-1.3912,0.0,-1.8217,-1.9096,0.0,-2.3526,0.0,0.0,-2.5862,0.0,0.0,-2.6691,-2.6691,0.0,-2.6691,-2.6691,-2.6691,-2.6556,-2.659,-2.7841,-2.7326,-2.6526,-2.7792,-2.7916,-2.7542,-2.7104,-2.8241,0.0,0.0,-2.6319,0.0,-2.4008,0.0,0.0,0.0,0.0,0.0,0.0,0.0,-2.1112,-2.0865,-1.9789,-1.8793,0.0,0.0,0.0,0.0,0.0,0.0,0.0,0.0,-1.998,-2.1071,0.0,0.0,0.0,0.0,-2.6046,-2.7764,-2.818,-2.8598,-2.9134,-2.9361,-2.9562,-2.9776,-3.017,-3.0965,-3.2119,-3.2119,-3.278,-3.3909,-3.3664,-3.3711,-3.3987,-3.4431,-3.46,-3.4664,-3.5339,-3.5926,-3.6359,-3.609,-3.6314,-3.6798,0.0,0.0,0.0,0.0,-1.6151,0.0,0.0,0.0,-2.4395,0.0,-2.5947,-2.6722,-2.689,-2.7489,-2.8029,-2.844,-2.811,0.0,-2.6373,-2.5559,0.0,0.0,-2.3327,-2.2507,-2.2813,0.0,0.0,0.0,-1.6531,-1.5581,-1.3515,-1.4191,-1.4487,-1.4537,-1.6802,0.0,-1.908,-2.2815,-2.4457,-2.4677,-2.6132,-2.6691,-2.6691,-2.6691,0.0,-2.6691,-2.6691,-2.6691,-2.6691,-2.6691,-2.7199,-2.7942,-2.8756,-2.8993,-2.9145,-2.9888,-3.0108,-2.9844,-2.8616,-2.9211,-2.958,-2.7186,0.0,0.0,0.0,0.0,-2.5927,0.0,0.0,0.0,0.0,0.0,0.0,-2.2313,-2.1045,-1.9558,0.0,0.0,0.0,0.0,0.0,0.0,0.0,0.0,-1.9084,-2.1924,-2.0196,0.0,0.0,0.0,0.0,-2.6909,-2.8929,-3.0087,-3.0293,-3.0858,-3.0858,-3.0293,-3.033,-3.0735,-3.1434,-3.1434,-3.2567,-3.4467,-3.3815,-3.398,-3.4664,-3.4664,-3.4664,-3.4712,-3.5362,-3.56,-3.5684,-3.6462,-3.7638,-3.8888,-1.5784,-1.6665,-1.7729,0.0,-1.8849,-1.9554,0.0,0.0,0.0,0.0,-2.6936,-2.7731,-2.8373,-2.8582,-2.897,-2.9667,-2.9105,0.0,0.0,0.0,0.0,-2.7053,-2.5554,-2.4605,-2.4339,-2.2216,0.0,-1.9382,0.0,0.0,-1.503,-1.4673,-1.4208,-1.3794,0.0,0.0,-1.8302,-2.1498,-2.3816,-2.5406,-2.6319,-2.6691,0.0,0.0,-2.6691,-2.6691,-2.6691,-2.6691,-2.6691,-2.6691,-2.7199,-2.7942,-2.8756,-2.8993,-2.9145,-2.9888,-3.0108,-3.0036,-2.9686,-3.0249,-3.0625,-2.9453,-2.8835,-2.8222,0.0,0.0,0.0,0.0,0.0,0.0,0.0,0.0,0.0,-2.2482,-2.1515,-2.0551,0.0,0.0,0.0,0.0,0.0,0.0,0.0,0.0,-1.9541,-1.9756,0.0,0.0,0.0,0.0,0.0,-2.7476,-2.8241,-2.9161,-3.0293,-3.0456,-3.0456,-3.0293,-3.074,-3.1365,-3.2072,-3.2072,-3.2963,-3.4489,-3.4319,-3.4673,-3.5339,-3.5339,-3.5339,-3.5362,-3.5538,-3.56,-3.5639,-3.583,-3.6489,-3.7376,-1.7383,0.0,0.0,-2.1428,0.0,0.0,-2.2712,0.0,0.0,-2.6447,-2.7622,0.0,-2.895,-2.9629,-3.0228,-3.0687,-3.032,0.0,0.0,0.0,0.0,-2.8129,-2.7447,-2.6796,-2.6183,-2.4151,0.0,-2.0747,0.0,0.0,-1.5122,-1.4689,-1.4284,-1.3988,0.0,-1.7969,0.0,-2.1837,-2.4171,-2.566,-2.6404,0.0,0.0,-2.6691,-2.6894,-2.7182,-2.7182,-2.6962,-2.6742,-2.708,-2.7689,-2.8467,-2.9228,-2.9685,-3.0042,-3.0463,-3.0581,-3.0581,-3.0581,-3.0886,-3.1106,-3.0683,-3.026,-2.9668,-2.8569,-2.867,-2.8756,0.0,0.0,0.0,0.0,0.0,0.0,0.0,0.0,0.0,0.0,0.0,0.0,0.0,0.0,0.0,0.0,0.0,0.0,0.0,0.0,0.0,0.0,0.0,0.0,-2.6776,-2.7908,-2.9062,-3.0196,-3.0533,-3.0699,-3.0699,-3.1035,-3.141,-3.1819,-3.1819,-3.2611,-3.4015,-3.4015,-3.4624,-3.56,-3.56,-3.56,-3.56,-3.56,-3.56,-3.5605,-3.5606,-3.608,-3.6837,0.0,0.0,0.0,0.0,0.0,0.0,0.0,-2.5294,0.0,-2.6961,0.0,-2.9317,-2.9317,-3.0558,-3.1452,-3.1562,0.0,-3.1022,-3.014,-3.091,-3.0643,-2.894,-2.9071,-2.8785,-2.797,-2.5968,0.0,0.0,0.0,0.0,-1.4739,-1.4611,-1.4577,0.0,0.0,0.0,0.0,-2.3071,-2.5023,0.0,-2.6568,-2.6841,-2.6791,-2.6893,-2.7301,-2.7824,-2.7925,-2.7554,-2.7097,-2.7739,-2.8484,-2.9264,-2.9905,-3.0615,-3.119,-3.119,-3.119,-3.119,-3.119,-3.119,-3.119,-3.119,-3.119,-3.0852,-2.9585,-2.9297,-2.9297,-2.9297,-2.8231,0.0,0.0,0.0,0.0,0.0,0.0,0.0,0.0,0.0,0.0,0.0,0.0,0.0,0.0,0.0,0.0,0.0,0.0,0.0,0.0,0.0,0.0,0.0,-2.7706,0.0,-3.0091,0.0,-3.119,-3.119,-3.119,-3.119,-3.119,-3.119,-3.1952,-3.3271,-3.3372,-3.4163,-3.5447,-3.5549,-3.56,-3.56,-3.56,-3.56,-3.56,-3.56,-3.6045,-3.6761,0.0,0.0,0.0,0.0,0.0,-2.6721,-2.7391,-2.7426,-2.7908,-2.9384,-3.0393,0.0,-3.098,-3.1231,-3.1659,-3.2326,-3.177,0.0,0.0,0.0,0.0,-3.09,-3.0314,-2.961,-2.8803,-2.6293,-2.4107,0.0,0.0,0.0,-1.5982,-1.5247,-1.4947,0.0,0.0,0.0,-2.1385,-2.3929,0.0,-2.6651,-2.7393,-2.7485,-2.7263,-2.7869,-2.7964,-2.7891,-2.8552,-2.8705,-2.862,-2.8756,-2.9279,-2.9939,-3.0074,-3.0615,-3.119,-3.119,-3.119,-3.119,-3.119,-3.119,-3.119,-3.119,-3.119,-3.1123,-3.0869,-3.0801,-3.0801,-3.0801,-3.0598,-2.9956,-2.8483,0.0,0.0,0.0,0.0,0.0,0.0,0.0,0.0,0.0,0.0,0.0,0.0,0.0,0.0,0.0,0.0,0.0,0.0,0.0,0.0,0.0,0.0,0.0,0.0,0.0,0.0,-3.119,-3.119,-3.119,-3.119,-3.119,-3.1684,-3.253,-3.3136,-3.3897,-3.4742,-3.5346,-3.56,-3.56,-3.56,-3.56,-3.56,-3.56,-3.5684,-3.5926,0.0,0.0,0.0,0.0,0.0,0.0,0.0,-3.0525,0.0,-3.0424,-3.0991,-3.1397,-3.1397,-3.2137,-3.2797,-3.3201,-3.2871,-3.2816,-3.3201,-3.2852,-3.2449,-3.2045,-3.1647,0.0,-2.9647,-2.7949,-2.6012,-2.3842,0.0,0.0,-1.6903,-1.6105,-1.5492,-1.5198,0.0,-2.017,0.0,0.0,0.0,-2.7489,-2.8223,-2.8656,-2.8893,-2.9248,-2.9506,-2.9709,-3.0108,-3.049,-3.0699,-2.9853,-2.9803,-3.0176,-3.0548,-3.0903,-3.119,-3.119,-3.119,-3.119,-3.119,-3.119,-3.119,-3.119,-3.119,-3.119,-3.119,-3.119,-3.119,-3.119,-3.119,-3.0497,-2.8213,-2.5981,0.0,0.0,0.0,0.0,0.0,0.0,0.0,0.0,0.0,0.0,0.0,0.0,0.0,0.0,0.0,0.0,0.0,0.0,0.0,0.0,0.0,0.0,0.0,0.0,0.0,-3.119,-3.119,-3.119,-3.119,-3.119,-3.1616,-3.2344,-3.3085,-3.3829,-3.4556,-3.5295,-3.56,-3.56,-3.56,-3.56,-3.56,-3.56,-3.56,-3.5718,0.0,-2.7279,0.0,0.0,-2.9392,0.0,0.0,-3.3137,-3.3185,-3.1584,-3.1735,-3.1967,-3.1911,-3.3036,-3.3807,-3.3807,-3.3807,-3.3807,-3.3807,-3.3807,-3.3532,-3.2876,-3.2693,-3.2014,-3.0742,-2.9592,-2.7789,0.0,0.0,0.0,-1.8126,-1.7372,-1.6729,0.0,0.0,0.0,0.0,0.0,-2.7139,-2.877,-2.9364,-2.9933,-3.0446,-3.0591,-3.0975,-3.1414,-3.1592,-3.202,-3.2312,-3.104,-3.0613,-3.0716,-3.1297,-3.1408,-3.1332,-3.1332,-3.1271,-3.119,-3.119,-3.119,-3.119,-3.119,-3.119,-3.119,-3.119,-3.119,-3.1157,-3.1004,-3.0717,-2.9888,-2.7925,-2.6133,0.0,0.0,0.0,0.0,0.0,0.0,0.0,0.0,0.0,0.0,0.0,0.0,0.0,0.0,0.0,0.0,-1.8821,-2.0056,0.0,0.0,0.0,0.0,-2.8756,0.0,-3.119,0.0,-3.119,-3.119,-3.119,-3.119,-3.1532,-3.2107,-3.2848,-3.3677,-3.4556,-3.5295,-3.56,-3.56,-3.56,-3.56,-3.56,-3.56,-3.56,-3.5684,0.0,0.0,0.0,0.0,0.0,0.0,0.0,-3.3922,-3.468,-3.3964,-3.3915,-3.3858,-3.3608,-3.3715,-3.3807,-3.3807,-3.3807,-3.3807,-3.3807,-3.3807,-3.377,-3.3697,-3.2986,-3.2528,-3.2381,-3.0161,-2.815,0.0,0.0,-2.1943,-2.0205,-1.9389,0.0,0.0,0.0,0.0,0.0,-2.7609,-2.9335,-3.1089,-3.1162,-3.1055,-3.0914,-3.1589,-3.1655,-3.1485,-3.2146,-3.243,-3.2484,-3.233,-3.2278,-3.2296,-3.2366,-3.2092,-3.1734,-3.1734,-3.1488,-3.119,-3.119,-3.119,-3.119,-3.119,-3.119,-3.119,-3.119,-3.119,-3.1004,-3.0345,-2.9092,-2.7841,-2.6962,-2.6623,-2.6065,0.0,0.0,0.0,0.0,0.0,0.0,0.0,0.0,0.0,0.0,0.0,0.0,0.0,0.0,0.0,0.0,-1.9029,0.0,-2.341,0.0,-2.7165,-2.7908,-3.0108,0.0,-3.119,-3.119,-3.119,-3.119,-3.119,-3.1241,-3.1326,-3.209,-3.3207,-3.4556,-3.5295,-3.56,-3.56,-3.56,-3.56,-3.56,-3.56,-3.56,-3.5616,0.0,0.0,0.0,0.0,0.0,0.0,0.0,-3.4901,-3.5207,-3.4803,-3.4427,-3.4171,-3.4056,-3.4043,-3.4043,-3.4043,-3.4043,-3.4043,-3.4043,-3.3889,-3.3807,-3.3807,-3.3495,-3.3091,-3.2601,-3.1647,-3.0143,0.0,0.0,-2.407,-2.1997,-2.1667,0.0,0.0,0.0,-2.6352,-2.7944,-2.9047,-3.0533,-3.2118,-3.2118,-3.2334,-3.2671,-3.2967,-3.2974,-3.2879,-3.3158,-3.3284,-3.3284,-3.3284,-3.2934,-3.2501,-3.2501,-3.2384,-3.2213,-3.2213,-3.2127,-3.1968,-3.1968,-3.1968,-3.1968,-3.1968,-3.1968,-3.1968,-3.1968,-3.162,-3.1185,-3.0872,-2.9586,-2.8437,-2.814,-2.7372,-2.671,0.0,0.0,0.0,0.0,0.0,0.0,0.0,0.0,0.0,0.0,0.0,0.0,0.0,0.0,0.0,0.0,0.0,0.0,-2.2649,0.0,-2.7063,-2.779,-3.0057,-3.119,-3.119,-3.119,-3.119,-3.119,-3.119,-3.1427,-3.1904,-3.2628,-3.3541,-3.4556,-3.5295,-3.56,-3.56,-3.56,-3.56,-3.56,-3.56,-3.56,-3.56,-3.3027,0.0,-3.2441,0.0,-3.3826,-3.3928,-3.5294,-3.55,-3.5432,-3.5239,-3.4983,-3.47,-3.4375,-3.4345,-3.4345,-3.4345,-3.4345,-3.4345,-3.4345,-3.4068,-3.3928,-3.3928,-3.3842,0.0,-3.2981,-3.2711,-3.1647,-2.9702,-2.8326,0.0,-2.4767,0.0,0.0,0.0,-2.731,-2.8429,-2.9769,-3.0558,-3.1702,-3.2949,-3.2949,-3.3293,-3.3807,-3.3807,-3.3807,-3.3807,-3.3807,-3.3807,-3.3807,-3.3807,-3.3386,-3.2887,-3.2887,-3.2793,-3.2697,-3.2697,-3.2599,-3.2501,-3.2501,-3.2501,-3.2501,-3.2501,-3.2501,-3.2501,-3.2501,-3.1883,-3.116,-3.0733,-2.9584,-2.8679,-2.8679,-2.7826,-2.7217,-2.7522,0.0,0.0,0.0,0.0,0.0,0.0,0.0,-2.2365,0.0,0.0,0.0,0.0,0.0,0.0,0.0,0.0,0.0,0.0,0.0,0.0,0.0,-3.0057,-3.119,-3.119,-3.119,-3.119,-3.119,-3.119,-3.1481,-3.2039,-3.2983,-3.3694,-3.4252,-3.5194,-3.56,-3.56,-3.56,-3.56,-3.56,-3.56,-3.56,-3.56,-3.4007,-3.416,-3.4449,-3.5327,-3.5481,-3.5481,-3.55,-3.55,-3.55,-3.55,-3.5943,-3.5874,-3.4819,-3.4684,-3.4684,-3.4684,-3.4684,-3.4684,-3.4684,-3.4379,-3.4206,0.0,0.0,-3.3807,-3.3788,-3.3005,-3.221,-3.1378,0.0,0.0,-2.8932,0.0,-2.895,-2.8987,-2.9806,-3.0613,-3.1415,-3.2228,-3.3041,-3.3788,-3.3788,-3.3788,-3.3807,-3.3807,-3.3807,-3.3807,-3.3807,-3.3807,-3.3807,-3.3807,-3.3775,-3.3775,-3.3775,-3.3508,-3.3199,-3.3199,-3.2856,-3.2501,-3.2501,-3.2501,-3.2501,-3.2501,-3.2501,-3.2501,-3.2501,-3.1883,-3.0875,-2.9336,-2.8431,-2.7915,-2.7915,-2.7897,-2.7646,-2.6916,0.0,0.0,0.0,0.0,0.0,0.0,-2.142,-2.1102,-2.2552,0.0,0.0,0.0,0.0,0.0,0.0,0.0,0.0,-2.3325,-2.6252,0.0,-2.7807,-3.0057,-3.119,-3.119,-3.119,-3.119,-3.119,-3.119,-3.119,-3.1292,-3.2763,-3.3406,-3.3541,-3.4991,-3.56,-3.56,-3.56,-3.56,-3.56,-3.56,-3.56,-3.56,-3.5738,-3.5911,-3.618,-3.7046,-3.6712,-3.6519,-3.7103,-3.6692,-3.6519,-3.7142,-3.736,-3.7336,-3.6985,-3.6268,-3.557,0.0,-3.4972,-3.4972,0.0,-3.4695,-3.454,-3.454,-3.4453,-3.4409,-3.4409,-3.3941,-3.3302,-3.2497,0.0,0.0,0.0,-2.9824,-3.0118,-3.0668,-3.1476,-3.1977,-3.2284,-3.3091,-3.3568,-3.3807,-3.3807,-3.3807,-3.3807,-3.3807,-3.3807,-3.3807,-3.3807,-3.3807,-3.3807,-3.3807,-3.3807,-3.3807,-3.3807,-3.3707,-3.3606,-3.3606,-3.349,-3.339,-3.339,-3.339,-3.339,-3.339,-3.339,-3.339,-3.339,-3.2337,-3.1066,-3.0031,-2.9196,-2.8651,-2.8651,-2.8651,-2.856,-2.8336,0.0,0.0,0.0,0.0,0.0,0.0,0.0,-2.3221,0.0,-2.1766,0.0,0.0,0.0,0.0,0.0,0.0,0.0,0.0,-2.5998,0.0,-2.7807,-3.0057,-3.119,-3.119,-3.119,-3.119,-3.119,-3.119,-3.119,-3.1275,-3.2763,-3.3406,-3.3525,-3.4991,-3.56,-3.56,-3.56,-3.56,-3.56,-3.56,-3.56,-3.56,-3.6596,-3.6962,-3.7353,-3.7892,-3.7546,-3.7373,-3.7911,-3.7546,-3.7392,-3.793,-3.8296,-3.8354,-3.8046,-3.7651,0.0,-3.6261,-3.6184,-3.6184,-3.6184,-3.594,-3.5789,-3.5789,-3.57,-3.5639,-3.5639,0.0,0.0,-3.4094,-3.2985,-3.2188,-3.1708,-3.1593,-3.1825,-3.232,-3.2834,-3.3041,-3.3091,-3.3587,-3.3972,-3.4252,-3.4252,-3.4449,-3.4743,-3.4743,-3.4541,-3.4252,-3.4252,-3.4064,-3.3844,-3.4156,-3.4045,-3.3844,-3.4174,-3.4045,-3.3807,-3.3807,-3.3807,-3.3807,-3.3807,-3.3807,-3.3807,-3.3807,-3.3807,-3.3715,-3.3421,-3.2339,-3.1176,-3.0375,-2.9555,-2.9005,-2.9005,-2.9005,-2.9005,-2.9005,-2.8319,-2.7512,0.0,0.0,0.0,0.0,0.0,0.0,0.0,-2.3533,0.0,0.0,0.0,0.0,0.0,0.0,0.0,-2.377,-2.682,0.0,-2.8886,-3.0423,-3.119,-3.119,-3.119,-3.119,-3.119,-3.119,-3.119,-3.1275,-3.2763,-3.3406,-3.3525,-3.4991,-3.56,-3.56,-3.56,-3.56,-3.56,-3.56,-3.56,-3.56,-3.6865,-3.7526,0.0,0.0,-3.8123,0.0,-3.8161,-3.8123,-3.8104,-3.8161,-3.8873,-3.9073,-3.8257,-3.8892,-3.9073,-3.8238,0.0,0.0,0.0,-3.7767,-3.7637,-3.7637,-3.7394,0.0,-3.7263,-3.6438,-3.601,-3.5989,-3.4926,-3.4384,-3.4316,-3.4116,-3.3997,-3.396,-3.3989,-3.3994,-3.3994,-3.3985,-3.4412,-3.5096,-3.5096,-3.5573,-3.6303,-3.6303,-3.5807,-3.5096,-3.5096,-3.4601,-3.4082,-3.4839,-3.4582,-3.41,-3.4857,-3.4527,-3.3862,-3.3825,-3.3807,-3.3807,-3.3807,-3.3807,-3.3807,-3.3807,-3.3807,-3.3605,-3.2839,-3.2063,-3.1268,-3.0522,-2.9684,-2.9078,-2.9078,-2.9042,-2.8987,-2.8932,-2.8246,-2.7438,-2.6631,0.0,0.0,0.0,0.0,0.0,0.0,-2.5265,-2.5921,0.0,0.0,0.0,0.0,0.0,-2.4958,-2.6374,-2.8512,-2.9988,-3.0751,-3.1112,-3.1291,-3.1291,-3.1269,-3.1269,-3.1291,-3.1269,-3.1269,-3.1375,-3.2849,-3.3494,-3.3613,-3.5106,-3.5717,-3.5717,-3.5717,-3.5717,-3.5717,-3.5717,-3.5717,-3.5717,0.0,0.0,-3.9188,-3.9804,-3.94,-3.9207,-3.9804,-3.94,-3.9207,-3.9823,-4.0092,-4.015,-3.9938,-4.0092,-4.0131,-3.9938,-3.8738,-3.8007,-3.8007,-3.7951,-3.7901,-3.7901,-3.7843,-3.7819,-3.7819,-3.741,-3.71,-3.6879,-3.6626,-3.615,-3.5507,-3.6122,-3.6051,-3.5417,-3.5826,-3.5999,-3.6005,-3.5805,-3.5826,-3.5991,-3.5991,-3.6119,-3.6303,-3.6303,-3.6174,-3.5991,-3.5991,-3.5862,-3.5734,-3.5936,-3.5862,-3.5734,-3.5936,-3.5389,-3.4601,-3.399,-3.3807,-3.3807,-3.3807,-3.3807,-3.3807,-3.3807,-3.3807,-3.3752,-3.3568,-3.2889,-3.2265,-3.2069,-3.0895,-2.9922,-2.9922,-2.9409,-2.8803,-2.8172,-2.742,-2.6594,-2.5797,-2.5521,0.0,0.0,-2.5711,-2.6132,-2.5931,-2.626,-2.6107,0.0,0.0,0.0,0.0,0.0,-2.7482,-2.76,-2.977,-3.1042,-3.1235,-3.1878,-3.2179,-3.2196,-3.1842,-3.1842,-3.2196,-3.1824,-3.1843,-3.2266,-3.3808,-3.4457,-3.458,-3.6176,-3.6825,-3.6825,-3.6825,-3.6825,-3.6825,-3.6825,-3.6825,-3.6825,-3.9245,-3.9663,-4.0081,-4.0524,-4.0269,-4.012,-4.0519,-4.0216,-4.0072,-4.0446,-4.0496,-4.0496,-4.0496,-4.0496,-4.0496,-4.0496,-3.9669,-3.9142,-3.9142,-3.9142,-3.9142,-3.9142,-3.9142,-3.9142,-3.9142,-3.8637,-3.8108,-3.7564,-3.7443,-3.7138,-3.6682,-3.7036,-3.6946,-3.651,-3.6799,-3.6925,-3.6902,-3.6599,-3.6698,-3.7017,-3.6904,-3.7055,-3.7404,-3.7404,-3.7165,-3.685,-3.685,-3.6611,-3.6358,-3.6721,-3.6597,-3.6358,-3.674,-3.6266,-3.55,-3.5073,-3.4394,-3.3807,-3.3807,-3.3807,-3.3807,-3.3807,-3.3807,-3.3807,-3.3807,-3.3183,-3.2601,-3.2601,-3.1623,-3.0632,-3.0265,-2.9831,-2.9163,-2.8,-2.7126,-2.6319,-2.5503,-2.5393,0.0,-2.5393,-2.6429,-2.6998,-2.6649,-2.7262,-2.731,-2.6348,0.0,0.0,-2.7121,-2.8821,-2.9502,-2.8806,-3.0671,-3.1857,-3.2212,-3.2403,-3.2501,-3.2501,-3.223,-3.2247,-3.2484,-3.2248,-3.2247,-3.2589,-3.4128,-3.4801,-3.4925,-3.6536,-3.7209,-3.7209,-3.7209,-3.7209,-3.7209,-3.7209,-3.7209,-3.7209,-3.9605,-4.0214,-4.0713,-4.0713,-4.0752,-4.0788,-4.0715,-4.0713,-4.068,-4.0545,-4.0542,-4.0527,-4.0496,-4.0496,-4.0496,-4.0496,-4.0496,-4.0496,-4.0496,-4.0496,-4.0496,-4.0496,-4.0496,-4.0496,-4.0496,-3.9823,-3.913,-3.8373,-3.815,-3.7988,-3.7855,-3.7756,-3.7638,-3.7524,-3.7587,-3.7652,-3.7631,-3.7277,-3.753,-3.8139,-3.7905,-3.8239,-3.8818,-3.8777,-3.8339,-3.7746,-3.7691,-3.7254,-3.6762,-3.7456,-3.7235,-3.678,-3.7474,-3.7125,-3.6468,-3.6468,-3.5385,-3.4156,-3.4027,-3.3899,-3.3807,-3.3807,-3.3807,-3.3807,-3.3807,-3.3275,-3.2784,-3.2784,-3.2137,-3.1329,-3.0522,-3.0283,-2.9641,-2.7897,-2.7145,-2.641,-2.5374,0.0,-2.5723,-2.5595,-2.7008,-2.7714,-2.7024,-2.8308,-2.8895,-2.8209,-2.8906,0.0,0.0,-3.1127,-3.1137,-3.0176,-3.1528,-3.2604,-3.3288,-3.2905,-3.2697,-3.2697,-3.2632,-3.2632,-3.2697,-3.2632,-3.2632,-3.2768,-3.4351,-3.5027,-3.5152,-3.6756,-3.7433,-3.7433,-3.7433,-3.7433,-3.7433,-3.7433,-3.7433,-3.7433,-4.0582,-4.0695,-4.0773,-4.0773,-4.0789,-4.0793,-4.0796,-4.0773,-4.0767,-4.0686,-4.0661,-4.063,-4.0512,-4.0496,-4.0496,-4.0496,-4.0496,-4.0496,-4.0496,-4.0496,-4.0496,-4.0496,-4.0496,-4.0496,-4.0496,-4.0381,-4.0246,-4.0112,-4.0061,-3.97,-3.9046,-3.9695,-3.964,-3.8991,-3.9442,-3.9651,-3.9632,-3.929,-3.922,-3.934,-3.9293,-3.9344,-3.942,-3.9157,-3.8961,-3.8809,-3.8589,-3.8432,-3.8358,-3.8469,-3.8432,-3.8358,-3.8469,-3.7955,-3.7309,-3.7309,-3.6648,-3.5752,-3.5004,-3.4307,-3.3807,-3.3807,-3.3807,-3.3807,-3.3807,-3.3697,-3.3605,-3.3605,-3.2981,-3.2173,-3.1347,-3.065,-2.9457,-2.7163,-2.7255,-2.6851,-2.4685,0.0,-2.7181,-2.6484,-2.7831,-2.8767,-2.8638,-2.9464,-2.9971,-2.9843,-3.0577,-3.1085,-3.1213,-3.199,-3.2331,-3.2164,-3.3048,-3.3579,-3.3707,-3.3634,-3.3606,-3.3592,-3.324,-3.3273,-3.3592,-3.3258,-3.3288,-3.3698,-3.536,-3.6072,-3.6182,-3.7807,-3.8467,-3.8467,-3.8467,-3.8467,-3.8467,-3.8467,-3.8467,-3.8467,-4.0911,-4.088,-4.0874,-4.0908,-4.0962,-4.0992,-4.0917,-4.0911,-4.086,-4.0771,-4.0757,-4.0726,-4.0623,-4.0603,-4.0588,-4.0504,-4.0496,-4.0496,-4.0496,-4.0496,-4.0496,-4.0496,-4.0496,-4.0496,-4.0496,-4.0496,-4.0496,-4.0496,-4.0496,-4.0304,-3.9958,-4.0323,-4.0304,-3.995,-4.0219,-4.0321,-4.0304,-3.9993,-3.988,-3.984,-3.9668,-3.9599,-3.9587,-3.9426,-3.9364,-3.9339,-3.9242,-3.9176,-3.9176,-3.9176,-3.9176,-3.9176,-3.9176,-3.8928,-3.863,-3.863,-3.7525,-3.6101,-3.5243,-3.4729,-3.4344,-3.3917,-3.3807,-3.3807,-3.3807,-3.3807,-3.3807,-3.3807,-3.3495,-3.2999,-3.2192,-3.1384,-3.0338,-2.8796,-2.8117,0.0,0.0,-2.71,-2.7824,-2.7886,-2.8932,-2.9824,-3.0246,-3.0632,-3.0852,-3.0852,-3.1195,-3.1586,-3.2027,-3.2399,-3.2803,-3.3238,-3.3605,-3.3807,-3.3807,-3.3807,-3.3807,-3.3807,-3.3606,-3.3606,-3.3788,-3.3606,-3.362,-3.388,-3.5569,-3.6303,-3.6413,-3.8046,-3.8707,-3.8707,-3.8707,-3.8707,-3.8707,-3.8707,-3.8707,-3.8707,-4.1051,-4.1003,-4.0998,-4.1049,-4.1128,-4.1171,-4.1055,-4.1051,-4.0994,-4.0864,-4.0854,-4.0813,-4.0726,-4.071,-4.0684,-4.0584,-4.0566,-4.0545,-4.0545,-4.0519,-4.0496,-4.0496,-4.0496,-4.0496,-4.0496,-4.0496,-4.0496,-4.0496,-4.0496,-4.0496,-4.0496,-4.0496,-4.0496,-4.0496,-4.0496,-4.0496,-4.0489,-4.0286,-4.0186,-4.0177,-3.9913,-3.981,-3.98,-3.9735,-3.9731,-3.972,-3.9634,-3.9599,-3.9599,-3.9599,-3.9599,-3.9599,-3.9599,-3.9599,-3.9599,-3.9599,-3.8396,-3.6814,-3.5703,-3.5202,-3.4857,-3.4215,-3.3935,-3.3807,-3.3807,-3.3807,-3.3807,-3.3807,-3.3807,-3.355,-3.2748,-3.21,-3.1347,-3.0356,0.0,0.0,0.0,-2.8393,-2.8796,-2.9225,-2.9989,-3.0723,-3.1342,-3.158,-3.1678,-3.1678,-3.1856,-3.2228,-3.2839,-3.2876,-3.3151,-3.377,-3.3807,-3.3807,-3.3807,-3.3807,-3.3807,-3.3807,-3.3807,-3.3807,-3.3807,-3.3807,-3.3807,-3.388,-3.5367,-3.6101,-3.6413,-3.7826,-3.8524,-3.8707,-3.8707,-3.8707,-3.8707,-3.8707,-3.8707,-3.8707,-4.1191,-4.1172,-4.1171,-4.1172,-4.1191,-4.1191,-4.1191,-4.1191,-4.1148,-4.0996,-4.099,-4.0944,-4.0817,-4.0785,-4.0785,-4.0777,-4.0726,-4.068,-4.068,-4.0574,-4.0496,-4.0496,-4.0496,-4.0496,-4.0496,-4.0496,-4.0496,-4.0496,-4.0496,-4.0496,-4.0496,-4.0496,-4.0496,-4.0496,-4.0496,-4.0496,-4.0496,-4.0481,-4.0473,-4.0473,-4.0438,-4.043,-4.0406,-4.0167,-4.0052,-4.0022,-3.9701,-3.9599,-3.9599,-3.9599,-3.9599,-3.9599,-3.9599,-3.9599,-3.9599,-3.9599,-3.9482,-3.8954,-3.7075,-3.5792,-3.4986,-3.4931,-3.4344,-3.3807,-3.3807,-3.3807,-3.3807,-3.3807,-3.3807,-3.355,-3.2748,-3.2546,-3.1995,-3.0448,0.0,0.0,-2.9115,-3.0191,-3.0883,-3.0191,-3.0815,-3.1342,-3.1397,-3.2063,-3.2509,-3.2509,-3.3201,-3.3642,-3.3715,-3.3715,-3.3733,-3.3807,-3.3807,-3.3807,-3.3807,-3.3807,-3.3807,-3.3807,-3.3807,-3.3807,-3.3807,-3.3807,-3.3807,-3.3844,-3.4729,-3.5555,-3.6358,-3.7235,-3.8028,-3.8707,-3.8707,-3.8707,-3.8707,-3.8707,-3.8707,-3.8707,-4.1191,-4.1191,-4.1191,-4.1191,-4.1191,-4.1191,-4.1191,-4.1191,-4.1171,-4.1128,-4.1127,-4.1077,-4.0947,-4.092,-4.0883,-4.0805,-4.0779,-4.0752,-4.0752,-4.0678,-4.0595,-4.0504,-4.0496,-4.0496,-4.0496,-4.0496,-4.0496,-4.0496,-4.0496,-4.0496,-4.0496,-4.0496,-4.0496,-4.0496,-4.0496,-4.0496,-4.0496,-4.0496,-4.0496,-4.0496,-4.0496,-4.0496,-4.0489,-4.0381,-4.0347,-4.0339,-4.0193,-4.0157,-4.0157,-4.0157,-4.0157,-4.0157,-4.0157,-4.0157,-4.0157,-4.0157,-4.0043,-3.9758,-3.9018,-3.7981,-3.6851,-3.5822,-3.5317,-3.4974,-3.4465,-3.4371,-3.4295,-3.4093,-3.4056,-3.3888,-3.3424,-3.2931,-3.2564,-3.2449,0.0,-3.1347,-3.1243,-3.1329,-3.1458,-3.1665,-3.1971,-3.2339,-3.2834,-3.3164,-3.3348,-3.3348,-3.3623,-3.3807,-3.3807,-3.3807,-3.3807,-3.3807,-3.3807,-3.3807,-3.3807,-3.3807,-3.3807,-3.3807,-3.3807,-3.3807,-3.3807,-3.3807,-3.3807,-3.3844,-3.4656,-3.5481,-3.6358,-3.718,-3.7955,-3.8707,-3.8707,-3.8707,-3.8707,-3.8707,-3.8707,-3.8707,-4.1191,-4.1191,-4.1191,-4.1191,-4.1191,-4.1191,-4.1191,-4.1191,-4.1191,-4.1191,-4.1191,-4.1151,-4.1077,-4.1055,-4.1025,-4.0925,-4.0899,-4.0864,-4.0864,-4.0785,-4.066,-4.0504,-4.0496,-4.0496,-4.0496,-4.0496,-4.0496,-4.0496,-4.0496,-4.0496,-4.0496,-4.0496,-4.0496,-4.0496,-4.0496,-4.0496,-4.0496,-4.0496,-4.0496,-4.0496,-4.0496,-4.0496,-4.0496,-4.0496,-4.0496,-4.0496,-4.0496,-4.0496,-4.0496,-4.0496,-4.0496,-4.0496,-4.0496,-4.0496,-4.0496,-4.0496,-4.0372,-4.0242,-4.0242,-3.9643,-3.8686,-3.7089,-3.6291,-3.5763,-3.5195,-3.4883,-3.4643,-3.4401,-3.4357,-3.43,-3.4123,-3.363,-3.3444,-3.3982,-3.316,-3.2587,-3.3037,-3.2631,-3.2447,-3.2921,-3.2968,-3.3201,-3.3752,-3.3807,-3.3807,-3.3807,-3.3807,-3.3807,-3.3807,-3.3807,-3.3807,-3.3807,-3.3807,-3.3807,-3.3807,-3.3807,-3.3807,-3.3807,-3.3807,-3.3807,-3.3807,-3.3807,-3.3807,-3.3825,-3.438,-3.5257,-3.634,-3.6905,-3.7734,-3.8707,-3.8707,-3.8707,-3.8707,-3.8707,-3.8707,-3.8707,-4.1191,-4.1191,-4.1191,-4.1191,-4.1191,-4.1191,-4.1191,-4.1191,-4.1191,-4.1191,-4.1191,-4.1191,-4.1211,-4.1211,-4.1211,-4.1211,-4.1099,-4.1016,-4.1016,-4.0893,-4.0732,-4.0539,-4.0504,-4.0504,-4.0504,-4.0516,-4.0516,-4.0516,-4.0516,-4.0516,-4.0516,-4.0516,-4.0516,-4.0516,-4.0516,-4.0516,-4.0516,-4.0516,-4.0516,-4.0516,-4.0516,-4.0516,-4.0516,-4.0516,-4.0516,-4.0516,-4.0516,-4.0516,-4.0516,-4.0496,-4.0496,-4.0496,-4.0496,-4.0496,-4.0496,-4.0496,-4.0496,-4.0496,-4.0496,-4.0496,-4.017,-3.8755,-3.716,-3.5914,-3.5914,-3.5299,-3.4723,-3.4713,-3.4713,-3.4694,-3.4694,-3.4694,-3.4694,-3.4694,-3.4694,-3.4582,-3.4246,-3.42,-3.4117,-3.3842,-3.382,-3.382,-3.382,-3.382,-3.382,-3.382,-3.382,-3.382,-3.382,-3.382,-3.382,-3.3788,-3.382,-3.3802,-3.3807,-3.3807,-3.3807,-3.3807,-3.3807,-3.3807,-3.3807,-3.3807,-3.3807,-3.3807,-3.3807,-3.4761,-3.6303,-3.6303,-3.7257,-3.8707,-3.8707,-3.8707,-3.8707,-3.8707,-3.8707,-3.8707,-4.1191,-4.1191,-4.1191,-4.1191,-4.1191,-4.1191,-4.1191,-4.1191,-4.1191,-4.1191,-4.1191,-4.1406,-4.1973,-4.2031,-4.2285,-4.2891,-4.2928,-4.2862,-4.2836,-4.2798,-4.2705,-4.2549,-4.1359,-4.1009,-4.1616,-4.0982,-4.1216,-4.2383,-4.174,-4.1739,-4.2316,-4.2316,-4.2316,-4.2316,-4.2316,-4.2316,-4.2316,-4.2316,-4.2316,-4.2316,-4.2316,-4.2316,-4.2316,-4.2316,-4.2316,-4.2239,-4.1623,-4.1412,-4.1316,-4.0708,-4.0496,-4.0496,-4.0496,-4.0496,-4.0496,-4.0496,-4.0496,-4.0496,-4.0496,-4.0496,-4.0254,-3.9278,-3.8659,-3.8123,-3.751,-3.6717,-3.6056,-3.5863,-3.5361,-3.4926,-3.4724,-3.4694,-3.4694,-3.4694,-3.4694,-3.4663,-3.4561,-3.4551,-3.4518,-3.4431,-3.442,-3.442,-3.442,-3.442,-3.442,-3.442,-3.442,-3.442,-3.442,-3.442,-3.4318,-3.4093,-3.4307,-3.4232,-3.3788,-3.3807,-3.3807,-3.3807,-3.3807,-3.3807,-3.3807,-3.3807,-3.3807,-3.3825,-3.4399,-3.5261,-3.634,-3.6905,-3.7753,-3.8707,-3.8707,-3.8707,-3.8707,-3.8707,-3.8707,-3.8707,-4.1191,-4.1191,-4.1191,-4.1191,-4.1191,-4.1191,-4.1191,-4.1191,-4.1308,-4.1621,-4.168,-4.1992,-4.2812,-4.291,-4.3125,-4.3652,-4.3691,-4.3671,-4.364,-4.3639,-4.359,-4.3522,-4.2503,-4.2164,-4.2603,-4.2063,-4.2257,-4.3291,-4.2653,-4.2613,-4.3134,-4.3107,-4.3104,-4.3104,-4.3104,-4.3104,-4.3104,-4.3104,-4.3104,-4.3104,-4.3104,-4.3104,-4.3104,-4.3104,-4.3104,-4.3028,-4.2508,-4.2316,-4.2181,-4.1316,-4.0785,-4.0496,-4.0496,-4.0496,-4.0496,-4.0496,-4.0496,-4.0496,-4.0496,-4.0496,-4.0381,-3.99,-3.9534,-3.9169,-3.8623,-3.7834,-3.7067,-3.6569,-3.6077,-3.5597,-3.5091,-3.5027,-3.5027,-3.5027,-3.5027,-3.4981,-3.486,-3.487,-3.4832,-3.4704,-3.4694,-3.4694,-3.4694,-3.4694,-3.4694,-3.4694,-3.4694,-3.4694,-3.4694,-3.4694,-3.4612,-3.4401,-3.4582,-3.4508,-3.416,-3.416,-3.4043,-3.3807,-3.3807,-3.3807,-3.3807,-3.3807,-3.3807,-3.3844,-3.4656,-3.5481,-3.6358,-3.718,-3.7955,-3.8707,-3.8707,-3.8707,-3.8707,-3.8707,-3.8707,-3.8707,-4.1191,-4.1191,-4.1211,-4.1289,-4.1308,-4.1328,-4.1406,-4.1426,-4.1699,-4.2422,-4.2519,-4.2851,-4.3711,-4.3828,-4.3848,-4.3926,-4.3926,-4.3926,-4.3926,-4.3926,-4.3926,-4.3926,-4.3926,-4.3854,-4.3669,-4.3502,-4.3498,-4.3635,-4.3426,-4.3373,-4.3445,-4.3369,-4.3362,-4.3362,-4.3362,-4.3362,-4.3362,-4.3362,-4.3346,-4.3349,-4.3349,-4.3333,-4.3316,-4.3316,-4.3316,-4.3316,-4.3239,-4.3201,-4.3066,-4.2124,-4.1277,-4.0593,-4.0516,-4.0496,-4.0496,-4.0496,-4.0496,-4.0496,-4.0496,-4.0496,-4.0496,-4.0496,-3.9958,-3.9419,-3.9419,-3.8738,-3.7892,-3.7103,-3.6808,-3.6481,-3.5731,-3.5558,-3.55,-3.55,-3.55,-3.5405,-3.5174,-3.513,-3.5053,-3.4793,-3.4764,-3.4764,-3.4764,-3.4764,-3.4764,-3.4764,-3.4764,-3.4764,-3.4764,-3.4764,-3.4754,-3.4753,-3.4754,-3.4744,-3.4694,-3.4714,-3.4461,-3.3881,-3.3881,-3.3881,-3.3881,-3.3881,-3.3868,-3.3879,-3.4719,-3.5551,-3.6372,-3.7191,-3.8003,-3.8707,-3.8707,-3.8707,-3.8707,-3.8707,-3.8707,-3.8707,-4.1191,-4.1191,-4.1406,-4.2031,-4.2148,-4.2363,-4.3047,-4.3164,-4.3223,-4.3398,-4.3418,-4.375,-4.4629,-4.4726,-4.498,-4.5683,-4.5742,-4.5742,-4.5742,-4.5742,-4.5742,-4.5742,-4.5742,-4.5722,-4.5677,-4.4284,-4.4202,-4.5506,-4.476,-4.47,-4.5318,-4.5308,-4.5297,-4.5297,-4.5297,-4.5297,-4.5297,-4.5297,-4.5264,-4.52,-4.52,-4.5144,-4.5056,-4.5056,-4.5056,-4.4979,-4.4278,-4.4047,-4.3816,-4.2316,-4.1673,-4.1393,-4.0727,-4.0496,-4.0496,-4.0496,-4.0496,-4.0496,-4.0496,-4.0496,-4.0496,-4.0496,-4.0362,-4.0246,-4.0246,-3.9611,-3.895,-3.8777,-3.7642,-3.6654,-3.6462,-3.5923,-3.55,-3.55,-3.55,-3.5486,-3.5424,-3.5398,-3.5383,-3.5327,-3.5339,-3.5339,-3.5339,-3.5339,-3.5339,-3.5339,-3.5339,-3.5339,-3.5339,-3.5339,-3.5223,-3.5016,-3.5215,-3.5122,-3.4694,-3.4917,-3.4841,-3.4497,-3.4497,-3.4497,-3.4497,-3.4497,-3.4364,-3.416,-3.5236,-3.5932,-3.6387,-3.7392,-3.8167,-3.8707,-3.8707,-3.8707,-3.8707,-3.8707,-3.8707,-3.8707,-4.2252,-4.2333,-4.2493,-4.2949,-4.3027,-4.3164,-4.3633,-4.3691,-4.3848,-4.4277,-4.4316,-4.4648,-4.5527,-4.5625,-4.5801,-4.6269,-4.6308,-4.6308,-4.6308,-4.6308,-4.6308,-4.6308,-4.6308,-4.6308,-4.6308,-4.5367,-4.5321,-4.6199,-4.5643,-4.5586,-4.5992,-4.5924,-4.5899,-4.5899,-4.5899,-4.5899,-4.5899,-4.5899,-4.5881,-4.5859,-4.5859,-4.5783,-4.5692,-4.5692,-4.5668,-4.5545,-4.5152,-4.4746,-4.4264,-4.3376,-4.2788,-4.2335,-4.1873,-4.145,-4.1123,-4.1123,-4.0843,-4.0496,-4.0496,-4.0496,-4.0496,-4.0496,-4.0496,-4.0496,-4.0496,-4.0169,-3.9765,-3.9381,-3.8565,-3.7815,-3.7411,-3.6635,-3.6077,-3.6077,-3.575,-3.55,-3.55,-3.55,-3.55,-3.55,-3.55,-3.55,-3.55,-3.55,-3.55,-3.55,-3.55,-3.55,-3.55,-3.55,-3.5439,-3.5297,-3.5432,-3.5369,-3.5088,-3.5215,-3.5215,-3.5079,-3.4813,-3.4694,-3.4694,-3.4694,-3.4593,-3.4502,-3.5469,-3.6205,-3.6739,-3.7692,-3.8508,-3.9127,-3.9127,-3.9127,-3.91,-3.8952,-3.8818,-3.8707,-4.3401,-4.357,-4.3626,-4.3839,-4.3862,-4.3921,-4.4057,-4.4099,-4.4374,-4.5096,-4.5214,-4.5508,-4.6211,-4.6308,-4.6308,-4.6308,-4.6308,-4.6308,-4.6308,-4.6308,-4.6308,-4.6308,-4.6308,-4.6308,-4.6308,-4.6308,-4.6308,-4.6308,-4.6198,-4.6122,-4.6122,-4.6027,-4.5974,-4.5974,-4.5974,-4.5974,-4.5974,-4.5974,-4.5963,-4.5928,-4.5928,-4.5896,-4.5821,-4.5821,-4.5756,-4.5669,-4.577,-4.5343,-4.4723,-4.4587,-4.4027,-4.3351,-4.3196,-4.2656,-4.2039,-4.1885,-4.1345,-4.0735,-4.0593,-4.0533,-4.0537,-4.0547,-4.0533,-4.0523,-4.0523,-4.0519,-4.0304,-3.965,-3.94,-3.9092,-3.8354,-3.7507,-3.6923,-3.6923,-3.6231,-3.5712,-3.5712,-3.5596,-3.55,-3.55,-3.55,-3.55,-3.55,-3.55,-3.55,-3.55,-3.55,-3.55,-3.55,-3.55,-3.55,-3.55,-3.55,-3.55,-3.55,-3.55,-3.55,-3.5493,-3.5062,-3.4851,-3.4851,-3.4851,-3.4803,-3.4802,-3.5512,-3.6238,-3.695,-3.767,-3.8452,-3.9173,-3.9173,-3.9248,-3.9357,-3.922,-3.904,-3.8848,-4.3393,-4.3432,-4.3674,-4.4433,-4.4553,-4.4807,-4.5492,-4.5694,-4.5826,-4.5945,-4.6049,-4.6172,-4.6289,-4.6308,-4.6308,-4.6308,-4.6308,-4.6308,-4.6308,-4.6308,-4.6308,-4.6308,-4.6308,-4.6308,-4.6308,-4.6308,-4.6308,-4.6308,-4.6289,-4.6269,-4.6269,-4.6248,-4.6247,-4.6247,-4.6247,-4.6247,-4.6247,-4.6247,-4.6175,-4.6077,-4.6077,-4.5992,-4.5896,-4.5896,-4.5886,-4.5852,-4.5891,-4.5818,-4.5604,-4.4908,-4.4588,-4.4346,-4.3607,-4.3281,-4.3048,-4.228,-4.1989,-4.1717,-4.095,-4.0731,-4.0684,-4.0747,-4.0726,-4.0667,-4.0667,-4.0575,-4.0477,-4.0362,-3.9785,-3.9265,-3.915,-3.8411,-3.7815,-3.7815,-3.7103,-3.6538,-3.6538,-3.5942,-3.55,-3.55,-3.55,-3.55,-3.55,-3.55,-3.55,-3.55,-3.55,-3.55,-3.55,-3.55,-3.55,-3.55,-3.55,-3.55,-3.55,-3.55,-3.55,-3.55,-3.5432,-3.5383,-3.5383,-3.5383,-3.5273,-3.5062,-3.5404,-3.5742,-3.609,-3.6426,-3.6917,-3.7431,-3.7431,-3.7857,-3.8565,-3.9258,-3.9517,-3.9469,-4.4636,-4.4749,-4.4874,-4.5302,-4.5369,-4.549,-4.584,-4.594,-4.6024,-4.6084,-4.6149,-4.6223,-4.6289,-4.6308,-4.6308,-4.6308,-4.6308,-4.6308,-4.6308,-4.6308,-4.6308,-4.6308,-4.6308,-4.6308,-4.6308,-4.6308,-4.6308,-4.6308,-4.6308,-4.6308,-4.6308,-4.6308,-4.6308,-4.6308,-4.6308,-4.6308,-4.6308,-4.6308,-4.6268,-4.6202,-4.6202,-4.6122,-4.6005,-4.6005,-4.5971,-4.5907,-4.5985,-4.6005,-4.5966,-4.5595,-4.5429,-4.53,-4.4915,-4.4487,-4.4043,-4.3669,-4.2852,-4.2015,-4.1622,-4.1153,-4.0752,-4.0785,-4.0779,-4.0762,-4.0762,-4.0717,-4.0641,-4.0523,-4.0227,-3.9977,-3.9977,-3.9284,-3.8719,-3.8719,-3.7988,-3.743,-3.743,-3.6692,-3.6,-3.5558,-3.55,-3.55,-3.55,-3.55,-3.55,-3.55,-3.55,-3.55,-3.55,-3.55,-3.55,-3.55,-3.55,-3.55,-3.55,-3.55,-3.55,-3.55,-3.55,-3.55,-3.55,-3.55,-3.5439,-3.532,-3.5446,-3.5822,-3.636,-3.6479,-3.6952,-3.7602,-3.7602,-3.7995,-3.8626,-3.9016,-3.9337,-3.9599]},{"header":{"parameterUnit":"m.s-1","parameterCategory":1,"la1":30.6,"la2":28.766,"lo1":-90.7593,"lo2":-88.6598,"dy":0.0162,"dx":0.0183,"nx":116,"ny":114,"refTime":"2024-06-08T00:00:00:Z","depth":0,"parameterNumber":3,"parameterNumberName":"V-component_of_WINDS"},"data":[0.0,0.0,0.0,0.0,0.0,0.0,0.0,0.0,0.0,0.0,0.0,0.0,0.0,0.0,0.0,0.0,0.0,0.0,0.0,0.0,0.0,0.0,0.0,0.0,0.0,0.0,0.0,0.0,0.0,0.0,0.0,0.0,0.0,0.0,0.0,0.0,0.0,0.0,0.0,0.0,0.0,0.0,0.0,0.0,0.0,0.0,0.0,0.0,0.0,0.0,0.0,0.0,0.0,0.0,0.0,0.0,0.0,0.0,0.0,0.0,0.0,0.0,0.0,0.0,0.0,0.0,0.0,0.0,0.0,0.0,0.0,0.0,0.0,0.0,0.0,0.0,0.0,0.0,0.0,0.0,0.0,0.0,0.0,0.0,0.0,0.0,0.0,0.0,0.0,0.0,0.0,0.0,0.0,0.0,0.0,0.0,0.0,0.0,0.0,0.0,0.0,0.0,0.0,0.0,0.0,0.0,0.0,0.0,0.0,0.0,0.0,0.0,0.0,0.0,0.0,0.0,0.0,0.0,0.0,0.0,0.0,0.0,0.0,0.0,0.0,0.0,0.0,0.0,0.0,0.0,0.0,0.0,0.0,0.0,0.0,0.0,0.0,0.0,0.0,0.0,0.0,0.0,0.0,0.0,0.0,0.0,0.0,0.0,0.0,0.0,0.0,0.0,0.0,0.0,0.0,0.0,0.0,0.0,0.0,0.0,0.0,0.0,0.0,0.0,0.0,0.0,0.0,0.0,0.0,0.0,0.0,0.0,0.0,0.0,0.0,0.0,0.0,0.0,0.0,0.0,0.0,0.0,0.0,0.0,0.0,0.0,0.0,0.0,0.0,0.0,0.0,0.0,0.0,0.0,0.0,0.0,0.0,0.0,0.0,0.0,0.0,0.0,0.0,0.0,0.0,0.0,0.0,0.0,0.0,0.0,0.0,0.0,0.0,0.0,0.0,0.0,0.0,0.0,0.0,0.0,0.0,0.0,0.0,0.0,0.0,0.0,0.0,0.0,0.0,0.0,0.0,0.0,0.0,0.0,0.0,0.0,0.0,0.0,0.0,0.0,0.0,0.0,0.0,0.0,0.0,0.0,0.0,0.0,0.0,0.0,0.0,0.0,0.0,0.0,0.0,0.0,0.0,0.0,0.0,0.0,0.0,0.0,0.0,0.0,0.0,0.0,0.0,0.0,0.0,0.0,0.0,0.0,0.0,0.0,0.0,0.0,0.0,0.0,0.0,0.0,0.0,0.0,0.0,0.0,0.0,0.0,0.0,0.0,0.0,0.0,0.0,0.0,0.0,0.0,0.0,0.0,0.0,0.0,0.0,0.0,0.0,0.0,0.0,0.0,0.0,0.0,0.0,0.0,0.0,0.0,0.0,0.0,0.0,0.0,0.0,0.0,0.0,0.0,0.0,0.0,0.0,0.0,0.0,0.0,0.0,0.0,0.0,0.0,0.0,0.0,0.0,0.0,0.0,0.0,0.0,0.0,0.0,0.0,0.0,0.0,0.0,0.0,0.0,0.0,0.0,0.0,0.0,0.0,0.0,0.0,0.0,0.0,0.0,0.0,0.0,0.0,0.0,0.0,0.0,0.0,0.0,0.0,0.0,0.0,0.0,0.0,0.0,0.0,0.0,0.0,0.0,0.0,0.0,0.0,0.0,0.0,0.0,0.0,0.0,0.0,0.0,0.0,0.0,0.0,0.0,0.0,0.0,0.0,0.0,0.0,0.0,0.0,0.0,0.0,0.0,0.0,0.0,0.0,0.0,0.0,0.0,0.0,0.0,0.0,0.0,0.0,0.0,0.0,0.0,0.0,0.0,0.0,0.0,0.0,0.0,0.0,0.0,0.0,0.0,0.0,0.0,0.0,0.0,0.0,0.0,0.0,0.0,0.0,0.0,0.0,0.0,0.0,0.0,0.0,0.0,0.0,0.0,0.0,0.0,0.0,0.0,0.0,0.0,0.0,0.0,0.0,0.0,0.0,0.0,0.0,0.0,0.0,0.0,0.0,0.0,0.0,0.0,0.0,0.0,0.0,0.0,0.0,0.0,0.0,0.0,0.0,0.0,0.0,0.0,0.0,0.0,0.0,0.0,0.0,0.0,0.0,0.0,0.0,0.0,0.0,0.0,0.0,0.0,0.0,0.0,0.0,0.0,0.0,0.0,0.0,0.0,0.0,0.0,0.0,0.0,0.0,0.0,0.0,0.0,0.0,0.0,0.0,0.0,0.0,0.0,0.0,0.0,0.0,0.0,0.0,0.0,0.0,0.0,0.0,0.0,0.0,0.0,0.0,0.0,0.0,0.0,0.0,0.0,0.0,0.0,0.0,0.0,0.0,0.0,0.0,0.0,0.0,0.0,0.0,0.0,0.0,0.0,0.0,0.0,0.0,0.0,0.0,0.0,0.0,0.0,0.0,0.0,0.0,0.0,0.0,0.0,0.0,0.0,0.0,0.0,0.0,0.0,0.0,0.0,0.0,0.0,0.0,0.0,0.0,0.0,0.0,0.0,0.0,0.0,0.0,0.0,0.0,0.0,0.0,0.0,0.0,0.0,0.0,0.0,0.0,0.0,0.0,0.0,0.0,0.0,0.0,0.0,0.0,0.0,0.0,0.0,0.0,0.0,0.0,0.0,0.0,0.0,0.0,0.0,0.0,0.0,0.0,0.0,0.0,0.0,0.0,0.0,0.0,0.0,0.0,0.0,0.0,0.0,0.0,0.0,0.0,0.0,0.0,0.0,0.0,0.0,0.0,0.0,0.0,0.0,0.0,0.0,0.0,0.0,0.0,0.0,0.0,0.0,0.0,0.0,0.0,0.0,0.0,0.0,0.0,0.0,0.0,0.0,0.0,0.0,0.0,0.0,0.0,0.0,0.0,0.0,0.0,0.0,0.0,0.0,0.0,0.0,0.0,0.0,0.0,0.0,0.0,0.0,0.0,0.0,0.0,0.0,0.0,0.0,0.0,0.0,0.0,0.0,0.0,0.0,0.0,0.0,0.0,0.0,0.0,0.0,0.0,0.0,0.0,0.0,0.0,0.0,0.0,0.0,0.0,0.0,0.0,0.0,0.0,0.0,0.0,0.0,0.0,0.0,0.0,0.0,0.0,0.0,0.0,0.0,0.0,0.0,0.0,0.0,0.0,0.0,0.0,0.0,0.0,0.0,0.0,0.0,0.0,0.0,0.0,0.0,0.0,0.0,0.0,0.0,0.0,0.0,0.0,0.0,0.0,0.0,0.0,0.0,0.0,0.0,0.0,0.0,0.0,0.0,0.0,0.0,0.0,0.0,0.0,0.0,0.0,0.0,0.0,0.0,0.0,0.0,0.0,0.0,0.0,0.0,0.0,0.0,0.0,0.0,0.0,0.0,0.0,0.0,0.0,0.0,0.0,0.0,0.0,0.0,0.0,0.0,0.0,0.0,0.0,0.0,0.0,0.0,0.0,0.0,0.0,0.0,0.0,0.0,0.0,0.0,0.0,0.0,0.0,0.0,0.0,0.0,0.0,0.0,0.0,0.0,0.0,0.0,0.0,0.0,0.0,0.0,0.0,0.0,0.0,0.0,0.0,0.0,0.0,0.0,0.0,0.0,0.0,0.0,0.0,0.0,0.0,0.0,0.0,0.0,0.0,0.0,0.0,0.0,0.0,0.0,0.0,0.0,0.0,0.0,0.0,0.0,0.0,0.0,0.0,0.0,0.0,0.0,0.0,0.0,0.0,0.0,0.0,0.0,0.0,0.0,0.0,0.0,0.0,0.0,0.0,0.0,0.0,0.0,0.0,0.0,0.0,0.0,0.0,0.0,0.0,0.0,0.0,0.0,0.0,0.0,0.0,0.0,0.0,0.0,0.0,0.0,0.0,0.0,0.0,0.0,0.0,0.0,0.0,0.0,0.0,0.0,0.0,0.0,0.0,0.0,0.0,0.0,0.0,0.0,0.0,0.0,0.0,0.0,0.0,0.0,0.0,0.0,0.0,0.0,0.0,0.0,0.0,0.0,0.0,0.0,0.0,0.0,0.0,0.0,0.0,0.0,0.0,0.0,0.0,0.0,0.0,0.0,0.0,0.0,0.0,0.0,0.0,0.0,0.0,0.0,0.0,0.0,0.0,0.0,0.0,0.0,0.0,0.0,0.0,0.0,0.0,0.0,0.0,0.0,0.0,0.0,0.0,0.0,0.0,0.0,0.0,0.0,0.0,0.0,0.0,0.0,0.0,0.0,0.0,0.0,0.0,0.0,0.0,0.0,0.0,0.0,0.0,0.0,0.0,0.0,0.0,0.0,0.0,0.0,0.0,0.0,0.0,0.0,0.0,0.0,0.0,0.0,0.0,0.0,0.0,0.0,0.0,0.0,0.0,0.0,0.0,0.0,0.0,0.0,0.0,0.0,0.0,0.0,0.0,0.0,0.0,0.0,0.0,0.0,0.0,0.0,0.0,0.0,0.0,0.0,0.0,0.0,0.0,0.0,0.0,0.0,0.0,0.0,0.0,0.0,0.0,0.0,0.0,0.0,0.0,0.0,0.0,0.0,0.0,0.0,0.0,0.0,0.0,0.0,0.0,0.0,0.0,0.0,0.0,0.0,0.0,0.0,0.0,0.0,0.0,0.0,0.0,0.0,0.0,0.0,0.0,0.0,0.0,0.0,0.0,0.0,0.0,0.0,0.0,0.0,0.0,0.0,0.0,0.0,0.0,0.0,0.0,0.0,0.0,0.0,0.0,0.0,0.0,0.0,0.0,0.0,0.0,0.0,0.0,0.0,0.0,0.0,0.0,0.0,0.0,0.0,0.0,0.0,0.0,0.0,0.0,0.0,0.0,0.0,0.0,0.0,0.0,0.0,0.0,0.0,0.0,0.0,0.0,0.0,0.0,0.0,0.0,0.0,0.0,0.0,0.0,0.0,0.0,0.0,0.0,0.0,0.0,0.0,0.0,0.0,0.0,0.0,0.0,0.0,0.0,0.0,0.0,0.0,0.0,0.0,0.0,0.0,0.0,0.0,0.0,0.0,0.0,0.0,0.0,0.0,0.0,0.0,0.0,0.0,0.0,0.0,0.0,0.0,0.0,0.0,0.0,0.0,0.0,0.0,0.0,0.0,0.0,0.0,0.0,0.0,0.0,0.0,0.0,0.0,0.0,0.0,0.0,0.0,0.0,0.0,0.0,0.0,0.0,0.0,0.0,0.0,0.0,0.0,0.0,0.0,0.0,0.0,0.0,0.0,0.0,0.0,0.0,0.0,0.0,0.0,0.0,0.0,0.0,0.0,0.0,0.0,0.0,0.0,0.0,0.0,0.0,0.0,0.0,0.0,0.0,0.0,0.0,0.0,0.0,0.0,0.0,0.0,0.0,0.0,0.0,0.0,0.0,0.0,0.0,0.0,0.0,0.0,0.0,0.0,0.0,0.0,0.0,0.0,0.0,0.0,0.0,0.0,0.0,0.0,0.0,0.0,0.0,0.0,0.0,0.0,0.0,0.0,0.0,0.0,0.0,0.0,0.0,0.0,0.0,0.0,0.0,0.0,0.0,0.0,0.0,0.0,0.0,0.0,0.0,0.0,0.0,0.0,0.0,0.0,0.0,0.0,0.0,0.0,0.0,0.0,0.0,0.0,0.0,0.0,0.0,0.0,0.0,0.0,0.0,0.0,0.0,0.0,0.0,0.0,0.0,0.0,0.0,0.0,0.0,0.0,0.0,0.0,0.0,0.0,0.0,0.0,0.0,0.0,0.0,0.0,0.0,0.0,0.0,0.0,0.0,0.0,0.0,0.0,0.0,0.0,0.0,0.0,0.0,0.0,0.0,0.0,0.0,0.0,0.0,0.0,0.0,0.0,0.0,0.0,0.0,0.0,0.0,0.0,0.0,0.0,0.0,0.0,0.0,0.0,0.0,0.0,0.0,0.0,0.0,0.0,0.0,0.0,0.0,0.0,0.0,0.0,0.0,0.0,0.0,0.0,0.0,0.0,0.0,0.0,0.0,0.0,0.0,0.0,0.0,0.0,0.0,0.0,0.0,0.0,0.0,0.0,0.0,0.0,0.0,0.0,0.0,0.0,0.0,0.0,0.0,0.0,0.0,0.0,0.0,0.0,0.0,0.0,0.0,0.0,0.0,-2.2772,0.0,0.0,0.0,0.0,0.0,0.0,0.0,0.0,0.0,0.0,0.0,0.0,0.0,0.0,0.0,0.0,0.0,0.0,0.0,0.0,0.0,0.0,0.0,0.0,-1.0567,-1.1212,-1.1756,-1.2089,-1.2134,-1.182,0.0,0.0,0.0,0.0,0.0,-1.1286,-1.1281,-1.1786,-1.2751,-1.3077,-1.4259,-1.6204,-1.6144,-1.5733,-1.5041,0.0,0.0,0.0,0.0,0.0,0.0,0.0,0.0,0.0,0.0,0.0,0.0,0.0,0.0,0.0,0.0,0.0,0.0,0.0,0.0,0.0,0.0,0.0,0.0,0.0,0.0,0.0,0.0,0.0,0.0,0.0,0.0,0.0,0.0,0.0,0.0,0.0,0.0,0.0,0.0,0.0,0.0,0.0,0.0,0.0,0.0,0.0,0.0,0.0,0.0,0.0,0.0,0.0,0.0,0.0,0.0,0.0,0.0,0.0,0.0,0.0,0.0,0.0,0.0,0.0,0.0,0.0,0.0,0.0,0.0,0.0,-2.4507,0.0,0.0,0.0,0.0,0.0,0.0,0.0,0.0,0.0,0.0,0.0,0.0,0.0,0.0,0.0,0.0,0.0,0.0,0.0,0.0,0.0,-0.9443,-0.9992,-1.1302,-1.2219,-1.2417,-1.2818,-1.2818,-1.2286,-1.2139,0.0,0.0,0.0,-1.185,-1.1969,-1.2639,-1.3395,-1.4255,-1.5481,-1.6969,-1.8701,-2.0074,-1.9766,-1.8056,-1.7055,0.0,0.0,0.0,0.0,0.0,0.0,0.0,0.0,0.0,0.0,0.0,0.0,0.0,0.0,0.0,0.0,0.0,0.0,0.0,0.0,0.0,0.0,0.0,0.0,0.0,0.0,0.0,0.0,0.0,0.0,0.0,0.0,0.0,0.0,0.0,0.0,0.0,0.0,0.0,0.0,0.0,0.0,0.0,0.0,0.0,0.0,0.0,0.0,0.0,0.0,0.0,0.0,0.0,0.0,0.0,0.0,0.0,0.0,0.0,0.0,0.0,0.0,0.0,0.0,-3.0073,-2.9998,-3.0657,-3.1225,-3.1614,-3.0026,-2.9172,-2.8742,0.0,0.0,0.0,0.0,0.0,0.0,0.0,0.0,0.0,0.0,0.0,0.0,0.0,0.0,0.0,0.0,0.0,0.0,0.0,0.0,-0.9396,-1.0553,-1.1377,-1.2681,-1.4751,-1.4416,-1.4089,-1.407,-1.3459,0.0,0.0,-1.1805,-1.2059,-1.2666,-1.3331,-1.4452,-1.606,-1.9527,-2.1646,-2.2507,-2.3967,-2.4723,-2.4673,-2.1352,-2.0115,-2.0373,0.0,0.0,0.0,0.0,0.0,0.0,0.0,0.0,0.0,0.0,0.0,0.0,0.0,0.0,0.0,0.0,0.0,0.0,0.0,0.0,0.0,0.0,0.0,0.0,0.0,0.0,0.0,0.0,0.0,0.0,0.0,0.0,0.0,0.0,0.0,0.0,0.0,0.0,0.0,0.0,0.0,-1.7924,-1.8283,0.0,0.0,0.0,0.0,0.0,0.0,0.0,0.0,0.0,0.0,0.0,0.0,0.0,0.0,-2.8203,-3.121,-3.2422,-3.1898,-3.4846,-3.5968,-3.5474,-3.6088,-3.6432,-3.6492,-3.6222,0.0,-3.0133,-2.8682,0.0,0.0,0.0,0.0,0.0,0.0,0.0,0.0,0.0,0.0,0.0,0.0,0.0,0.0,0.0,0.0,0.0,0.0,0.0,0.0,0.0,-1.3851,-1.5276,-1.6227,-1.6345,-1.6058,-1.5299,-1.4755,-1.4101,-1.3248,-1.3206,-1.3423,-1.3912,-1.4769,-1.6558,-1.9327,-2.2845,-2.4919,-2.5631,-2.6643,-2.7635,-2.8447,-2.6801,-2.4713,-2.2378,-2.0798,0.0,0.0,0.0,0.0,0.0,0.0,0.0,0.0,0.0,0.0,0.0,0.0,0.0,0.0,0.0,0.0,0.0,0.0,0.0,0.0,0.0,0.0,0.0,0.0,0.0,0.0,0.0,0.0,0.0,0.0,0.0,0.0,0.0,0.0,0.0,0.0,0.0,0.0,0.0,-1.7896,-2.0243,-1.9884,-2.0756,-2.0961,0.0,0.0,0.0,0.0,0.0,0.0,0.0,0.0,0.0,-2.9864,-3.0851,-3.1898,-3.3021,-3.4801,-3.5549,-3.528,-3.6716,-3.727,-3.7015,-3.7285,-3.7404,-3.7404,-3.7404,-3.6252,-3.4233,-3.2183,-3.0731,-2.9624,0.0,0.0,0.0,0.0,0.0,-2.8513,0.0,0.0,0.0,0.0,0.0,0.0,0.0,0.0,0.0,0.0,0.0,0.0,-1.3961,-1.5968,-1.74,-1.7876,-1.8209,-1.7948,-1.6938,-1.6277,-1.551,-1.4612,-1.448,-1.4664,-1.5197,-1.7028,-1.9592,-2.283,-2.5856,-2.7744,-2.8542,-2.9375,-3.0267,-3.117,-3.117,-2.8986,-2.5228,-2.3829,-2.1965,-1.9817,0.0,0.0,0.0,0.0,0.0,0.0,0.0,0.0,0.0,0.0,0.0,0.0,0.0,0.0,0.0,0.0,0.0,0.0,0.0,0.0,0.0,0.0,0.0,0.0,0.0,0.0,0.0,0.0,0.0,0.0,0.0,0.0,0.0,0.0,0.0,0.0,0.0,-2.0112,-2.2398,-2.154,-2.3221,-2.3789,0.0,0.0,0.0,0.0,0.0,0.0,-2.8783,-2.9639,-3.115,-3.3455,-3.4158,-3.5295,-3.6956,-3.7599,-3.8003,-3.8182,-3.8347,-3.8422,-3.8422,-3.8422,-3.8422,-3.8422,-3.8422,-3.8422,-3.8212,-3.5415,-3.3679,-3.2602,-3.1001,-3.0058,-2.9756,-3.0731,-3.121,-3.1629,0.0,0.0,0.0,0.0,0.0,0.0,0.0,0.0,0.0,0.0,0.0,-1.3167,-1.5526,-1.6451,-1.7864,-2.0209,-1.9808,-1.9452,-1.9511,-1.8128,-1.6718,-1.5408,-1.4981,-1.5268,-1.63,-2.0422,-2.3752,-2.6172,-2.8674,-3.0389,-3.134,-3.2555,-3.3191,-3.3246,-3.3246,-3.2334,-3.0591,-2.7366,-2.5297,-2.3921,-2.0672,0.0,0.0,0.0,0.0,0.0,0.0,0.0,0.0,0.0,0.0,0.0,0.0,0.0,0.0,0.0,0.0,0.0,0.0,0.0,0.0,0.0,0.0,0.0,0.0,0.0,0.0,0.0,0.0,0.0,0.0,0.0,0.0,0.0,0.0,0.0,0.0,0.0,0.0,-2.361,-2.6871,0.0,0.0,0.0,0.0,-2.8248,-2.8966,-3.0223,-3.2168,-3.3484,-3.4863,-3.6237,-3.6881,-3.7569,-3.8287,-3.8975,-3.9634,-4.0262,-4.0876,-4.1212,-4.1212,-4.1212,-4.1212,-4.1212,-4.1212,-4.1212,-4.0973,-3.7674,-3.6297,-3.6163,-3.5444,-3.513,-3.5115,-3.519,-3.5609,-3.6148,0.0,0.0,0.0,0.0,0.0,-0.803,-0.803,-0.859,-0.9382,-1.0343,-1.2508,-1.4708,-1.6652,-1.8539,-2.0217,-2.1589,-2.1438,-2.113,-2.0699,-1.9464,-1.8617,-1.8321,-1.7986,-1.8892,-2.119,-2.4149,-2.6528,-2.8336,-3.0479,-3.2158,-3.3441,-3.3917,-3.437,-3.4822,-3.4822,-3.4269,-3.3119,-3.0027,-2.7904,-2.6387,-2.3777,-2.1354,0.0,0.0,0.0,0.0,0.0,0.0,0.0,0.0,0.0,0.0,0.0,0.0,0.0,0.0,0.0,0.0,0.0,0.0,0.0,0.0,0.0,0.0,0.0,0.0,0.0,0.0,0.0,0.0,0.0,0.0,0.0,0.0,0.0,0.0,0.0,0.0,0.0,-2.6871,-2.9205,0.0,0.0,-2.9355,-3.0402,-3.1076,-3.2527,-3.3888,-3.5011,-3.5893,-3.6985,-3.8332,-3.8586,-3.923,-4.0307,-4.0561,-4.0801,-4.104,-4.1265,-4.1422,-4.1422,-4.1422,-4.1422,-4.1422,-4.1422,-4.1422,-4.1332,-4.0149,-3.914,-3.8302,-3.7629,-3.7105,-3.6731,-3.6731,-3.6881,-3.7075,0.0,0.0,0.0,0.0,-0.7996,-0.8043,-0.8088,-0.8871,-0.9992,-1.1494,-1.3837,-1.6225,-1.8434,-2.0187,-2.1512,-2.2229,-2.2296,-2.2076,-2.16,-2.0636,-2.0089,-2.0116,-2.0455,-2.196,-2.478,-2.7031,-2.9037,-3.074,-3.206,-3.3326,-3.4516,-3.4295,-3.4469,-3.4934,-3.5161,-3.4985,-3.4387,-3.2428,-3.0565,-2.877,-2.6809,-2.4718,-2.2553,0.0,0.0,0.0,0.0,0.0,0.0,0.0,0.0,0.0,0.0,0.0,0.0,0.0,0.0,0.0,0.0,0.0,0.0,0.0,0.0,0.0,0.0,0.0,0.0,0.0,0.0,0.0,0.0,0.0,0.0,0.0,0.0,0.0,0.0,0.0,-2.9235,-2.9235,-3.1584,-3.2602,-3.1046,-3.2482,-3.3663,-3.4128,-3.5609,-3.6761,-3.7434,-3.8078,-3.8931,-4.0053,-4.0083,-4.0606,-4.1737,-4.1752,-4.1818,-4.2043,-4.2043,-4.2043,-4.2043,-4.2043,-4.2043,-4.2043,-4.2043,-4.2043,-4.2043,-4.2043,-4.1399,-4.0352,-3.9664,-3.914,-3.8751,-3.8751,-3.8616,-3.8392,0.0,0.0,0.0,-0.807,-0.799,-0.7949,-0.8077,-0.9297,-1.1085,-1.3586,-1.5319,-1.7547,-2.0762,-2.1177,-2.1515,-2.2229,-2.2282,-2.2282,-2.2296,-2.1613,-2.1073,-2.0742,-2.221,-2.4227,-2.6776,-2.9008,-3.1205,-3.3398,-3.3483,-3.386,-3.4576,-3.3937,-3.3633,-3.3684,-3.4333,-3.4624,-3.4638,-3.455,-3.3288,-3.1171,-2.9685,-2.818,-2.6421,0.0,0.0,0.0,0.0,0.0,0.0,0.0,0.0,0.0,0.0,0.0,0.0,0.0,0.0,0.0,0.0,0.0,0.0,0.0,0.0,0.0,0.0,0.0,0.0,0.0,0.0,0.0,0.0,0.0,0.0,0.0,0.0,0.0,-2.6707,-2.8951,-3.0612,-3.0657,-3.4098,-3.5729,-3.3799,-3.5938,-3.7449,-3.7464,-3.8078,-3.8751,-3.9454,-4.0083,-4.0726,-4.1384,-4.1452,-4.1767,-4.2425,-4.2425,-4.2701,-4.329,-4.329,-4.329,-4.329,-4.329,-4.329,-4.329,-4.329,-4.329,-4.329,-4.329,-4.297,-4.2366,-4.1707,-4.1437,-4.1422,-4.1422,-4.098,-4.0337,0.0,0.0,-0.7914,-0.7949,-0.7996,-0.8023,-0.7955,-0.9195,-1.0572,-1.181,-1.4788,-1.7408,-1.9004,-2.0564,-2.1711,-2.2251,-2.1988,-2.1928,-2.2282,-2.1613,-2.186,-2.3358,-2.5029,-2.7211,-2.9905,-3.0581,-3.1728,-3.347,-3.3485,-3.386,-3.4616,-3.4406,-3.4592,-3.5068,-3.523,-3.5339,-3.5322,-3.5296,-3.4684,-3.3532,-3.2008,-3.0499,-2.8939,0.0,0.0,0.0,0.0,0.0,0.0,0.0,0.0,0.0,0.0,0.0,0.0,0.0,0.0,0.0,0.0,0.0,0.0,0.0,0.0,0.0,0.0,0.0,0.0,0.0,0.0,0.0,0.0,0.0,0.0,0.0,0.0,-2.8921,-2.937,-3.13,-3.3036,-3.4023,-3.5519,-3.6447,-3.6342,-3.7419,-3.8332,-3.8826,-3.9469,-4.0127,-4.0801,-4.101,-4.1414,-4.2111,-4.2126,-4.2402,-4.306,-4.306,-4.3125,-4.329,-4.329,-4.329,-4.329,-4.329,-4.329,-4.329,-4.329,-4.329,-4.329,-4.329,-4.3185,-4.3,-4.2381,-4.1841,-4.1422,-4.1422,-4.1265,-4.1085,0.0,-0.7899,-0.7921,-0.7969,-0.7996,-0.8003,-0.799,-0.9211,-1.0632,-1.1997,-1.4952,-1.7526,-1.9157,-2.0528,-2.1615,-2.2237,-2.172,-2.1613,-2.2268,-2.2192,-2.3001,-2.4963,-2.6547,-2.8486,-3.0811,-3.1424,-3.2315,-3.3535,-3.3265,-3.3349,-3.3761,-3.3453,-3.3515,-3.3912,-3.4202,-3.4325,-3.439,-3.4958,-3.4965,-3.4525,-3.3628,-3.2553,-3.1295,-2.925,-2.764,-2.6196,-2.4129,-2.2772,-2.1774,-2.0594,0.0,0.0,0.0,0.0,0.0,0.0,0.0,0.0,0.0,0.0,0.0,0.0,0.0,0.0,0.0,0.0,0.0,0.0,0.0,0.0,0.0,0.0,0.0,0.0,-2.9849,-3.1644,-3.2841,-3.3784,-3.4726,-3.5789,-3.6731,-3.7419,-3.7778,-3.8676,-3.9394,-3.9798,-4.0696,-4.1384,-4.1811,-4.2043,-4.2372,-4.2761,-4.2776,-4.2955,-4.329,-4.3559,-4.3708,-4.3708,-4.4018,-4.4152,-4.4152,-4.4152,-4.4152,0.0,-4.3828,-4.3708,-4.3678,-4.3409,-4.329,0.0,0.0,0.0,0.0,0.0,-4.1826,-4.1796,0.0,-0.7899,-0.7934,-0.8056,-0.7976,-0.7941,-0.8056,-0.9266,-1.0916,-1.3031,-1.5245,-1.7561,-1.9979,-2.06,-2.1147,-2.1974,-2.1351,-2.1308,-2.2209,-2.307,-2.4245,-2.5779,-2.7126,-2.8695,-3.0487,-3.169,-3.269,-3.3495,-3.2895,-3.2586,-3.2602,-3.1923,-3.1653,-3.1768,-3.2499,-3.2831,-3.2897,-3.4117,-3.4546,-3.448,-3.4488,-3.4076,-3.3218,-3.0714,-2.9535,-2.8895,-2.6455,-2.4784,-2.365,-2.2913,0.0,0.0,0.0,0.0,0.0,0.0,0.0,0.0,0.0,0.0,0.0,0.0,0.0,0.0,0.0,0.0,0.0,0.0,0.0,0.0,0.0,0.0,0.0,0.0,-3.2811,-3.4367,-3.6222,-3.6103,-3.6043,-3.6626,-3.7704,-3.8452,-3.8601,-3.9694,-4.0457,-4.0606,-4.1737,-4.2425,-4.2515,0.0,0.0,0.0,0.0,-4.3409,-4.3409,-4.4092,-4.4421,-4.4436,-4.502,-4.5289,-4.5289,-4.5289,-4.5289,-4.5259,-4.4676,-4.4421,-4.4377,-4.3678,-4.3364,-4.329,-4.329,-4.329,-4.323,-4.2686,-4.2515,0.0,0.0,-0.7899,-0.7914,-0.7934,-0.7921,-0.7914,-0.7934,-0.9081,-1.0478,-1.1944,-1.419,-1.6273,-1.7855,-1.9029,-1.9909,-2.0402,-2.0448,-2.0902,-2.1988,-2.3554,-2.4958,-2.6062,-2.7469,-2.9172,-3.1254,-3.1526,-3.2026,-3.2788,-3.2668,-3.2586,-3.2586,-3.2465,-3.268,-3.3224,-3.39,-3.4207,-3.4234,-3.4482,-3.4255,-3.3724,-3.378,-3.3665,-3.3386,-3.2312,-3.0819,-2.9166,-2.8191,-2.7317,-2.6433,-2.5342,-2.483,-2.4313,-2.2338,-2.0991,0.0,0.0,0.0,0.0,0.0,0.0,0.0,0.0,0.0,0.0,0.0,0.0,0.0,0.0,0.0,0.0,0.0,0.0,0.0,-3.2019,-3.3903,-3.5444,-3.6357,-3.727,-3.7883,-3.8003,-3.8242,-3.8811,-3.9903,-4.0247,-4.0846,-4.1946,-4.2246,-4.262,-4.312,-4.323,0.0,-4.329,-4.3798,-4.4122,-4.4122,-4.4781,-4.511,-4.511,0.0,0.0,-4.5289,-4.5289,-4.5289,-4.5289,-4.5155,-4.511,-4.505,-4.4392,-4.3768,-4.329,-4.329,-4.329,-4.329,-4.3155,-4.315,-4.3135,-0.7899,-0.7899,-0.7899,-0.7899,-0.7899,-0.7899,-0.7899,-0.9045,-1.0234,-1.1181,-1.3521,-1.5558,-1.6768,-1.7592,-1.8439,-1.9419,-1.9892,-2.0619,-2.1675,-2.341,-2.4981,-2.6241,-2.7598,-2.9025,-3.052,-3.0839,-3.1348,-3.2064,-3.2064,-3.2064,-3.2064,-3.2064,-3.2244,-3.2571,-3.2884,-3.3039,-3.3067,-3.3435,-3.3396,-3.3063,-3.3101,-3.3081,-3.3013,-3.2652,-3.145,-2.9886,-2.9244,-2.8348,-2.7376,-2.6414,-2.6093,-2.5809,-2.4163,-2.2966,-2.1829,0.0,0.0,0.0,0.0,0.0,0.0,0.0,0.0,0.0,0.0,0.0,0.0,0.0,0.0,-2.8098,0.0,0.0,-3.2542,-3.4233,-3.534,-3.6327,-3.73,-3.7988,-3.8392,-3.8392,-3.8691,-3.9305,-4.0307,-4.0696,-4.1332,-4.2321,-4.2671,-4.2985,-4.3275,-4.3604,-4.3783,-4.3783,-4.4466,-4.4811,-4.4811,-4.5484,-4.5813,-4.5813,-4.6142,-4.6307,-4.6307,-4.6307,-4.6307,-4.6277,-4.5963,-4.5813,-4.5753,-4.508,-4.4421,-4.3783,-4.3783,-4.3589,-4.329,-4.329,-4.329,-4.329,-0.7899,-0.7899,-0.7899,-0.7899,-0.7899,-0.7899,-0.7899,-0.8925,-0.9965,-1.0693,-1.2792,-1.4656,-1.5763,-1.6166,-1.6938,-1.8419,-1.9253,-2.0162,-2.127,-2.2972,-2.4634,-2.6188,-2.7333,-2.8481,-2.9562,-3.0094,-3.0708,-3.1511,-3.1511,-3.1511,-3.1511,-3.1511,-3.1511,-3.1511,-3.1645,-3.169,-3.1719,-3.2331,-3.2582,-3.2567,-3.2428,-3.2382,-3.236,-3.2165,-3.1398,-3.032,-2.9581,-2.8404,-2.7136,-2.6572,-2.6318,-2.6019,-2.4933,-2.4141,-2.3266,-2.159,-2.0897,0.0,0.0,0.0,0.0,0.0,0.0,0.0,0.0,0.0,-2.6309,-2.8334,-2.9711,-3.1016,-3.2602,-3.3544,-3.4607,-3.6222,-3.6686,-3.721,-3.8242,-3.8497,-3.8586,-3.8586,-3.908,-3.9723,-4.0516,-4.107,-4.1752,-4.253,-4.3045,-4.3349,-4.3484,-4.3992,-4.4377,-4.4496,-4.514,-4.5484,-4.5484,-4.6172,-4.6474,-4.6516,-4.7055,-4.7309,-4.7309,-4.7309,-4.7309,-4.7279,-4.6741,-4.6399,-4.6234,-4.5723,-4.511,-4.4496,-4.4362,-4.3947,-4.3469,-4.3349,-4.329,-4.329,0.0,-0.7899,-0.7899,-0.7899,-0.7899,-0.7899,-0.7899,-0.8537,-0.9443,-1.0633,-1.157,-1.2636,-1.3948,-1.4629,-1.5543,-1.6834,-1.7946,-1.921,-2.0685,-2.242,-2.4081,-2.5626,-2.6395,-2.7665,-2.9562,-2.9687,-3.0291,-3.1511,-3.1511,-3.1511,-3.1511,-3.1511,-3.1511,-3.1525,-3.2108,-3.2378,-3.2407,-3.2481,-3.2511,-3.2465,-3.1865,-3.1611,-3.1564,-3.0943,-3.0295,-2.9609,-2.8948,-2.7445,-2.5809,-2.5749,-2.5307,-2.4799,-2.4649,-2.4141,-2.3445,-2.2703,0.0,-2.0897,-2.1879,-2.3131,-2.4306,-2.4889,-2.5615,-2.7081,0.0,0.0,-3.0417,-3.2422,-3.344,-3.4024,-3.4249,-3.5295,-3.6222,-3.6447,-3.7434,-3.8227,-3.8362,-3.8916,-3.9305,-3.9305,-3.9328,-3.9903,-4.1145,-4.1377,-4.1893,-4.3095,-4.3245,-4.3544,-4.4182,-4.4272,-4.4586,-4.517,-4.5858,-4.6217,-4.6217,-4.686,-4.7189,-4.7189,-4.7264,-4.7309,-4.7309,-4.7309,-4.7309,-4.7309,-4.7234,-4.686,-4.6264,-4.6204,-4.5798,-4.5125,-4.4541,-4.4272,-4.4137,-4.3514,-4.329,-4.329,0.0,-0.7899,-0.7899,-0.7899,-0.7899,-0.7899,-0.7899,-0.8462,-0.9227,-1.0159,-1.1176,-1.2164,-1.3107,-1.381,-1.4425,-1.4978,-1.6472,-1.818,-2.0007,-2.1892,-2.3734,-2.5525,-2.6243,-2.735,-2.8966,-2.9412,-3.0028,-3.0913,-3.1316,-3.1511,-3.1511,-3.1511,-3.1511,-3.1511,-3.1795,-3.1914,-3.1914,-3.1914,-3.1914,-3.1884,-3.1615,-3.1271,-3.0866,-3.0223,-2.9086,-2.7814,-2.753,-2.6393,0.0,-2.5008,-2.4829,-2.4664,-2.5053,-2.444,-2.355,-2.3295,-2.3101,0.0,-2.5555,-2.6228,-2.6602,0.0,-2.8981,-3.0372,-3.163,-3.2108,-3.2587,-3.3814,-3.4607,-3.507,-3.507,-3.5534,-3.6163,0.0,-3.7464,-3.8093,-3.8871,-3.8901,-3.8826,-3.8826,-3.8826,-3.9334,-4.0681,-4.116,-4.1773,-4.2701,-4.312,-4.3409,-4.3678,-4.4466,-4.5005,-4.5289,-4.6337,-4.689,-4.689,-4.7174,-4.7309,-4.7309,-4.7309,-4.7309,-4.7309,-4.7309,-4.7309,-4.7309,-4.7309,-4.7145,-4.689,-4.689,-4.6501,-4.5828,-4.514,-4.4646,-4.4242,-4.3544,-4.329,-4.329,0.0,-0.7899,-0.7899,-0.7899,-0.7899,-0.7899,-0.7899,-0.8312,-0.8927,-0.9794,-1.0698,-1.158,-1.243,-1.2957,-1.3393,-1.3767,-1.5426,-1.7295,-1.9286,-2.1145,-2.3011,-2.4971,-2.5689,-2.6752,-2.8278,-2.8966,-2.9624,-3.0253,-3.0746,-3.0972,-3.0972,-3.1137,-3.1212,-3.1227,-3.1421,-3.1511,-3.1511,-3.1511,-3.1391,-3.1212,-3.1212,-3.0703,-2.9909,-2.9292,-2.7809,-2.6048,-2.6048,-2.5091,-2.3797,-2.3797,-2.3678,-2.3633,-2.4328,-2.3864,-2.3176,-2.3729,-2.4739,-2.604,-2.7619,0.0,0.0,-2.9879,-3.1599,-3.2931,-3.2452,-3.323,-3.4188,-3.4666,-3.516,-3.5504,-3.5504,-3.5654,-3.6133,-3.7225,-3.7569,-3.8093,-3.926,-3.8826,-3.8392,-3.8392,-3.8227,-3.8571,-3.9738,-4.0606,-4.1497,-4.2336,-4.2791,-4.3299,-4.3798,-4.4781,-4.5469,-4.5843,-4.68,-4.7309,-4.7309,-4.7309,-4.7309,-4.7309,-4.7309,-4.7309,-4.7309,-4.7309,-4.7309,-4.7309,-4.7309,-4.7309,-4.7309,-4.7309,-4.7025,-4.6516,-4.5633,-4.5005,-4.4481,-4.3604,-4.329,-4.329,0.0,0.0,-0.7899,-0.7899,-0.7899,-0.7899,-0.7899,-0.7914,-0.8409,-0.9725,-0.9935,-1.0428,-1.1685,-1.185,-1.2377,-1.369,-1.505,-1.6653,-1.8597,-2.0001,-2.1615,-2.358,-2.4291,-2.5576,-2.7585,-2.8278,-2.8951,-2.9636,-2.9651,-2.9666,-2.9681,-3.0253,-3.0537,-3.0567,-3.1212,-3.1511,-3.1511,-3.1511,-3.1122,-3.0537,-3.0537,-2.9774,-2.8577,-2.7929,-2.6408,-2.4664,-2.4664,-2.3409,-2.1784,-2.1784,-2.1365,-2.0946,-2.1605,-2.1784,0.0,-2.4022,-2.6437,-2.8203,0.0,0.0,-3.1391,-3.1436,-3.2961,-3.4444,-3.4414,-3.4936,-3.5444,-3.5474,-3.5489,-3.5504,-3.5504,-3.6028,-3.6671,-3.73,-3.7943,-3.8601,-3.932,-3.8826,-3.8392,-3.8392,-3.7823,-3.7704,0.0,-3.9649,-4.0965,-4.2306,-4.2425,-4.3264,-4.5125,-4.5274,-4.5903,-4.7204,-4.7279,-4.7309,-4.7309,-4.7309,-4.7309,-4.7309,-4.7309,-4.7309,-4.7309,-4.7309,-4.7309,-4.7309,-4.7309,-4.7309,-4.7309,-4.7309,-4.7294,-4.7145,-4.5813,-4.5289,-4.511,-4.3768,-4.329,-4.329,0.0,0.0,0.0,-0.7899,-0.7899,-0.7899,-0.7899,-0.7899,-0.8379,-0.9725,-1.0638,0.0,0.0,0.0,0.0,0.0,-1.4361,-1.5949,-1.7908,-1.9286,-2.0917,-2.2927,-2.3595,-2.4462,-2.56,-2.6692,-2.7615,-2.8274,-2.8738,-2.9146,-2.9606,-2.9816,-2.9894,-2.9909,-3.0133,-3.0238,-3.0238,-3.0238,-3.0342,-3.0432,-2.9579,-2.8981,-2.8427,-2.6871,-2.5046,-2.3281,0.0,-2.1979,-2.1051,-2.1051,-2.0882,-2.0808,-2.1485,0.0,-2.1495,-2.3902,-2.5884,-2.7649,-2.94,0.0,-3.2392,-3.326,-3.4322,-3.516,-3.516,-3.534,-3.5504,-3.5504,-3.5145,-3.4848,-3.4848,-3.5028,-3.5552,-3.6626,-3.733,-3.8138,-3.9224,-3.8826,-3.8227,-3.7793,-3.7928,0.0,0.0,0.0,0.0,-4.1647,-4.2156,-4.3069,-4.4571,-4.5065,-4.5708,-4.6621,-4.707,-4.7309,-4.7309,-4.7309,-4.7309,-4.7309,-4.7309,-4.7309,-4.7309,-4.7309,-4.7309,-4.7309,-4.7309,-4.7309,-4.7309,-4.7309,-4.7309,-4.7219,-4.6322,-4.5693,-4.5185,-4.4302,-4.3663,-4.329,0.0,0.0,0.0,0.0,0.0,0.0,0.0,0.0,0.0,0.0,0.0,0.0,0.0,0.0,0.0,0.0,0.0,0.0,-1.6922,-1.8253,-1.9765,-2.155,-2.1994,-2.2742,-2.3909,-2.4762,-2.5533,-2.6177,-2.6602,-2.7156,-2.7814,-2.8053,-2.8319,-2.8558,-2.8783,-2.8888,-2.8888,-2.8888,-2.8978,-2.9011,-2.7949,-2.7245,-2.6647,-2.5136,-2.349,0.0,-2.15,-2.0917,-2.0348,-2.0348,-2.0348,-2.0468,-2.1141,-2.1859,-2.2826,-2.4739,-2.6587,-2.8607,-3.1436,-3.2542,-3.3185,-3.4517,-3.5175,-3.5504,-3.5504,-3.5504,-3.537,-3.4891,-3.4427,-3.3978,-3.3514,-3.3425,-3.3948,-3.5552,-3.6312,-3.727,-3.8826,-3.8661,-3.8227,-3.7808,-3.8138,0.0,0.0,0.0,0.0,-4.1332,-4.2036,-4.3069,-4.4586,-4.5065,-4.5723,-4.6651,-4.7085,-4.7309,-4.7309,-4.7309,-4.7309,-4.7309,-4.7309,-4.7309,-4.7309,-4.7309,-4.7309,-4.7309,-4.7309,-4.7309,-4.7309,-4.7309,-4.7309,-4.7219,-4.6307,-4.5678,-4.5185,-4.4287,-4.3663,-4.329,0.0,0.0,0.0,0.0,0.0,0.0,0.0,0.0,0.0,0.0,0.0,0.0,0.0,0.0,0.0,0.0,0.0,0.0,-1.5709,-1.6922,-1.8192,-1.9543,-1.9663,-2.0591,-2.2508,-2.2613,-2.2957,-2.355,-2.355,-2.3909,-2.4575,-2.5187,-2.5839,-2.6452,-2.7106,-2.739,-2.739,-2.739,-2.7061,-2.6437,-2.5734,-2.4717,-2.3535,-2.2897,-2.1829,-2.0703,-2.0703,-2.0273,-1.9708,-1.9753,0.0,0.0,0.0,0.0,0.0,-2.6497,-2.8547,-3.1031,-3.2961,-3.3544,-3.3903,-3.519,-3.5504,-3.5489,-3.5459,-3.5429,-3.5026,-3.3664,-3.335,-3.2886,0.0,0.0,-3.2108,-3.4054,-3.504,-3.6252,-3.8123,-3.8452,-3.8482,0.0,0.0,0.0,0.0,0.0,0.0,-4.1422,0.0,-4.3264,-4.5185,-4.5289,-4.5903,-4.7264,-4.7309,-4.7309,-4.7309,-4.7309,-4.7309,-4.7309,-4.7309,-4.7309,-4.7309,-4.7309,-4.7309,-4.7309,-4.7309,-4.7309,-4.7309,-4.7309,-4.7309,-4.7174,-4.5858,-4.5334,-4.514,-4.3813,-4.3319,-4.329,0.0,0.0,0.0,0.0,0.0,0.0,0.0,0.0,0.0,0.0,0.0,0.0,0.0,0.0,0.0,0.0,0.0,0.0,-1.4975,-1.5829,-1.6862,-1.8147,-1.9166,-1.9947,-2.0456,-2.1445,-2.2283,-2.2927,-2.2927,-2.3236,-2.3864,-2.4029,-2.4208,-2.4373,-2.4537,-2.4612,-2.4612,-2.4612,-2.4807,-2.5008,-2.3879,-2.349,-2.3475,-2.2368,-2.144,-2.0703,-2.0703,0.0,0.0,0.0,0.0,0.0,0.0,-2.5211,-2.7225,0.0,0.0,-3.2228,-3.3215,-3.4233,-3.507,-3.5415,-3.5504,-3.537,-3.4861,-3.4367,-3.3634,-3.2273,-3.1255,-3.0163,0.0,0.0,0.0,-3.2168,-3.4891,0.0,-3.8257,-3.926,0.0,-3.9215,0.0,-4.0502,-4.0187,-4.119,0.0,0.0,-4.2306,-4.3264,-4.5185,-4.5289,-4.5903,-4.7264,-4.7309,-4.7309,-4.7309,-4.7309,-4.7309,-4.7309,-4.7309,-4.7309,-4.7309,-4.7309,-4.7309,-4.7309,-4.7309,-4.7309,-4.7309,-4.7309,-4.7309,-4.7219,-4.6381,-4.5753,-4.52,-4.4362,-4.3708,-4.329,0.0,0.0,0.0,0.0,0.0,0.0,0.0,0.0,0.0,0.0,0.0,0.0,0.0,0.0,0.0,0.0,0.0,0.0,0.0,-1.4494,-1.5522,-1.66,-1.7144,-1.777,-1.8549,-1.9287,-1.9867,-2.0237,-2.0706,-2.1111,-2.1455,-2.1739,-2.2039,-2.2353,-2.2637,-2.2772,-2.2772,-2.2772,-2.2981,0.0,0.0,-2.2024,-2.2218,-2.1201,-2.0587,-2.0258,0.0,0.0,0.0,0.0,0.0,-2.4657,-2.5615,-2.7275,-2.9041,-3.0028,0.0,-3.3155,-3.4113,-3.4936,-3.5504,-3.5504,-3.5504,-3.5175,-3.3903,-3.332,-3.2362,-2.9879,-2.8786,0.0,0.0,0.0,0.0,0.0,0.0,0.0,-3.7749,-3.9125,-3.9933,0.0,-4.101,0.0,-4.1294,-4.2192,-4.2776,0.0,-4.2776,-4.3524,-4.52,-4.5289,-4.5903,-4.7264,-4.7309,-4.7309,-4.7309,-4.7309,-4.7309,-4.7309,-4.7309,-4.7309,-4.7309,-4.7309,-4.7309,-4.7309,0.0,-4.7309,-4.7309,-4.7309,-4.7309,-4.7204,-4.6247,-4.5633,-4.5185,-4.4227,-4.3604,-4.329,0.0,0.0,0.0,0.0,0.0,0.0,0.0,0.0,0.0,0.0,0.0,0.0,0.0,0.0,0.0,0.0,0.0,0.0,0.0,0.0,0.0,-1.5166,-1.4836,-1.5338,-1.6845,-1.7028,-1.7106,-1.7106,0.0,-1.8568,-1.8583,-1.9151,-1.975,-2.0329,-2.0917,-2.1171,-2.1171,-2.1171,-2.1216,-2.1246,-2.0677,-2.0479,-2.0513,0.0,0.0,0.0,0.0,0.0,0.0,0.0,-2.5277,-2.6363,-2.7705,-2.9445,-3.1255,-3.2422,-3.3245,-3.4023,-3.519,-3.5504,-3.5504,-3.5504,-3.5429,-3.4846,-3.2841,-3.2183,-3.0911,-2.7111,0.0,-2.5503,-2.3565,-2.5001,-2.7096,-2.9022,0.0,-3.4412,-3.7045,-3.8646,-3.9798,-4.0442,-4.1722,-4.253,-4.253,-4.3,-4.329,-4.329,-4.329,-4.3828,-4.5095,-4.517,-4.5783,-4.713,-4.7249,-4.7309,-4.7309,-4.7309,-4.7309,-4.7309,-4.7309,-4.7309,-4.7309,-4.7309,-4.7309,-4.7309,0.0,0.0,-4.7309,-4.7309,-4.7309,-4.7174,-4.5828,-4.5289,-4.514,-4.3783,-4.329,-4.329,0.0,0.0,0.0,0.0,0.0,0.0,0.0,0.0,0.0,0.0,-1.066,-1.1296,0.0,0.0,0.0,0.0,0.0,0.0,0.0,0.0,0.0,-1.4587,-1.5082,-1.546,-1.577,0.0,0.0,0.0,0.0,0.0,-1.7878,-1.7997,-1.8117,-1.8237,-1.8341,-1.8386,-1.8386,-1.8386,-1.8715,-1.9211,-1.9091,-1.9375,-1.9872,0.0,0.0,0.0,0.0,0.0,0.0,0.0,-2.6527,-2.9116,-3.0432,-3.2198,-3.386,-3.4099,-3.4622,-3.5205,-3.5444,-3.5504,-3.5504,-3.5504,-3.507,-3.4143,-3.2123,-3.0419,0.0,0.0,-2.4103,-2.2942,-2.147,-2.3714,0.0,-2.7705,0.0,0.0,0.0,0.0,-4.0472,0.0,0.0,0.0,0.0,0.0,0.0,0.0,0.0,0.0,-4.4451,-4.4481,-4.5095,-4.6456,-4.7025,-4.7309,-4.7309,-4.7309,-4.7309,-4.7309,-4.7309,-4.7309,-4.7309,-4.7309,-4.7309,-4.7309,0.0,0.0,-4.7309,-4.7309,-4.7309,-4.7174,-4.5828,-4.5289,-4.514,-4.3783,-4.329,-4.329,0.0,0.0,0.0,0.0,0.0,0.0,0.0,-0.9116,-0.9855,-1.0869,-1.1669,-1.1897,-1.1305,-1.0999,-1.0784,0.0,0.0,0.0,0.0,0.0,0.0,0.0,0.0,-1.4413,0.0,0.0,0.0,0.0,0.0,0.0,0.0,0.0,0.0,0.0,0.0,0.0,0.0,0.0,0.0,0.0,0.0,0.0,0.0,0.0,0.0,0.0,0.0,0.0,0.0,0.0,-2.5585,-2.8427,-3.0763,-3.2647,-3.4038,-3.4414,-3.4743,-3.5055,-3.5415,-3.5504,-3.5504,-3.5504,-3.4726,-3.3275,-3.0612,0.0,0.0,0.0,-2.2078,-2.135,-2.0363,0.0,0.0,0.0,0.0,0.0,0.0,0.0,0.0,0.0,0.0,0.0,0.0,0.0,0.0,0.0,0.0,0.0,-4.4272,-4.4631,-4.5289,-4.6249,-4.6636,-4.6965,-4.7309,-4.7309,-4.7309,-4.7309,-4.7309,-4.7309,-4.7309,-4.7309,-4.7309,-4.7309,-4.7309,0.0,-4.7309,-4.7309,-4.71,-4.6696,-4.5693,-4.5095,-4.4661,-4.3648,-4.329,-4.329,0.0,0.0,0.0,0.0,0.0,0.0,0.0,-0.9436,-1.0133,-1.1856,-1.2507,-1.2418,-1.1407,-1.0965,-1.0623,0.0,0.0,0.0,0.0,0.0,0.0,0.0,0.0,0.0,0.0,0.0,0.0,0.0,0.0,0.0,0.0,0.0,0.0,0.0,0.0,0.0,0.0,0.0,0.0,0.0,0.0,0.0,0.0,0.0,0.0,0.0,0.0,0.0,0.0,0.0,-2.3961,-2.6258,-2.9119,-3.1421,-3.32,-3.3858,-3.4279,-3.4653,-3.5325,-3.5504,-3.5504,-3.5504,-3.4382,-3.2467,-2.9325,-2.7335,0.0,0.0,-2.0583,-2.0318,-1.9813,0.0,0.0,0.0,0.0,0.0,0.0,0.0,0.0,0.0,0.0,0.0,0.0,0.0,0.0,0.0,0.0,0.0,0.0,-4.4721,-4.5334,-4.5831,-4.5995,-4.6426,-4.7085,-4.71,-4.7174,-4.7309,-4.7309,-4.7309,-4.7309,-4.7309,-4.7309,-4.7309,-4.7309,0.0,0.0,-4.71,-4.6696,-4.6037,-4.5349,-4.4766,-4.4242,-4.3544,-4.329,-4.329,0.0,0.0,0.0,0.0,0.0,0.0,0.0,-0.9541,-1.046,-1.2134,-1.2411,-1.2225,-1.1635,-1.1748,-1.1339,0.0,0.0,0.0,0.0,0.0,0.0,0.0,0.0,0.0,0.0,0.0,0.0,0.0,0.0,0.0,0.0,0.0,0.0,0.0,0.0,0.0,0.0,0.0,0.0,0.0,0.0,0.0,0.0,0.0,0.0,0.0,0.0,0.0,0.0,0.0,0.0,-2.3317,-2.4769,-2.8207,-3.1809,-3.2497,0.0,0.0,-3.5325,-3.5504,-3.5504,-3.5504,-3.4038,-3.1898,-2.922,0.0,0.0,-2.1256,-2.0213,-1.9783,-1.9708,-2.0348,0.0,0.0,0.0,-2.9007,0.0,0.0,0.0,0.0,0.0,0.0,0.0,0.0,0.0,0.0,0.0,0.0,0.0,-4.4047,-4.4436,-4.4496,-4.508,-4.5723,-4.6369,-4.6369,-4.6711,-4.7309,-4.7309,-4.7309,-4.7309,-4.7309,-4.7309,-4.7309,0.0,0.0,0.0,-4.6369,-4.6007,-4.5334,-4.4661,-4.4362,-4.4242,-4.3544,-4.329,-4.329,0.0,0.0,0.0,0.0,0.0,0.0,-0.8849,-0.9277,-1.0145,-1.214,-1.2689,-1.2689,-1.214,-1.2174,-1.1608,-1.0044,0.0,0.0,0.0,0.0,0.0,0.0,0.0,0.0,0.0,0.0,0.0,0.0,0.0,0.0,0.0,0.0,0.0,0.0,0.0,0.0,0.0,0.0,0.0,0.0,0.0,0.0,0.0,0.0,0.0,0.0,0.0,0.0,0.0,0.0,0.0,0.0,-2.2093,-2.4126,0.0,0.0,-3.1674,-3.3021,-3.4487,-3.519,-3.54,-3.4996,-3.3395,-3.1092,-2.8083,0.0,-2.3266,-2.0632,-1.9902,-1.9708,-1.9708,-1.9914,-2.0842,-2.3086,-2.3796,-2.5443,-2.9397,0.0,0.0,0.0,0.0,0.0,0.0,0.0,0.0,0.0,0.0,0.0,0.0,-4.3544,-4.3858,-4.4302,-4.4571,-4.502,-4.5693,-4.5708,-4.5843,-4.6097,-4.6097,-4.6097,-4.6097,-4.6097,-4.6097,-4.6097,0.0,0.0,0.0,-4.5708,-4.5304,-4.4676,-4.4407,-4.4062,-4.3648,-4.3394,-4.329,-4.329,0.0,0.0,0.0,0.0,0.0,-0.7109,-0.8624,-0.8988,-0.9767,-1.1648,-1.2388,-1.2588,-1.22,-1.1999,-1.1422,-1.0231,-0.9993,0.0,0.0,0.0,0.0,0.0,0.0,0.0,0.0,0.0,0.0,0.0,0.0,0.0,0.0,0.0,0.0,0.0,0.0,0.0,0.0,0.0,0.0,0.0,0.0,0.0,0.0,0.0,0.0,0.0,0.0,0.0,0.0,0.0,0.0,0.0,0.0,0.0,0.0,0.0,-2.9501,-3.1128,-3.308,-3.4247,-3.4801,-3.4307,-3.2557,-3.0193,0.0,-2.4896,-2.2637,-2.0202,-1.9708,-1.9708,-1.9708,-1.9708,-2.0232,-2.1864,-2.2188,-2.3505,-2.7091,0.0,0.0,0.0,0.0,0.0,0.0,0.0,0.0,0.0,0.0,0.0,0.0,-4.329,-4.3499,-4.4003,-4.4018,-4.4347,-4.5005,-4.5005,-4.5095,-4.5289,-4.5289,-4.5289,-4.5289,-4.5289,-4.5289,0.0,0.0,0.0,0.0,-4.5005,-4.4616,-4.4018,-4.4018,-4.3708,-4.329,-4.329,-4.329,-4.329,0.0,0.0,0.0,0.0,0.0,0.0,-0.8125,-0.8762,-0.9491,-1.0582,-1.1236,-1.1615,-1.1615,-1.1071,-1.0706,-1.0681,-1.0219,0.0,0.0,0.0,0.0,0.0,0.0,0.0,0.0,0.0,0.0,-1.4091,0.0,0.0,0.0,0.0,0.0,0.0,0.0,0.0,0.0,0.0,0.0,0.0,0.0,0.0,0.0,0.0,0.0,0.0,0.0,0.0,0.0,0.0,0.0,0.0,0.0,0.0,0.0,0.0,-2.7155,-2.9224,-3.1052,-3.2512,-3.3514,-3.3499,-3.1539,-2.9097,0.0,-2.459,-2.2134,-2.0127,-1.9708,-1.9708,-1.9708,-1.9708,-1.9914,-2.0598,-2.2338,-2.4507,-2.7225,0.0,0.0,0.0,0.0,0.0,0.0,0.0,0.0,0.0,0.0,0.0,0.0,0.0,-4.329,-4.3305,-4.3305,-4.3618,-4.4317,-4.4332,-4.4646,-4.5289,-4.5289,-4.5289,-4.5289,-4.5289,0.0,0.0,0.0,0.0,0.0,-4.4332,-4.3943,-4.3305,-4.3305,-4.3305,-4.329,-4.329,-4.329,-4.329,0.0,0.0,0.0,0.0,0.0,0.0,0.0,-0.7839,-0.8338,-0.9466,-0.9767,-1.017,-1.0896,-1.0482,-1.0294,-1.0669,-1.0206,0.0,0.0,0.0,0.0,0.0,0.0,0.0,0.0,0.0,-1.3909,-1.4103,-1.4821,-1.5228,0.0,0.0,0.0,0.0,0.0,0.0,0.0,0.0,0.0,0.0,0.0,0.0,0.0,0.0,0.0,0.0,0.0,0.0,0.0,0.0,0.0,0.0,0.0,0.0,0.0,-2.0514,-2.3207,0.0,-2.6757,-2.8242,-2.9168,-2.8001,-2.728,-2.6275,-2.3922,-2.2674,-2.158,-2.0022,-1.9708,-1.9708,-1.9708,-1.9708,-2.0498,-2.296,-2.3872,-2.5217,0.0,0.0,0.0,0.0,0.0,0.0,0.0,0.0,0.0,0.0,0.0,0.0,0.0,0.0,-4.329,-4.329,-4.329,-4.3394,-4.3604,-4.3604,-4.3708,-4.3917,-4.3917,-4.3917,-4.3917,-4.3917,0.0,0.0,0.0,0.0,0.0,-4.3604,-4.3484,-4.329,-4.329,-4.329,-4.321,-4.2412,-4.2629,-4.321,0.0,0.0,0.0,0.0,0.0,0.0,0.0,-0.7269,-0.7653,-0.8374,-0.8661,-0.9127,-1.0006,-0.9792,-0.9805,-1.0344,-1.0081,0.0,0.0,0.0,0.0,0.0,0.0,0.0,0.0,-1.3275,-1.377,-1.44,-1.506,-1.5557,-1.5865,-1.5569,-1.5417,0.0,0.0,0.0,0.0,0.0,0.0,0.0,0.0,0.0,0.0,0.0,0.0,0.0,0.0,0.0,0.0,0.0,0.0,0.0,0.0,0.0,0.0,0.0,-1.9687,-2.1817,0.0,-2.5052,-2.5979,-2.4883,-2.446,-2.3864,-2.2265,-2.1445,-2.072,-1.9609,-1.9566,-1.9639,-1.9442,-1.9566,-2.0382,-2.2428,-2.3379,0.0,0.0,0.0,0.0,0.0,0.0,0.0,0.0,0.0,0.0,0.0,0.0,0.0,0.0,0.0,-4.329,-4.329,-4.329,-4.329,-4.329,-4.329,-4.329,-4.329,-4.329,-4.329,-4.329,0.0,0.0,0.0,0.0,0.0,0.0,-4.286,-4.2684,-4.2603,-4.2167,-4.2003,-4.192,-4.1225,-4.1393,-4.192,0.0,0.0,0.0,0.0,0.0,0.0,0.0,-0.7028,-0.7344,-0.7344,-0.7826,-0.8386,-0.8913,-0.8987,-0.9214,-0.9792,0.0,0.0,0.0,0.0,0.0,0.0,0.0,0.0,-1.2391,-1.2438,-1.3257,-1.4896,-1.4934,-1.55,-1.6509,-1.6329,-1.5977,-1.544,0.0,0.0,0.0,0.0,0.0,0.0,0.0,0.0,0.0,0.0,0.0,0.0,0.0,0.0,0.0,0.0,0.0,0.0,0.0,0.0,0.0,0.0,0.0,0.0,0.0,-2.2608,0.0,-2.3476,-2.2632,-2.1752,-2.1621,-2.0629,0.0,-1.9022,-1.9299,-1.9527,-1.9174,-1.9472,-1.9872,-2.0157,0.0,0.0,0.0,0.0,0.0,0.0,0.0,0.0,0.0,0.0,0.0,0.0,0.0,0.0,0.0,0.0,0.0,-4.3155,-4.3155,-4.32,-4.329,-4.329,-4.329,-4.329,-4.321,-4.317,-4.317,0.0,0.0,0.0,0.0,0.0,0.0,-4.1906,-4.1462,-4.1378,-4.0318,-3.9899,-3.9899,-3.9812,-3.9812,-3.9899,0.0,0.0,0.0,0.0,0.0,0.0,0.0,0.0,0.0,0.0,-0.6912,-0.72,-0.7751,-0.7801,-0.82,0.0,0.0,0.0,0.0,0.0,0.0,0.0,0.0,0.0,-1.2391,-1.2801,-1.3629,-1.4896,-1.5311,-1.5856,-1.6488,-1.6048,-1.5551,-1.5031,-1.4792,-1.4634,0.0,0.0,0.0,0.0,0.0,0.0,0.0,0.0,0.0,0.0,0.0,0.0,0.0,0.0,0.0,0.0,0.0,0.0,0.0,0.0,-1.5676,-1.6254,-1.7002,0.0,-1.9355,-1.8479,-1.8639,-1.8921,0.0,-1.8439,-1.8602,-1.8846,-1.9006,-1.9495,-2.0793,-2.0735,-2.1455,0.0,0.0,0.0,0.0,0.0,0.0,0.0,0.0,0.0,0.0,0.0,0.0,0.0,0.0,0.0,0.0,0.0,0.0,-4.1848,-4.1848,-4.2312,-4.329,-4.329,-4.329,-4.329,-4.2412,-4.1988,-4.1988,0.0,0.0,0.0,0.0,0.0,-4.0675,-4.0418,-4.0275,-4.0275,-3.9986,-3.9899,-3.9768,-3.8872,-3.9094,-3.9768,0.0,0.0,0.0,0.0,0.0,0.0,0.0,0.0,0.0,0.0,0.0,0.0,0.0,0.0,0.0,0.0,0.0,0.0,0.0,0.0,0.0,0.0,0.0,-1.0858,-1.2015,-1.2312,-1.327,-1.4896,-1.5185,-1.5731,-1.6488,-1.6187,-1.5643,-1.4878,-1.4282,-1.3968,0.0,0.0,0.0,0.0,0.0,0.0,0.0,0.0,0.0,0.0,0.0,-1.3943,0.0,-1.4467,-1.5009,-1.5643,0.0,0.0,0.0,0.0,-1.511,-1.5399,-1.563,-1.6744,-1.7676,-1.7074,-1.7342,-1.7763,-1.7721,-1.7704,-1.7887,-1.8419,0.0,0.0,0.0,0.0,0.0,0.0,0.0,0.0,0.0,0.0,0.0,0.0,0.0,0.0,0.0,0.0,0.0,0.0,0.0,0.0,0.0,0.0,0.0,0.0,-4.1422,-4.1863,-4.288,-4.2895,-4.3045,-4.329,-4.2152,-4.1587,-4.1545,0.0,0.0,0.0,0.0,0.0,-3.9855,-3.9316,-3.905,-3.9006,-3.8482,-3.8315,-3.8211,-3.7553,-3.7723,-3.8225,0.0,0.0,0.0,0.0,0.0,0.0,0.0,0.0,0.0,0.0,0.0,0.0,0.0,0.0,0.0,0.0,0.0,0.0,0.0,0.0,0.0,0.0,0.0,-1.047,-1.1703,-1.164,-1.2684,-1.4896,-1.4896,-1.5412,-1.6375,-1.645,-1.5932,-1.4846,-1.381,-1.3303,0.0,0.0,0.0,0.0,0.0,0.0,0.0,0.0,0.0,0.0,0.0,0.0,0.0,-1.4481,-1.506,-1.5563,-1.5367,0.0,0.0,0.0,0.0,0.0,-1.5517,-1.6584,-1.7486,-1.7322,-1.7335,-1.7485,-1.7857,0.0,0.0,0.0,0.0,0.0,0.0,0.0,0.0,0.0,0.0,0.0,0.0,0.0,0.0,0.0,0.0,0.0,0.0,0.0,0.0,0.0,0.0,0.0,0.0,0.0,0.0,0.0,-4.1085,-4.1346,-4.1835,-4.1939,-4.2233,-4.2617,-4.1398,-4.087,-4.0886,-3.9733,0.0,0.0,0.0,0.0,-3.9285,-3.8243,-3.7848,-3.7756,-3.6803,-3.6405,-3.6405,-3.6317,-3.6279,-3.6267,0.0,0.0,0.0,0.0,0.0,0.0,0.0,0.0,0.0,0.0,0.0,0.0,0.0,0.0,0.0,0.0,0.0,0.0,0.0,0.0,0.0,-0.9905,-0.9905,-1.0646,-1.2241,-1.1826,-1.2684,-1.4896,-1.4896,-1.5223,-1.5831,-1.6296,-1.5932,-1.4859,-1.4236,-1.369,-1.3198,0.0,0.0,0.0,0.0,0.0,0.0,0.0,0.0,0.0,0.0,0.0,0.0,-1.3423,-1.4161,-1.4859,-1.3892,0.0,0.0,0.0,0.0,0.0,-1.5437,-1.6861,-1.7852,-1.6864,-1.7024,-1.7295,-1.6869,-1.7036,0.0,0.0,0.0,0.0,0.0,0.0,0.0,0.0,0.0,0.0,0.0,0.0,0.0,0.0,0.0,0.0,0.0,0.0,0.0,0.0,0.0,0.0,0.0,0.0,0.0,0.0,0.0,-3.9587,-3.9339,-3.9929,-4.0,-3.9634,-3.8022,-3.7504,-3.7943,-3.6703,-3.6195,0.0,0.0,-3.6943,-3.6943,-3.6722,-3.6675,-3.6628,-3.6452,-3.6405,-3.6355,-3.5843,-3.5621,-3.5558,0.0,0.0,0.0,0.0,0.0,0.0,0.0,0.0,0.0,0.0,0.0,0.0,0.0,0.0,0.0,0.0,0.0,0.0,0.0,0.0,0.0,-1.0306,-1.0331,-1.0983,-1.2363,-1.2438,-1.3408,-1.5336,-1.5336,-1.5613,-1.6132,-1.5781,-1.5374,-1.4859,-1.4004,-1.3453,-1.3198,-1.3198,0.0,0.0,0.0,0.0,0.0,0.0,0.0,0.0,0.0,0.0,0.0,0.0,-1.3961,-1.4765,-1.3941,0.0,0.0,0.0,0.0,0.0,-1.4607,-1.5827,-1.6873,-1.6961,-1.8102,-1.9032,-1.843,-1.8469,-1.8841,0.0,0.0,0.0,0.0,0.0,0.0,0.0,0.0,0.0,0.0,0.0,0.0,0.0,0.0,0.0,0.0,0.0,0.0,0.0,0.0,0.0,0.0,0.0,0.0,0.0,0.0,0.0,-3.6573,-3.6903,-3.7551,-3.8546,-3.7187,-3.6611,-3.6832,-3.5608,-3.5056,-3.5069,0.0,-3.5479,-3.5479,-3.5479,-3.5479,-3.5479,-3.5479,-3.5479,-3.5441,-3.519,-3.5056,-3.5019,0.0,0.0,0.0,0.0,0.0,0.0,0.0,0.0,0.0,0.0,0.0,0.0,0.0,0.0,0.0,0.0,0.0,0.0,0.0,0.0,-0.9466,-1.0294,-1.0695,-1.1497,-1.2768,-1.3065,-1.4018,-1.5693,-1.5693,-1.5969,-1.6475,-1.5517,-1.5009,-1.4865,-1.386,-1.3328,-1.3198,-1.3198,-1.3198,0.0,0.0,0.0,0.0,0.0,0.0,0.0,0.0,0.0,0.0,0.0,0.0,0.0,0.0,0.0,0.0,-1.3672,-1.3315,-1.3391,-1.423,-1.516,-1.6132,-1.7159,-1.868,-1.9937,-1.9987,-2.0169,-2.0613,0.0,0.0,0.0,0.0,0.0,0.0,0.0,0.0,0.0,0.0,0.0,0.0,0.0,0.0,0.0,0.0,0.0,0.0,0.0,0.0,0.0,0.0,0.0,0.0,0.0,0.0,0.0,-3.4705,-3.4705,-3.554,-3.7175,-3.6178,-3.5774,-3.5861,-3.4946,-3.4525,-3.4537,-3.4663,-3.468,-3.468,-3.468,-3.468,-3.468,-3.468,-3.4638,-3.4525,-3.4525,-3.4449,-3.4336,0.0,0.0,0.0,0.0,0.0,0.0,0.0,0.0,0.0,0.0,0.0,0.0,0.0,0.0,0.0,0.0,0.0,0.0,0.0,0.0,-0.9138,-0.9214,-1.071,-1.2294,-1.3952,-1.3471,-1.4018,-1.5693,-1.5693,-1.5969,-1.6488,-1.5906,-1.5387,-1.4859,-1.4286,-1.3727,-1.3198,-1.3198,-1.3198,-1.3198,0.0,0.0,0.0,0.0,0.0,0.0,0.0,0.0,0.0,0.0,0.0,0.0,0.0,0.0,-1.4141,-1.4065,-1.3634,-1.3554,-1.5153,-1.6007,-1.6609,-1.7247,-1.7524,-1.8165,-2.0176,-2.1304,0.0,-2.2204,0.0,0.0,0.0,0.0,0.0,0.0,0.0,0.0,0.0,0.0,0.0,0.0,0.0,0.0,0.0,0.0,0.0,0.0,0.0,0.0,0.0,0.0,0.0,0.0,0.0,0.0,-3.4705,-3.4705,-3.4533,-3.4199,-3.3593,-3.3631,-3.4079,-3.4004,-3.396,-3.3985,-3.45,-3.468,-3.468,-3.468,-3.468,-3.468,-3.468,-3.4412,-3.396,-3.396,-3.3633,-3.3237,0.0,0.0,0.0,0.0,0.0,0.0,0.0,0.0,0.0,0.0,0.0,0.0,0.0,0.0,0.0,0.0,0.0,0.0,0.0,-0.815,-0.89,-0.9579,-1.0521,-1.1676,-1.3011,-1.3835,-1.489,-1.6208,-1.5856,-1.5806,-1.5982,-1.511,-1.4601,-1.4374,-1.3803,-1.3403,-1.3198,-1.3198,-1.2998,-1.2701,-1.2701,0.0,0.0,0.0,0.0,0.0,0.0,0.0,0.0,0.0,-1.2171,-1.3135,-1.2814,-1.335,-1.4022,-1.3647,-1.3378,-1.3336,-1.398,-1.5296,-1.6638,-1.726,-1.8141,0.0,0.0,-2.2272,-2.3623,-2.4783,-2.6624,0.0,0.0,0.0,0.0,0.0,0.0,0.0,0.0,0.0,0.0,0.0,0.0,0.0,0.0,0.0,0.0,0.0,0.0,0.0,0.0,0.0,0.0,0.0,0.0,0.0,0.0,-3.3162,-3.3216,-3.3382,-3.3224,-3.3224,-3.3382,-3.3382,-3.3382,-3.3395,-3.3608,-3.3709,-3.3709,-3.3709,-3.3709,-3.3709,-3.3709,-3.3571,-3.3382,-3.3382,-3.3257,-3.3124,0.0,0.0,0.0,0.0,0.0,0.0,0.0,0.0,0.0,0.0,0.0,0.0,0.0,0.0,0.0,0.0,0.0,0.0,-0.7128,-0.7688,-0.835,-0.9078,-0.9968,-1.0896,-1.1836,-1.3509,-1.4833,-1.5731,-1.553,-1.5449,-1.5437,-1.4525,-1.4191,-1.4311,-1.3529,-1.3315,-1.3453,-1.3102,-1.2739,-1.2391,-1.2228,-1.156,0.0,0.0,0.0,0.0,0.0,0.0,0.0,0.0,-1.1457,-1.2409,-1.24,-1.2948,-1.3539,-1.3496,-1.3483,-1.3534,-1.3679,-1.4977,-1.6434,-1.7222,0.0,0.0,-2.1907,-2.356,-2.5159,-2.6808,-2.8206,0.0,0.0,0.0,0.0,0.0,0.0,0.0,0.0,0.0,0.0,0.0,0.0,0.0,0.0,0.0,0.0,0.0,0.0,0.0,0.0,0.0,0.0,0.0,0.0,0.0,0.0,-3.1951,-3.2152,-3.2596,-3.2717,-3.2905,-3.3124,-3.3124,-3.3124,-3.3124,-3.3124,-3.3124,-3.3124,-3.3124,-3.3124,-3.3124,-3.3124,-3.3124,-3.3124,-3.3124,-3.3124,-3.3124,0.0,0.0,0.0,0.0,0.0,0.0,0.0,0.0,0.0,0.0,0.0,0.0,0.0,0.0,0.0,0.0,0.0,0.0,-0.6599,-0.7103,-0.7406,-0.7406,-0.9002,-1.0131,-1.0681,-1.2321,-1.3483,-1.4103,-1.4626,-1.4871,-1.4859,-1.4337,-1.4374,-1.4833,-1.3704,-1.3534,-1.4015,-1.2881,-1.24,-1.2354,-1.1814,-1.1236,0.0,0.0,0.0,0.0,0.0,0.0,0.0,0.0,-1.0708,-1.0908,-1.2037,-1.24,-1.263,-1.3758,-1.4103,-1.4229,-1.4752,-1.5299,-1.5994,0.0,0.0,0.0,-2.3376,-2.5151,-2.6577,-2.786,-2.8831,-2.9696,-3.0643,0.0,0.0,0.0,0.0,0.0,0.0,0.0,0.0,0.0,0.0,0.0,0.0,0.0,0.0,0.0,0.0,0.0,0.0,0.0,0.0,0.0,0.0,0.0,0.0,-3.1386,-3.1386,-3.1399,-3.1938,-3.2503,-3.3111,-3.3124,-3.3124,-3.3124,-3.3124,-3.3124,-3.3124,-3.3124,-3.3124,-3.3124,-3.3124,-3.3124,-3.3124,-3.3124,-3.3124,-3.3124,0.0,0.0,0.0,0.0,0.0,0.0,0.0,0.0,0.0,0.0,0.0,0.0,0.0,0.0,0.0,0.0,0.0,0.0,-0.6599,-0.7103,-0.7591,-0.8024,-0.8875,-0.9591,-1.0131,-1.0996,-1.2316,-1.4103,-1.3822,-1.3704,-1.3704,-1.3529,-1.3541,-1.3704,-1.379,-1.3488,-1.2881,-1.2542,-1.219,-1.1814,-1.1666,-1.1236,0.0,0.0,0.0,0.0,0.0,0.0,0.0,0.0,0.0,0.0,-1.16,-1.2366,-1.304,-1.3366,-1.4042,-1.4614,-1.4387,-1.5864,0.0,-1.8355,0.0,0.0,0.0,-2.58,0.0,0.0,-3.0659,-3.1019,0.0,0.0,0.0,0.0,0.0,0.0,0.0,0.0,0.0,0.0,0.0,0.0,0.0,0.0,0.0,0.0,0.0,0.0,0.0,0.0,0.0,0.0,0.0,0.0,0.0,0.0,-3.1035,-3.1386,-3.1549,-3.1926,-3.2478,-3.2893,-3.3124,-3.3124,-3.3124,-3.3124,-3.3124,-3.3124,-3.3124,-3.3124,-3.3124,-3.3124,-3.3124,-3.3124,-3.3124,-3.3124,0.0,0.0,0.0,0.0,0.0,0.0,0.0,0.0,0.0,0.0,0.0,0.0,0.0,0.0,0.0,0.0,0.0,0.0,0.0,-0.6903,-0.7341,-0.7914,-0.8487,-0.9239,-1.0193,-1.0532,-1.136,-1.2747,-1.263,-1.2676,-1.2902,-1.3098,-1.3328,-1.3571,-1.3946,-1.3594,-1.2689,-1.225,-1.1889,-1.159,-1.1337,-1.1021,-1.0694,0.0,0.0,0.0,0.0,0.0,0.0,0.0,0.0,0.0,-1.106,-1.1685,-1.2334,-1.301,-1.386,-1.4651,-1.4979,-1.6584,0.0,-1.9698,-2.1553,-2.371,-2.6063,0.0,0.0,0.0,0.0,0.0,0.0,0.0,0.0,0.0,0.0,0.0,0.0,0.0,0.0,0.0,0.0,0.0,0.0,0.0,0.0,0.0,0.0,0.0,0.0,0.0,0.0,0.0,0.0,0.0,0.0,0.0,-3.0444,-3.0758,-3.0984,-3.1248,-3.1599,-3.2152,-3.2403,-3.2403,-3.2403,-3.2403,-3.2403,-3.2403,-3.2528,-3.2729,-3.2729,-3.288,-3.3124,-3.3124,-3.3124,-3.3124,0.0,0.0,0.0,0.0,0.0,0.0,0.0,0.0,0.0,0.0,-0.6599,0.0,0.0,0.0,0.0,0.0,0.0,0.0,0.0,0.0,-0.6865,-0.7456,-0.8112,-0.9128,-1.0607,-1.0582,-1.0582,-1.0632,-1.1224,-1.1789,-1.2341,-1.2889,-1.3446,-1.4009,-1.4009,-1.3664,-1.3002,-1.1964,-1.1527,-1.1462,-1.0921,-1.0694,-1.0694,-1.0694,0.0,0.0,0.0,0.0,0.0,0.0,0.0,0.0,-1.0532,-1.0745,-1.1096,-1.2659,-1.3609,-1.45,-1.6019,0.0,0.0,-2.1016,-2.2548,0.0,0.0,0.0,0.0,0.0,0.0,0.0,0.0,0.0,0.0,0.0,0.0,0.0,0.0,0.0,0.0,0.0,0.0,0.0,0.0,0.0,0.0,0.0,0.0,0.0,0.0,0.0,0.0,0.0,0.0,0.0,0.0,-2.9792,-2.9792,0.0,-3.0306,-3.0545,-3.0557,-3.1135,-3.1386,-3.1386,-3.1386,-3.1386,-3.1386,-3.1386,-3.1687,-3.2139,-3.2139,-3.2453,-3.2973,-3.2973,-3.2973,-3.293,0.0,0.0,0.0,0.0,0.0,0.0,0.0,0.0,0.0,0.0,0.0,0.0,0.0,0.0,0.0,0.0,0.0,0.0,0.0,0.0,-0.705,-0.8062,-0.9039,-0.9717,-1.0056,-0.9654,-0.9642,-1.0068,-1.062,-1.1184,-1.1776,-1.2312,-1.2864,-1.3391,-1.3391,-1.2852,-1.1902,-1.1184,-1.0896,-1.0883,-1.0744,-1.0694,-1.0694,-1.0694,-1.0369,0.0,0.0,0.0,0.0,0.0,0.0,0.0,-1.0532,-1.1021,-1.1563,-1.2337,-1.3596,-1.4903,-1.5655,-1.7325,0.0,0.0,-2.428,-2.6578,0.0,0.0,0.0,0.0,0.0,0.0,0.0,0.0,0.0,0.0,0.0,0.0,0.0,0.0,0.0,0.0,0.0,0.0,0.0,0.0,0.0,0.0,0.0,0.0,0.0,0.0,0.0,0.0,0.0,0.0,-2.9792,-2.9792,-2.9792,0.0,-2.9917,-2.9967,-2.9993,-3.0947,-3.1386,-3.1386,-3.1386,-3.1386,-3.1386,-3.1386,-3.1461,-3.1574,-3.1574,-3.1637,-3.175,-3.175,-3.175,-3.1813,0.0,0.0,0.0,0.0,0.0,0.0,0.0,0.0,0.0,0.0,0.0,0.0,0.0,0.0,0.0,0.0,0.0,0.0,0.0,-0.6599,-0.6975,-0.7839,-0.8926,-0.9391,-0.914,-0.9114,-0.9239,-0.9516,-0.9792,-1.0522,-1.1628,-1.2709,-1.3363,-1.3622,-1.3622,-1.3006,-1.1927,-1.1071,-1.0694,-1.0694,-1.0694,-1.0694,-1.0694,-1.0694,-1.0369,-0.9905,-0.9905,0.0,0.0,0.0,0.0,0.0,0.0,0.0,-1.0947,-1.1776,-1.2994,-1.4325,-1.5404,0.0,0.0,-2.2824,0.0,0.0,0.0,0.0,0.0,0.0,0.0,0.0,0.0,0.0,0.0,0.0,0.0,0.0,0.0,0.0,0.0,0.0,0.0,0.0,0.0,0.0,0.0,0.0,0.0,0.0,0.0,0.0,0.0,0.0,0.0,0.0,-2.9792,-2.9792,-2.9792,-2.9792,-2.9792,-2.9792,-2.9817,-3.0369,-3.062,-3.062,-3.062,-3.062,-3.062,-3.062,-3.0783,-3.1022,-3.1022,-3.1173,-3.1386,-3.1386,-3.1386,-3.1436,0.0,0.0,0.0,0.0,0.0,0.0,0.0,0.0,0.0,0.0,0.0,0.0,0.0,0.0,0.0,0.0,0.0,0.0,0.0,-0.666,-0.694,-0.7381,-0.8411,-0.8749,-0.8311,-0.8625,-0.89,-0.91,-0.91,-1.0006,-1.1779,-1.3166,-1.3909,-1.4103,-1.3984,-1.3312,-1.219,-1.1046,-1.0519,-1.0419,-1.0318,-1.0294,-1.0306,-1.0394,-1.0143,-0.9767,-0.9868,-0.9905,-0.9905,-0.9905,0.0,0.0,0.0,0.0,-1.0106,-1.1136,-1.2212,-1.3373,-1.4877,0.0,-2.0539,-2.3584,-2.4996,0.0,0.0,0.0,0.0,0.0,0.0,0.0,0.0,0.0,0.0,0.0,0.0,0.0,0.0,0.0,0.0,0.0,0.0,0.0,0.0,0.0,0.0,0.0,0.0,0.0,0.0,0.0,0.0,0.0,0.0,-2.9792,-2.9792,-2.9792,-2.9792,-2.9792,-2.9792,-2.9792,-2.9792,-2.9792,-2.9792,-2.9792,-2.9792,-2.9792,-2.9792,-2.9792,-3.0068,-3.047,-3.047,-3.0733,-3.111,-3.111,-3.111,-3.1135,0.0,0.0,0.0,0.0,0.0,0.0,0.0,0.0,0.0,0.0,0.0,-0.6206,-0.6254,-0.6215,0.0,0.0,0.0,0.0,-0.6254,0.0,0.0,-0.7393,-0.8049,-0.8374,-0.8311,-0.7864,-0.8112,-0.91,-0.91,-1.0195,-1.2303,-1.2529,-1.3149,-1.4091,-1.3546,-1.2714,-1.1625,-1.0495,-0.973,-0.9265,-0.8813,-0.8614,-0.8675,-0.9139,-0.9265,-0.9265,-0.973,-0.9905,-0.9905,-0.9905,-0.9905,0.0,0.0,0.0,0.0,0.0,-1.1623,-1.2663,0.0,0.0,-2.0263,0.0,-2.413,0.0,0.0,0.0,0.0,0.0,0.0,0.0,0.0,0.0,0.0,0.0,0.0,0.0,0.0,0.0,0.0,0.0,0.0,0.0,0.0,0.0,0.0,0.0,0.0,0.0,0.0,0.0,-2.9792,-2.9792,-2.9792,-2.9792,-2.9792,-2.9792,-2.9792,-2.9792,-2.9792,-2.9792,-2.9792,-2.9792,-2.9792,-2.9792,-2.9792,-2.9792,-2.9792,-2.9792,-2.9829,-2.9905,-2.9905,-2.9942,-3.0005,-3.0005,-3.0005,-3.008,0.0,0.0,0.0,0.0,0.0,0.0,0.0,0.0,0.0,0.0,0.0,-0.6034,-0.6034,-0.5898,0.0,0.0,0.0,0.0,-0.6189,-0.6536,0.0,-0.6724,-0.7419,-0.7578,-0.713,-0.7298,-0.7641,-0.815,-0.815,-0.9604,-1.24,-1.24,-1.3333,-1.4959,-1.4092,-1.3245,-1.24,-1.0958,-0.9868,-0.9088,-0.8837,-0.9102,-0.9604,-0.9239,-0.9692,-1.0446,-1.0044,-0.9905,-0.9905,0.0,0.0,0.0,0.0,0.0,0.0,0.0,0.0,0.0,-1.4481,-1.6722,-1.907,0.0,0.0,0.0,0.0,0.0,0.0,0.0,0.0,0.0,0.0,0.0,0.0,0.0,0.0,0.0,0.0,0.0,0.0,0.0,0.0,0.0,0.0,0.0,0.0,0.0,0.0,0.0,0.0,-2.9792,-2.9792,-2.9792,-2.9792,0.0,-2.9792,-2.9792,-2.9792,-2.9792,-2.9792,-2.9792,-2.9792,-2.9792,-2.9792,-2.9792,-2.9792,-2.9792,-2.9792,-2.9792,-2.9792,-2.9792,-2.9792,-2.9792,-2.9792,-2.9792,-2.9792,-2.9829,0.0,0.0,0.0,0.0,0.0,0.0,0.0,0.0,0.0,0.0,0.0,0.0,-0.58,0.0,0.0,0.0,0.0,0.0,-0.6013,0.0,0.0,0.0,0.0,-0.6812,-0.621,-0.6846,-0.7256,-0.7406,-0.7553,-0.9266,-1.24,-1.2538,-1.3779,-1.5856,-1.4909,-1.3941,-1.2897,-1.1523,-1.0383,-0.9491,-0.9353,-0.978,-1.0457,-1.0069,-1.0709,-1.1663,-1.0684,-1.0332,0.0,0.0,0.0,0.0,0.0,0.0,0.0,0.0,0.0,0.0,0.0,0.0,-1.7461,-2.0338,0.0,0.0,0.0,0.0,0.0,0.0,0.0,0.0,0.0,0.0,0.0,0.0,0.0,0.0,0.0,0.0,0.0,0.0,0.0,0.0,0.0,0.0,0.0,0.0,0.0,0.0,-2.9792,-2.9792,-2.9792,-2.9792,-2.9792,-2.9792,-2.9792,-2.9792,-2.9792,-2.9792,-2.9792,-2.9792,-2.9792,-2.9792,-2.9792,-2.9792,-2.9792,-2.9792,-2.9792,-2.9792,-2.9792,-2.9792,-2.9792,-2.9792,-2.9792,-2.9792,-2.9792,-2.9792,0.0,0.0,0.0,0.0,0.0,0.0,0.0,0.0,0.0,0.0,0.0,0.0,-0.5521,-0.5511,-0.5396,-0.5166,0.0,0.0,0.0,0.0,0.0,0.0,0.0,0.0,-0.6198,-0.6499,-0.689,-0.7406,-0.7964,-0.9667,-1.24,-1.291,-1.4344,-1.6425,-1.5869,-1.4438,-1.24,-1.1801,-1.1186,-1.0568,-1.0069,-0.9893,-1.0106,-1.1635,-1.2275,-1.2275,-1.1728,0.0,0.0,0.0,0.0,0.0,0.0,0.0,0.0,0.0,0.0,0.0,0.0,-1.4186,0.0,0.0,0.0,0.0,0.0,0.0,0.0,0.0,0.0,0.0,0.0,0.0,0.0,0.0,0.0,0.0,0.0,0.0,0.0,0.0,0.0,0.0,0.0,0.0,0.0,0.0,0.0,0.0,-2.9792,-2.9792,-2.9792,-2.9792,-2.9792,-2.9792,-2.9792,-2.9792,-2.9792,-2.9792,-2.9792,-2.9792,-2.9792,-2.9792,-2.9792,-2.9792,-2.9792,-2.9792,-2.9792,-2.9792,-2.9792,-2.9792,-2.9792,-2.9792,-2.9792,-2.9792,-2.9792,-2.9792,0.0,0.0,0.0,0.0,0.0,0.0,0.0,0.0,0.0,0.0,0.0,0.0,0.0,-0.5243,-0.5204,-0.5108,-0.5195,0.0,0.0,0.0,0.0,0.0,0.0,0.0,0.0,-0.6395,-0.6699,-0.689,-0.71,-0.8438,-1.0809,-1.1332,-1.2413,-1.3905,-1.4777,-1.4745,-1.3928,-1.2642,0.0,0.0,0.0,-1.1412,-1.2049,-1.23,-1.3069,-1.3928,0.0,0.0,0.0,0.0,0.0,0.0,-1.0758,-1.0684,-1.0849,-1.0106,-1.042,0.0,0.0,0.0,0.0,0.0,0.0,0.0,0.0,0.0,0.0,0.0,0.0,0.0,0.0,0.0,0.0,0.0,0.0,0.0,0.0,0.0,0.0,0.0,0.0,0.0,0.0,0.0,0.0,0.0,0.0,0.0,-2.8712,-2.8712,-2.8712,-2.8712,-2.8712,-2.8875,-2.9239,-2.9603,-2.9792,-2.9792,-2.9792,-2.9792,-2.9792,-2.9792,-2.9792,-2.9792,-2.9792,-2.9792,-2.9792,-2.9792,-2.9792,-2.9792,-2.9792,-2.9792,-2.9792,-2.9792,-2.9792,-2.9792,0.0,0.0,0.0,0.0,0.0,0.0,0.0,0.0,0.0,-0.5368,0.0,0.0,0.0,0.0,-0.5098,-0.5098,-0.5098,-0.5175,-0.5349,-0.5368,0.0,0.0,0.0,0.0,0.0,-0.6395,-0.6599,-0.6599,-0.6778,-0.7824,-0.9642,-1.0181,-1.1134,-1.2425,-1.3157,-1.3797,0.0,0.0,0.0,-1.2445,0.0,0.0,-1.3779,-1.3998,-1.4638,0.0,0.0,0.0,0.0,0.0,0.0,0.0,0.0,-1.101,-1.0886,-1.0119,-1.0558,0.0,-1.1299,0.0,0.0,0.0,0.0,0.0,0.0,0.0,0.0,0.0,0.0,0.0,0.0,0.0,0.0,0.0,0.0,0.0,0.0,0.0,0.0,0.0,0.0,0.0,0.0,0.0,0.0,0.0,0.0,0.0,-2.8109,-2.8109,-2.8109,-2.8109,-2.8109,-2.8285,-2.8612,-2.9038,-2.9315,-2.9503,-2.9503,-2.9603,-2.9792,-2.9792,-2.9792,-2.9792,-2.9792,-2.9792,-2.9792,-2.9792,-2.9792,-2.9792,-2.9792,-2.9792,-2.9792,-2.9792,-2.9792,-2.9792,0.0,0.0,0.0,0.0,0.0,0.0,0.0,0.0,-0.5098,-0.5098,0.0,0.0,0.0,0.0,0.0,-0.5117,-0.5117,-0.5117,-0.5098,-0.5098,0.0,0.0,0.0,0.0,-0.6171,-0.6436,-0.6582,-0.659,-0.7109,-0.7941,-0.9063,-0.9592,-1.072,-1.225,-1.1184,-1.1595,-1.3198,0.0,-1.4525,-1.4166,0.0,-1.4896,-1.5103,0.0,0.0,0.0,-1.6563,-1.6233,0.0,0.0,0.0,0.0,0.0,-1.0886,-0.9968,-0.9931,-1.0331,-1.0756,0.0,0.0,0.0,0.0,0.0,0.0,0.0,0.0,0.0,0.0,0.0,0.0,0.0,0.0,0.0,0.0,0.0,0.0,0.0,0.0,0.0,0.0,0.0,0.0,0.0,0.0,0.0,0.0,0.0,-2.8059,-2.8059,-2.8059,-2.8059,-2.8059,-2.8072,-2.8084,-2.8084,-2.8097,-2.8373,-2.8863,-2.8863,-2.9202,-2.9767,-2.9767,-2.9779,-2.9792,-2.9792,-2.9792,-2.9792,-2.9792,-2.9792,-2.9792,-2.9792,-2.9792,-2.9792,-2.9792,-2.9792,-2.9792,0.0,0.0,0.0,0.0,0.0,-0.5098,-0.5098,-0.5098,-0.5098,0.0,0.0,0.0,-0.5137,-0.54,-0.5606,-0.5606,-0.5606,-0.5469,-0.5117,-0.5098,-0.5127,-0.5214,-0.5463,-0.5633,-0.5687,-0.5954,-0.6171,-0.6318,-0.6312,-0.6852,-0.7889,-0.8272,-0.9009,-1.0031,-1.0494,-1.0957,-1.1407,-1.1736,0.0,0.0,-1.4412,-1.4703,0.0,0.0,0.0,0.0,0.0,-1.7955,-1.7463,0.0,-1.6509,-1.548,0.0,0.0,-1.1563,-1.072,-1.1432,-1.2234,-1.1032,0.0,0.0,0.0,0.0,0.0,0.0,0.0,0.0,0.0,0.0,0.0,0.0,0.0,0.0,0.0,0.0,0.0,0.0,0.0,0.0,0.0,0.0,0.0,0.0,0.0,0.0,0.0,0.0,-2.6952,-2.6952,-2.6952,-2.6952,-2.6952,-2.7341,-2.7507,-2.7507,-2.7908,-2.8185,-2.8335,-2.8335,-2.8624,-2.9126,-2.9126,-2.9402,-2.9792,-2.9792,-2.9792,-2.9792,-2.9792,-2.9792,-2.9792,-2.9792,-2.9792,-2.9792,-2.9792,-2.9792,-2.9792,0.0,0.0,0.0,-0.5341,-0.539,-0.5449,-0.5613,-0.5643,-0.5643,0.0,0.0,0.0,-0.5672,-0.6064,-0.6262,-0.6066,-0.589,-0.5685,-0.541,-0.5215,-0.5146,-0.5262,-0.5426,-0.5559,-0.5661,-0.5819,-0.5954,-0.6079,-0.6043,-0.6321,-0.6904,-0.7102,-0.762,-0.8401,-0.8686,-0.9404,-1.0344,-0.9893,0.0,0.0,-1.4523,0.0,0.0,-1.6693,-1.7122,0.0,0.0,0.0,-1.8519,-1.8519,-1.7488,0.0,0.0,-1.3366,-1.2563,-1.1673,-1.2441,-1.3308,-1.2087,-1.291,0.0,0.0,0.0,0.0,0.0,0.0,0.0,0.0,0.0,0.0,0.0,0.0,0.0,0.0,0.0,0.0,0.0,0.0,0.0,0.0,0.0,0.0,0.0,0.0,0.0,0.0,-2.6499,-2.6499,-2.6499,-2.6499,-2.6499,-2.6499,-2.6801,-2.6977,-2.6977,-2.7291,-2.7532,-2.7758,-2.7758,-2.8047,-2.8586,-2.8586,-2.89,-2.9428,-2.9428,-2.9566,-2.9792,-2.9792,-2.9792,-2.9792,-2.9792,-2.9792,-2.9792,-2.9792,-2.9792,-2.9792,0.0,0.0,-0.4932,-0.5638,-0.5781,-0.5949,-0.6416,-0.6433,-0.6433,0.0,-0.654,-0.6579,-0.668,-0.6982,-0.7021,-0.666,-0.6213,-0.5919,-0.5861,-0.5429,-0.5264,-0.5445,-0.5454,-0.5567,-0.5799,-0.5808,-0.5817,-0.5856,-0.6004,-0.6109,-0.6174,-0.6139,-0.6526,-0.7204,-0.6487,-0.7448,-0.9554,0.0,0.0,-1.3064,-1.4544,-1.5272,0.0,0.0,-1.6943,0.0,-1.8329,-1.8806,-1.8946,-1.8909,-1.7633,0.0,0.0,-1.4438,-1.3511,-1.2806,-1.3426,0.0,-1.3491,-1.3828,-1.445,0.0,0.0,0.0,0.0,-1.5906,0.0,0.0,0.0,0.0,0.0,0.0,0.0,0.0,0.0,0.0,0.0,0.0,0.0,0.0,0.0,0.0,0.0,0.0,0.0,-2.6273,-2.6311,-2.6311,-2.6311,-2.6361,-2.6399,-2.6399,-2.6461,-2.6499,-2.6499,-2.6499,-2.6738,-2.7228,-2.7228,-2.7482,-2.8009,-2.8009,-2.831,-2.88,-2.8863,-2.9176,-2.9704,-2.9767,-2.9792,-2.9792,-2.9792,-2.9792,-2.9792,-2.9792,-2.9792,-2.9792,0.0,-0.4587,-0.4862,-0.5379,-0.5651,-0.6056,-0.6846,-0.665,-0.6648,-0.7345,-0.7442,-0.772,-0.8418,-0.7944,-0.769,-0.7984,-0.7299,-0.6689,-0.6309,-0.59,-0.5519,-0.5195,-0.5175,-0.5204,-0.5252,-0.5252,-0.5358,-0.5578,-0.5405,-0.5537,-0.5954,-0.5734,-0.5835,-0.6186,-0.6027,-0.6653,-0.7876,0.0,0.0,-1.1468,-1.29,0.0,-1.5953,-1.6558,-1.7084,-1.7607,-1.8392,-1.8735,-1.8696,0.0,-1.8228,-1.8092,0.0,0.0,0.0,-1.4324,0.0,-1.5718,-1.4305,-1.4959,-1.5856,-1.5085,0.0,0.0,0.0,-1.4828,0.0,0.0,0.0,0.0,0.0,0.0,0.0,0.0,0.0,0.0,0.0,0.0,0.0,0.0,0.0,0.0,0.0,0.0,-2.4988,-2.5134,-2.5146,-2.5146,-2.5146,-2.5536,-2.5774,-2.5774,-2.6248,-2.6499,-2.6499,-2.6499,-2.6549,-2.6663,-2.6663,-2.6952,-2.7444,-2.7444,-2.7745,-2.8298,-2.87,-2.895,-2.9101,-2.9603,-2.9792,-2.9792,-2.9792,-2.9792,-2.9792,-2.9792,-2.9792,-2.9792,-0.4303,-0.4599,-0.5031,-0.5593,-0.595,-0.6518,-0.7593,-0.7382,-0.7476,-0.8516,-0.885,-0.9004,-0.9004,-0.8792,-0.8577,-0.8414,-0.7783,-0.7115,-0.6443,-0.6027,-0.5596,-0.5117,-0.5098,-0.5215,-0.5449,-0.5224,-0.5274,-0.5644,-0.5412,-0.5435,-0.5698,-0.5568,-0.5978,-0.6826,-0.6282,-0.6999,-0.8615,0.0,-1.0098,-1.176,-1.3105,0.0,-1.5192,-1.5863,-1.6496,-1.7118,-1.7468,-1.7852,-1.807,-1.7601,-1.7903,0.0,0.0,-1.7074,-1.7463,0.0,-1.607,-1.671,-1.56,-1.5881,-1.6437,-1.6216,0.0,0.0,0.0,0.0,0.0,0.0,0.0,0.0,0.0,0.0,0.0,0.0,0.0,0.0,0.0,0.0,0.0,0.0,0.0,0.0,0.0,0.0,-2.4186,-2.475,-2.4788,-2.4788,-2.4788,-2.5039,-2.5209,-2.5209,-2.5485,-2.5774,-2.6059,-2.6059,-2.621,-2.6499,-2.6499,-2.6637,-2.6901,-2.6901,-2.7168,-2.7708,-2.7996,-2.826,-2.8561,-2.9126,-2.9365,-2.939,-2.9679,-2.9792,-2.9792,-2.9792,-2.9792,-2.9792,-0.4099,-0.4544,-0.5062,-0.5627,-0.6096,-0.6797,-0.8002,-0.7888,-0.8124,-0.943,-0.9964,-1.0031,-0.9542,-0.9588,-0.9483,-0.906,-0.8431,-0.7725,-0.695,-0.6436,-0.5967,-0.5506,-0.5322,-0.5449,-0.59,-0.538,-0.5283,-0.5665,-0.5502,-0.5426,-0.5426,-0.5508,-0.6254,-0.7499,-0.6792,-0.7705,0.0,0.0,0.0,-1.2469,0.0,-1.4185,-1.4317,-1.502,-1.5733,-1.6395,-1.6479,-1.6978,-1.7527,-1.7099,0.0,-1.7763,-1.6991,-1.7396,0.0,0.0,0.0,0.0,0.0,0.0,0.0,0.0,0.0,-1.6584,0.0,0.0,0.0,-1.6769,0.0,0.0,0.0,0.0,0.0,0.0,0.0,0.0,0.0,0.0,0.0,0.0,0.0,0.0,0.0,0.0,-2.2932,-2.4061,-2.4079,-2.4117,-2.4299,-2.4512,-2.4637,-2.4637,-2.4738,-2.5021,-2.5435,-2.5548,-2.5824,-2.6336,-2.6436,-2.6499,-2.6499,-2.6499,-2.6738,-2.7165,-2.7266,-2.7544,-2.7996,-2.8499,-2.8737,-2.88,-2.9528,-2.9792,-2.9792,-2.9792,-2.9792,-2.9792,-0.3584,-0.4067,-0.4533,-0.4727,-0.5428,-0.6299,-0.7273,-0.7275,-0.7765,-0.9391,-0.9811,-1.0282,-1.1219,-1.0435,0.0,-1.1151,0.0,0.0,-0.874,0.0,-0.7301,-0.6895,-0.6135,-0.5919,-0.6328,-0.5526,-0.5127,-0.5185,-0.5156,-0.5146,-0.5156,-0.5569,-0.6044,-0.659,-0.7238,0.0,0.0,0.0,-1.0987,0.0,-1.3299,-1.3966,0.0,-1.4738,-1.5336,-1.6016,-1.6364,-1.6978,-1.7527,0.0,-1.7286,-1.7923,0.0,-1.7959,0.0,0.0,0.0,0.0,0.0,0.0,0.0,0.0,-1.8367,0.0,0.0,0.0,-1.6183,-1.5349,0.0,0.0,0.0,0.0,0.0,0.0,0.0,0.0,0.0,0.0,0.0,0.0,0.0,0.0,0.0,0.0,0.0,-2.1782,-2.1433,-2.1568,-2.2518,-2.3552,-2.4092,-2.4092,-2.4537,-2.4813,-2.4876,-2.536,-2.5624,-2.5699,-2.6248,-2.6499,-2.6499,-2.6499,-2.6524,-2.6612,-2.7102,-2.7318,-2.7419,-2.7971,-2.8197,-2.831,-2.9377,-2.9792,-2.9792,-2.9792,-2.9792,-2.9792,-0.3495,-0.4166,-0.4715,-0.4618,-0.5321,-0.6194,-0.7051,-0.7998,-0.8913,-0.9771,-1.034,-1.0971,0.0,0.0,0.0,0.0,0.0,-0.9381,0.0,0.0,-0.775,-0.7462,-0.6875,-0.6631,-0.6807,-0.5957,-0.5508,-0.5508,-0.5234,-0.5098,-0.5108,-0.5576,-0.6428,-0.7583,-0.7939,0.0,-1.0528,0.0,0.0,0.0,0.0,0.0,0.0,-1.4739,-1.5336,-1.563,-1.5793,-1.6054,-1.6257,0.0,-1.6133,0.0,0.0,0.0,0.0,0.0,0.0,0.0,0.0,0.0,0.0,0.0,0.0,0.0,0.0,0.0,-1.6265,0.0,0.0,0.0,0.0,0.0,0.0,0.0,0.0,0.0,0.0,0.0,0.0,0.0,0.0,0.0,0.0,0.0,0.0,0.0,0.0,-2.0219,-2.1244,-2.2409,-2.3175,-2.3459,-2.3697,-2.3973,-2.4343,-2.4556,-2.4983,-2.5598,-2.585,-2.6172,-2.6499,-2.6499,-2.6499,-2.6512,-2.6738,-2.6839,-2.6841,-2.6771,-2.6773,-2.681,-2.7045,-2.8011,-2.934,-2.9666,-2.9792,-2.9792,-0.3725,0.0,-0.4664,-0.447,-0.5083,-0.592,-0.6866,-0.8362,-0.958,-1.0163,0.0,0.0,-1.243,-1.1776,0.0,0.0,-1.0535,-0.9658,0.0,0.0,-0.8255,-0.8038,-0.7667,0.0,0.0,-0.6562,-0.6086,-0.5958,-0.5624,-0.5458,-0.5468,-0.5937,-0.6888,-0.8238,-0.8708,-0.9843,-1.1408,0.0,0.0,-1.2347,-1.2959,-1.3369,-1.3701,-1.4814,-1.5312,-1.541,-1.541,-1.541,-1.5371,-1.5119,-1.5392,0.0,-1.6228,0.0,0.0,0.0,0.0,0.0,-1.8388,0.0,0.0,0.0,0.0,0.0,0.0,0.0,0.0,0.0,0.0,0.0,0.0,0.0,0.0,0.0,0.0,0.0,0.0,0.0,0.0,0.0,0.0,0.0,0.0,0.0,0.0,0.0,0.0,0.0,-1.9764,-2.0882,-2.1812,-2.2545,-2.2482,-2.2733,-2.3399,-2.3315,-2.3801,-2.4806,-2.4954,-2.5326,-2.5871,-2.5871,-2.5807,-2.5687,-2.5978,-2.6094,-2.605,-2.572,-2.5576,-2.5551,-2.5108,-2.6068,-2.7725,-2.8433,-2.88,-2.8882,-0.4322,-0.4187,0.0,0.0,-0.4469,-0.5275,-0.6616,-0.7788,-0.9019,-1.0401,0.0,0.0,0.0,0.0,0.0,0.0,0.0,-1.0383,-0.9963,0.0,-0.913,0.0,0.0,-0.8234,0.0,-0.7373,-0.6836,-0.6387,-0.6367,-0.6355,-0.6365,-0.6846,-0.7291,-0.7793,-0.9482,-1.0488,-1.1016,-1.2299,-1.3291,-1.4026,-1.4055,-1.4562,-1.5293,0.0,-1.5059,-1.541,-1.541,0.0,0.0,-1.5601,-1.5704,0.0,0.0,0.0,0.0,0.0,0.0,0.0,0.0,0.0,0.0,-1.8326,0.0,0.0,0.0,0.0,-1.6486,0.0,0.0,0.0,0.0,0.0,-1.3769,-1.3318,0.0,0.0,0.0,0.0,0.0,0.0,0.0,0.0,0.0,0.0,0.0,0.0,0.0,0.0,-1.7791,-1.8861,-1.998,-2.1212,-2.0879,-2.108,-2.1975,-2.165,-2.1903,-2.2818,-2.332,-2.3811,-2.4255,-2.4255,-2.4014,-2.3672,-2.4636,-2.504,-2.5052,-2.5028,-2.504,-2.4969,-2.4508,-2.4363,-2.4562,-2.5554,-2.6219,-2.6607,0.0,0.0,0.0,0.0,0.0,-0.5473,-0.6507,-0.7666,-0.8833,0.0,0.0,0.0,0.0,0.0,-1.1396,0.0,0.0,-1.0512,-1.008,-1.014,0.0,0.0,0.0,-0.9677,0.0,0.0,-0.8145,-0.7729,-0.7139,-0.6865,-0.6865,-0.7021,-0.731,-0.7773,-0.9512,-1.0518,0.0,0.0,0.0,0.0,0.0,-1.4621,-1.54,0.0,0.0,-1.541,-1.541,-1.541,0.0,-1.5464,-1.5311,-1.5295,-1.6279,-1.6239,-1.6052,-1.7219,-1.773,0.0,0.0,0.0,-1.8427,-1.7346,0.0,0.0,0.0,0.0,0.0,0.0,0.0,0.0,0.0,0.0,-1.3389,-1.3617,-1.2833,0.0,0.0,0.0,0.0,0.0,0.0,0.0,0.0,0.0,0.0,0.0,0.0,0.0,0.0,-1.7707,-1.8936,-2.0308,-2.0761,-2.1306,-2.1877,-2.1792,-2.2051,-2.2694,-2.2294,-2.2547,-2.3338,-2.3338,-2.3389,-2.3514,-2.3854,-2.4,-2.3963,-2.3294,-2.2999,-2.2936,-2.2178,-2.2025,-2.2522,-2.4624,-2.6158,-2.7198,-0.485,0.0,0.0,0.0,0.0,0.0,0.0,0.0,0.0,0.0,-1.004,0.0,-1.224,0.0,-1.1209,0.0,-1.0865,-1.0437,-1.0315,-1.0379,0.0,-1.0111,-1.0412,0.0,0.0,0.0,-0.898,-0.8267,-0.8069,-0.7749,-0.731,-0.748,-0.7705,-0.8012,0.0,-1.0518,-1.1025,0.0,-1.3549,0.0,0.0,-1.4894,0.0,0.0,-1.541,-1.541,0.0,-1.541,-1.541,-1.541,-1.5332,-1.539,-1.6074,-1.6257,-1.6335,-1.7073,-1.7613,-1.8014,-1.811,-1.8121,0.0,0.0,-1.6848,0.0,-1.4461,0.0,0.0,0.0,0.0,0.0,0.0,0.0,-1.3096,-1.3485,-1.2486,-1.1573,0.0,0.0,0.0,0.0,0.0,0.0,0.0,0.0,-1.2364,-1.2976,0.0,0.0,0.0,0.0,-1.7444,-1.8948,-1.9549,-2.0211,-2.0974,-2.0655,-2.0844,-2.1485,-2.093,-2.1083,-2.1818,-2.1818,-2.1955,-2.2232,-2.26,-2.2845,-2.2925,-2.2253,-2.1989,-2.1924,-2.0972,-2.0742,-2.1204,-2.3103,-2.4609,-2.5766,0.0,0.0,0.0,0.0,-0.5878,0.0,0.0,0.0,-0.9151,0.0,-0.996,-1.0392,-1.2113,-1.1002,-1.0584,-1.1671,-1.0755,0.0,-1.0689,-1.0359,0.0,0.0,-1.0173,-0.9757,-0.9073,0.0,0.0,0.0,-0.9093,-0.895,-0.7763,-0.8193,-0.8385,-0.8414,-0.9725,0.0,-1.1016,-1.3139,-1.4085,-1.4211,-1.505,-1.541,-1.541,-1.541,0.0,-1.541,-1.541,-1.541,-1.541,-1.541,-1.5703,-1.6173,-1.656,-1.6697,-1.6785,-1.7256,-1.7383,-1.7448,-1.7708,-1.7595,-1.7511,-1.7951,0.0,0.0,0.0,0.0,-1.6005,0.0,0.0,0.0,0.0,0.0,0.0,-1.2915,-1.2181,-1.132,0.0,0.0,0.0,0.0,0.0,0.0,0.0,0.0,-1.1046,-1.269,-1.166,0.0,0.0,0.0,0.0,-1.7267,-1.7382,-1.8034,-1.9299,-1.8496,-1.8496,-1.9299,-1.9276,-1.944,-1.9833,-1.9833,-1.9859,-1.995,-2.0925,-2.1544,-2.1924,-2.1924,-2.1924,-2.1849,-2.0934,-2.0605,-2.0654,-2.1104,-2.184,-2.2565,-0.5745,-0.6065,-0.6453,0.0,-0.686,-0.7093,0.0,0.0,0.0,0.0,-0.9937,-1.0265,-1.0998,-1.0722,-1.0688,-1.1166,-1.0774,0.0,0.0,0.0,0.0,-1.0182,-1.088,-1.0859,-0.9988,-1.0448,0.0,-0.9929,0.0,0.0,-0.8655,-0.8493,-0.8203,-0.7944,0.0,0.0,-1.0566,-1.2412,-1.375,-1.4668,-1.5195,-1.541,0.0,0.0,-1.541,-1.541,-1.541,-1.541,-1.541,-1.541,-1.5703,-1.6173,-1.656,-1.6697,-1.6785,-1.7256,-1.7383,-1.7429,-1.7486,-1.7685,-1.7815,-1.761,-1.7198,-1.6624,0.0,0.0,0.0,0.0,0.0,0.0,0.0,0.0,0.0,-1.3013,-1.2422,-1.1865,0.0,0.0,0.0,0.0,0.0,0.0,0.0,0.0,-1.131,-1.1406,0.0,0.0,0.0,0.0,0.0,-1.6387,-1.7349,-1.8311,-1.9299,-1.9077,-1.9077,-1.9299,-1.8654,-1.8522,-1.8939,-1.8939,-1.9272,-1.9912,-2.0165,-2.0526,-2.0972,-2.0972,-2.0972,-2.0934,-2.0673,-2.0605,-2.0732,-2.2011,-2.2801,-2.3298,-0.6262,0.0,0.0,-0.7826,0.0,0.0,-0.8238,0.0,0.0,-0.9626,-1.0053,0.0,-1.0573,-1.0821,-1.1002,-1.1169,-1.1035,0.0,0.0,0.0,0.0,-1.0762,-1.1055,-1.0894,-1.0215,-1.0532,0.0,-1.0035,0.0,0.0,-0.873,-0.8502,-0.8268,-0.8076,0.0,-1.04,0.0,-1.2607,-1.3955,-1.4852,-1.5244,0.0,0.0,-1.541,-1.5527,-1.5693,-1.5693,-1.5566,-1.5439,-1.5635,-1.5986,-1.6436,-1.6875,-1.7139,-1.7301,-1.7588,-1.7656,-1.7656,-1.7656,-1.7832,-1.7959,-1.7715,-1.7471,-1.7129,-1.6494,-1.6553,-1.656,0.0,0.0,0.0,0.0,0.0,0.0,0.0,0.0,0.0,0.0,0.0,0.0,0.0,0.0,0.0,0.0,0.0,0.0,0.0,0.0,0.0,0.0,0.0,0.0,-1.5498,-1.6769,-1.7766,-1.8459,-1.8619,-1.8721,-1.8721,-1.8236,-1.8135,-1.8325,-1.8325,-1.8828,-1.9639,-1.9639,-1.999,-2.0605,-2.0605,-2.0605,-2.0605,-2.0605,-2.0605,-2.0712,-2.1553,-2.2164,-2.2574,0.0,0.0,0.0,0.0,0.0,0.0,0.0,-0.9081,0.0,-0.9813,0.0,-1.0707,-1.0707,-1.1122,-1.1409,-1.1449,0.0,-1.156,-1.1948,-1.1634,-1.1457,-1.1583,-1.0978,-1.0512,-1.018,-1.0229,0.0,0.0,0.0,0.0,-0.8297,-0.8246,-0.8226,0.0,0.0,0.0,0.0,-1.3086,-1.4157,0.0,-1.4917,-1.5147,-1.5235,-1.5293,-1.5643,-1.6105,-1.6163,-1.5908,-1.5644,-1.6056,-1.6445,-1.6853,-1.7266,-1.7676,-1.8008,-1.8008,-1.8008,-1.8008,-1.8008,-1.8008,-1.8008,-1.8008,-1.8008,-1.7812,-1.7038,-1.6872,-1.6872,-1.6872,-1.6258,0.0,0.0,0.0,0.0,0.0,0.0,0.0,0.0,0.0,0.0,0.0,0.0,0.0,0.0,0.0,0.0,0.0,0.0,0.0,0.0,0.0,0.0,0.0,-1.5996,0.0,-1.7373,0.0,-1.8008,-1.8008,-1.8008,-1.8008,-1.8008,-1.8008,-1.8447,-1.9209,-1.9268,-1.9774,-2.0517,-2.0576,-2.0605,-2.0605,-2.0605,-2.0605,-2.0605,-2.0605,-2.081,-2.1171,0.0,0.0,0.0,0.0,0.0,-0.8393,-0.8604,-0.9377,-1.0123,-1.0695,-1.1062,0.0,-1.1276,-1.1329,-1.1523,-1.1806,-1.1563,0.0,0.0,0.0,0.0,-1.1438,-1.1108,-1.0814,-1.0519,-1.0258,-0.9832,0.0,0.0,0.0,-0.7731,-0.7457,-0.727,0.0,0.0,0.0,-1.1073,-1.249,0.0,-1.2855,-1.325,-1.3816,-1.4458,-1.4857,-1.5461,-1.6144,-1.6484,-1.6531,-1.6482,-1.656,-1.6904,-1.7285,-1.7363,-1.7676,-1.8008,-1.8008,-1.8008,-1.8008,-1.8008,-1.8008,-1.8008,-1.8008,-1.8008,-1.7969,-1.7822,-1.7783,-1.7783,-1.7783,-1.7666,-1.7295,-1.6486,0.0,0.0,0.0,0.0,0.0,0.0,0.0,0.0,0.0,0.0,0.0,0.0,0.0,0.0,0.0,0.0,0.0,0.0,0.0,0.0,0.0,0.0,0.0,0.0,0.0,0.0,-1.8008,-1.8008,-1.8008,-1.8008,-1.8008,-1.8247,-1.8734,-1.9131,-1.957,-2.0059,-2.0458,-2.0605,-2.0605,-2.0605,-2.0605,-2.0605,-2.0605,-2.0654,-2.0742,0.0,0.0,0.0,0.0,0.0,0.0,0.0,-0.9042,0.0,-1.0143,-1.0898,-1.1389,-1.1389,-1.1697,-1.1937,-1.2084,-1.1964,-1.1944,-1.2084,-1.1957,-1.181,-1.1663,-1.1558,0.0,-1.0827,-1.0519,-1.0116,-0.9603,0.0,0.0,-0.7793,-0.7425,-0.7122,-0.6966,0.0,-0.9838,0.0,0.0,0.0,-1.2636,-1.3048,-1.3553,-1.4053,-1.4305,-1.4751,-1.5301,-1.5507,-1.5704,-1.6023,-1.6804,-1.7207,-1.7422,-1.7637,-1.7842,-1.8008,-1.8008,-1.8008,-1.8008,-1.8008,-1.8008,-1.8008,-1.8008,-1.8008,-1.8008,-1.8008,-1.8008,-1.8008,-1.8008,-1.8008,-1.7607,-1.633,-1.5,0.0,0.0,0.0,0.0,0.0,0.0,0.0,0.0,0.0,0.0,0.0,0.0,0.0,0.0,0.0,0.0,0.0,0.0,0.0,0.0,0.0,0.0,0.0,0.0,0.0,-1.8008,-1.8008,-1.8008,-1.8008,-1.8008,-1.8208,-1.8627,-1.9102,-1.9531,-1.9951,-2.0429,-2.0605,-2.0605,-2.0605,-2.0605,-2.0605,-2.0605,-2.0605,-2.0674,0.0,-0.8765,0.0,0.0,-0.8463,0.0,0.0,-0.8377,-0.8892,-0.9656,-1.0657,-1.136,-1.1575,-1.2024,-1.2305,-1.2305,-1.2305,-1.2305,-1.2305,-1.2305,-1.2204,-1.2007,-1.194,-1.1692,-1.1189,-1.0807,-1.039,0.0,0.0,0.0,-0.7882,-0.7509,-0.7274,0.0,0.0,0.0,0.0,0.0,-1.2083,-1.2547,-1.2844,-1.3249,-1.3635,-1.374,-1.4075,-1.4524,-1.4606,-1.4889,-1.5369,-1.6548,-1.6925,-1.6982,-1.7303,-1.7545,-1.7681,-1.7681,-1.7828,-1.8008,-1.8008,-1.8008,-1.8008,-1.8008,-1.8008,-1.8008,-1.8008,-1.8008,-1.7988,-1.79,-1.7734,-1.7256,-1.6163,-1.5088,0.0,0.0,0.0,0.0,0.0,0.0,0.0,0.0,0.0,0.0,0.0,0.0,0.0,0.0,0.0,0.0,-1.0839,-1.155,0.0,0.0,0.0,0.0,-1.656,0.0,-1.8008,0.0,-1.8008,-1.8008,-1.8008,-1.8008,-1.8159,-1.849,-1.8965,-1.9443,-1.9951,-2.0429,-2.0605,-2.0605,-2.0605,-2.0605,-2.0605,-2.0605,-2.0605,-2.0654,0.0,0.0,0.0,0.0,0.0,0.0,0.0,-0.752,-0.8566,-1.0424,-1.0775,-1.1206,-1.2108,-1.2271,-1.2305,-1.2305,-1.2305,-1.2305,-1.2305,-1.2305,-1.2291,-1.2265,-1.2047,-1.1879,-1.1826,-1.1015,-1.0315,0.0,0.0,-0.8123,-0.7529,-0.7201,0.0,0.0,0.0,0.0,0.0,-1.133,-1.1593,-1.1546,-1.1574,-1.2077,-1.2845,-1.3206,-1.3846,-1.4557,-1.499,-1.5165,-1.5234,-1.5377,-1.5396,-1.5404,-1.5438,-1.6044,-1.674,-1.674,-1.732,-1.8008,-1.8008,-1.8008,-1.8008,-1.8008,-1.8008,-1.8008,-1.8008,-1.8008,-1.79,-1.7519,-1.6838,-1.6114,-1.5566,-1.5371,-1.5011,0.0,0.0,0.0,0.0,0.0,0.0,0.0,0.0,0.0,0.0,0.0,0.0,0.0,0.0,0.0,0.0,-1.0986,0.0,-1.3516,0.0,-1.5684,-1.6153,-1.7383,0.0,-1.8008,-1.8008,-1.8008,-1.8008,-1.8008,-1.8037,-1.8086,-1.8481,-1.9124,-1.9951,-2.0429,-2.0605,-2.0605,-2.0605,-2.0605,-2.0605,-2.0605,-2.0605,-2.0615,0.0,0.0,0.0,0.0,0.0,0.0,0.0,-0.6745,-0.7403,-0.8799,-1.0034,-1.0938,-1.1354,-1.1391,-1.1391,-1.1391,-1.1391,-1.1391,-1.1391,-1.1959,-1.2305,-1.2305,-1.2191,-1.2044,-1.1906,-1.1558,-1.1008,0.0,0.0,-0.8791,-0.8033,-0.7913,0.0,0.0,0.0,-1.005,-1.0587,-1.1041,-1.1416,-1.169,-1.169,-1.2009,-1.25,-1.2655,-1.2906,-1.32,-1.3397,-1.3448,-1.3448,-1.3448,-1.4235,-1.5199,-1.5199,-1.5446,-1.5755,-1.5755,-1.6018,-1.6332,-1.6332,-1.6332,-1.6332,-1.6332,-1.6332,-1.6332,-1.6332,-1.6155,-1.5975,-1.5815,-1.5156,-1.4529,-1.4338,-1.3909,-1.3573,0.0,0.0,0.0,0.0,0.0,0.0,0.0,0.0,0.0,0.0,0.0,0.0,0.0,0.0,0.0,0.0,0.0,0.0,-1.3076,0.0,-1.5625,-1.6085,-1.7353,-1.8008,-1.8008,-1.8008,-1.8008,-1.8008,-1.8008,-1.8144,-1.8373,-1.8838,-1.9365,-1.9951,-2.0429,-2.0605,-2.0605,-2.0605,-2.0605,-2.0605,-2.0605,-2.0605,-2.0605,-0.6757,0.0,-0.7341,0.0,-0.6844,-0.6633,-0.6342,-0.63,-0.6567,-0.7249,-0.8885,-1.0073,-1.0346,-1.0378,-1.0378,-1.0378,-1.0378,-1.0378,-1.0378,-1.1316,-1.1848,-1.1848,-1.215,0.0,-1.2004,-1.1946,-1.1558,-1.0847,-1.0345,0.0,-0.9045,0.0,0.0,0.0,-0.994,-1.0347,-1.0835,-1.1122,-1.1578,-1.2033,-1.2033,-1.2118,-1.2305,-1.2305,-1.2305,-1.2305,-1.2305,-1.2305,-1.2305,-1.2305,-1.3193,-1.4343,-1.4343,-1.4557,-1.4772,-1.4772,-1.4985,-1.5199,-1.5199,-1.5199,-1.5199,-1.5199,-1.5199,-1.5199,-1.5199,-1.4952,-1.4654,-1.4413,-1.3874,-1.3411,-1.3411,-1.2976,-1.2619,-1.2797,0.0,0.0,0.0,0.0,0.0,0.0,0.0,-1.0727,0.0,0.0,0.0,0.0,0.0,0.0,0.0,0.0,0.0,0.0,0.0,0.0,0.0,-1.7353,-1.8008,-1.8008,-1.8008,-1.8008,-1.8008,-1.8008,-1.813,-1.8451,-1.9043,-1.9453,-1.9775,-2.037,-2.0605,-2.0605,-2.0605,-2.0605,-2.0605,-2.0605,-2.0605,-2.0605,-0.5996,-0.6023,-0.6074,-0.6269,-0.6296,-0.6296,-0.63,-0.63,-0.63,-0.63,-0.7313,-0.8365,-0.9208,-0.9334,-0.9334,-0.9334,-0.9334,-0.9334,-0.9334,-1.0265,-1.0826,0.0,0.0,-1.2305,-1.2298,-1.2053,-1.1724,-1.1382,0.0,0.0,-1.0566,0.0,-1.0573,-1.0586,-1.0848,-1.1142,-1.1395,-1.173,-1.2067,-1.2298,-1.2298,-1.2298,-1.2305,-1.2305,-1.2305,-1.2305,-1.2305,-1.2305,-1.2305,-1.2305,-1.2335,-1.2335,-1.2335,-1.2989,-1.3709,-1.3709,-1.4414,-1.5199,-1.5199,-1.5199,-1.5199,-1.5199,-1.5199,-1.5199,-1.5199,-1.4952,-1.4479,-1.3758,-1.3296,-1.3017,-1.3017,-1.3009,-1.2855,-1.248,0.0,0.0,0.0,0.0,0.0,0.0,-1.1091,-1.0898,-1.1708,0.0,0.0,0.0,0.0,0.0,0.0,0.0,0.0,-1.3467,-1.5195,0.0,-1.6095,-1.7353,-1.8008,-1.8008,-1.8008,-1.8008,-1.8008,-1.8008,-1.8008,-1.8066,-1.8916,-1.9287,-1.9365,-2.0253,-2.0605,-2.0605,-2.0605,-2.0605,-2.0605,-2.0605,-2.0605,-2.0605,-0.6302,-0.6332,-0.638,-0.6532,-0.6515,-0.648,-0.6542,-0.6511,-0.648,-0.6549,-0.6882,-0.7215,-0.7483,-0.804,-0.8376,0.0,-0.8275,-0.8275,0.0,-0.9216,-0.9782,-0.9782,-1.0083,-1.0233,-1.0233,-1.0824,-1.1022,-1.0716,0.0,0.0,0.0,-1.0855,-1.0962,-1.1162,-1.1456,-1.1678,-1.175,-1.2044,-1.2218,-1.2305,-1.2305,-1.2305,-1.2305,-1.2305,-1.2305,-1.2305,-1.2305,-1.2305,-1.2305,-1.2305,-1.2305,-1.2305,-1.2305,-1.2519,-1.2732,-1.2732,-1.2981,-1.3237,-1.3237,-1.3237,-1.3237,-1.3237,-1.3237,-1.3237,-1.3237,-1.2819,-1.2316,-1.1905,-1.1574,-1.1358,-1.1358,-1.1358,-1.1322,-1.1198,0.0,0.0,0.0,0.0,0.0,0.0,0.0,-0.947,0.0,-0.9155,0.0,0.0,0.0,0.0,0.0,0.0,0.0,0.0,-1.5048,0.0,-1.6095,-1.7353,-1.8008,-1.8008,-1.8008,-1.8008,-1.8008,-1.8008,-1.8008,-1.8057,-1.8916,-1.9287,-1.9355,-2.0253,-2.0605,-2.0605,-2.0605,-2.0605,-2.0605,-2.0605,-2.0605,-2.0605,-0.6494,-0.6559,-0.6586,-0.6681,-0.662,-0.659,-0.6685,-0.662,-0.6593,-0.6688,-0.6753,-0.6763,-0.6709,-0.7233,0.0,-0.7418,-0.7403,-0.7403,-0.7403,-0.8339,-0.8882,-0.8882,-0.9233,-0.9466,-0.9466,0.0,0.0,-1.0059,-1.0797,-1.1083,-1.0918,-1.1304,-1.1583,-1.1764,-1.1951,-1.2067,-1.2044,-1.2225,-1.2365,-1.2509,-1.2509,-1.2538,-1.2645,-1.2645,-1.2572,-1.2509,-1.2509,-1.2398,-1.2318,-1.2432,-1.2392,-1.2318,-1.2438,-1.2392,-1.2305,-1.2305,-1.2305,-1.2305,-1.2305,-1.2305,-1.2305,-1.2305,-1.2305,-1.2271,-1.2164,-1.177,-1.1309,-1.1056,-1.0794,-1.0593,-1.0593,-1.0593,-1.0593,-1.0593,-1.0307,-1.0013,0.0,0.0,0.0,0.0,0.0,0.0,0.0,-0.927,0.0,0.0,0.0,0.0,0.0,0.0,0.0,-1.3075,-1.4905,0.0,-1.6012,-1.7344,-1.8008,-1.8008,-1.8008,-1.8008,-1.8008,-1.8008,-1.8008,-1.8057,-1.8916,-1.9287,-1.9355,-2.0253,-2.0605,-2.0605,-2.0605,-2.0605,-2.0605,-2.0605,-2.0605,-2.0605,-0.6542,-0.6617,0.0,0.0,-0.6722,0.0,-0.6729,-0.6722,-0.6719,-0.6729,-0.6854,-0.6846,-0.6746,-0.6858,-0.6846,-0.6742,0.0,0.0,0.0,-0.7555,-0.8086,-0.8086,-0.8978,0.0,-0.9507,-0.9423,-0.9439,-0.9517,-1.0345,-1.0718,-1.0738,-1.1664,-1.2123,-1.2109,-1.2203,-1.2247,-1.2247,-1.2328,-1.2525,-1.2817,-1.2817,-1.2991,-1.3213,-1.3213,-1.3033,-1.2817,-1.2817,-1.2636,-1.2405,-1.2723,-1.263,-1.2412,-1.273,-1.261,-1.2325,-1.2311,-1.2305,-1.2305,-1.2305,-1.2305,-1.2305,-1.2305,-1.2305,-1.2231,-1.1993,-1.167,-1.1342,-1.1109,-1.0841,-1.062,-1.062,-1.0606,-1.0586,-1.0566,-1.0281,-0.9987,-0.9693,0.0,0.0,0.0,0.0,0.0,0.0,-1.0304,-1.0243,0.0,0.0,0.0,0.0,0.0,-1.258,-1.333,-1.4724,-1.5569,-1.5795,-1.7113,-1.7794,-1.7794,-1.7872,-1.7872,-1.7794,-1.7872,-1.7872,-1.7842,-1.8727,-1.9095,-1.9163,-2.0014,-2.0362,-2.0362,-2.0362,-2.0362,-2.0362,-2.0362,-2.0362,-2.0362,0.0,0.0,-0.6866,-0.6974,-0.6903,-0.6869,-0.6974,-0.6903,-0.6869,-0.6977,-0.7024,-0.7034,-0.6997,-0.7024,-0.7031,-0.6997,-0.6831,-0.6702,-0.6702,-0.6905,-0.7067,-0.7067,-0.727,-0.7394,-0.7394,-0.8122,-0.8864,-0.9666,-0.9857,-0.9898,-0.9805,-1.0145,-1.0252,-1.0197,-1.121,-1.1697,-1.1742,-1.2635,-1.3039,-1.31,-1.31,-1.3146,-1.3213,-1.3213,-1.3166,-1.31,-1.31,-1.3053,-1.3006,-1.308,-1.3053,-1.3006,-1.308,-1.2924,-1.2636,-1.2371,-1.2305,-1.2305,-1.2305,-1.2305,-1.2305,-1.2305,-1.2305,-1.2285,-1.2218,-1.1971,-1.1744,-1.1712,-1.1283,-1.0928,-1.0928,-1.074,-1.0519,-1.0254,-0.998,-0.9679,-0.9357,-0.9257,0.0,0.0,-0.9645,-0.9803,-0.9727,-0.9851,-0.9924,0.0,0.0,0.0,0.0,0.0,-1.2128,-1.2907,-1.412,-1.4765,-1.4815,-1.5505,-1.5869,-1.5877,-1.6576,-1.6576,-1.5877,-1.6611,-1.6532,-1.5912,-1.6627,-1.6946,-1.7006,-1.7742,-1.806,-1.806,-1.806,-1.806,-1.806,-1.806,-1.806,-1.806,-0.604,-0.6149,-0.6259,-0.6328,-0.5794,-0.5594,-0.6236,-0.628,-0.6436,-0.7041,-0.7095,-0.7095,-0.7095,-0.7095,-0.7095,-0.7095,-0.695,-0.6902,-0.6902,-0.6902,-0.6902,-0.6902,-0.6902,-0.6902,-0.6902,-0.7379,-0.784,-0.8328,-0.8774,-0.8959,-0.8934,-0.9449,-0.9641,-0.9612,-1.0335,-1.0675,-1.0756,-1.1936,-1.2502,-1.2656,-1.3159,-1.3487,-1.3614,-1.3614,-1.3527,-1.3367,-1.3367,-1.328,-1.3233,-1.332,-1.332,-1.3233,-1.3327,-1.32,-1.2965,-1.2766,-1.2518,-1.2305,-1.2305,-1.2305,-1.2305,-1.2305,-1.2305,-1.2305,-1.2305,-1.2078,-1.1906,-1.1906,-1.151,-1.1149,-1.1015,-1.0894,-1.0615,-1.0157,-0.9873,-0.9579,-0.9251,-0.9211,0.0,-0.9211,-0.9619,-0.9826,-0.9699,-0.9956,-1.0109,-1.0114,0.0,0.0,-1.1027,-1.1353,-1.1807,-1.2413,-1.3416,-1.4017,-1.4132,-1.4852,-1.5199,-1.5199,-1.572,-1.5685,-1.5234,-1.5728,-1.5685,-1.524,-1.5914,-1.6182,-1.6239,-1.6989,-1.7302,-1.7302,-1.7302,-1.7302,-1.7302,-1.7302,-1.7302,-1.7302,-0.4863,-0.5027,-0.5134,-0.5134,-0.4283,-0.3927,-0.4954,-0.5134,-0.5536,-0.6694,-0.683,-0.6918,-0.7095,-0.7095,-0.7095,-0.7095,-0.7095,-0.7095,-0.7095,-0.7095,-0.7095,-0.7095,-0.7095,-0.7095,-0.7095,-0.6977,-0.6856,-0.6766,-0.7632,-0.8031,-0.8003,-0.889,-0.9297,-0.9269,-0.9502,-0.9562,-0.9645,-1.0865,-1.1519,-1.1797,-1.2775,-1.3307,-1.3603,-1.3779,-1.3671,-1.3413,-1.3625,-1.3513,-1.338,-1.3586,-1.3507,-1.3387,-1.3593,-1.3467,-1.3273,-1.3273,-1.2879,-1.2432,-1.2385,-1.2338,-1.2305,-1.2305,-1.2305,-1.2305,-1.2305,-1.2111,-1.1973,-1.1973,-1.1697,-1.1403,-1.1109,-1.1022,-1.0788,-1.0154,-0.988,-0.9613,-0.9204,0.0,-0.9331,-0.9284,-0.9797,-1.0087,-0.9869,-1.0338,-1.0553,-1.0267,-1.0521,0.0,0.0,-1.1329,-1.1642,-1.1963,-1.2738,-1.3256,-1.3491,-1.435,-1.4772,-1.4772,-1.4914,-1.4914,-1.4772,-1.4914,-1.4914,-1.4804,-1.5474,-1.5733,-1.5789,-1.6509,-1.6813,-1.6813,-1.6813,-1.6813,-1.6813,-1.6813,-1.6813,-1.6813,-0.3818,-0.3874,-0.3881,-0.3881,-0.3703,-0.3659,-0.3838,-0.3881,-0.433,-0.5492,-0.5669,-0.6027,-0.7007,-0.7095,-0.7095,-0.7095,-0.7095,-0.7095,-0.7095,-0.7095,-0.7095,-0.7095,-0.7095,-0.7095,-0.7095,-0.7075,-0.7051,-0.7028,-0.7199,-0.7224,-0.7105,-0.7357,-0.7436,-0.7403,-0.8519,-0.9018,-0.9104,-1.0253,-1.0739,-1.0818,-1.0989,-1.1096,-1.1257,-1.2206,-1.2565,-1.2656,-1.3665,-1.3988,-1.3961,-1.4001,-1.3988,-1.3961,-1.4001,-1.3814,-1.3533,-1.3533,-1.3293,-1.3013,-1.2784,-1.2529,-1.2305,-1.2305,-1.2305,-1.2305,-1.2305,-1.2265,-1.2231,-1.2231,-1.2004,-1.171,-1.141,-1.1156,-1.0722,-0.9886,-0.992,-0.9773,-0.8985,0.0,-0.9893,-0.9639,-1.0164,-1.0506,-1.0459,-1.076,-1.0909,-1.0862,-1.1129,-1.1275,-1.1322,-1.1643,-1.1848,-1.1906,-1.2274,-1.2471,-1.2519,-1.2659,-1.2732,-1.2769,-1.3557,-1.3528,-1.2769,-1.3564,-1.3491,-1.2767,-1.3397,-1.3666,-1.3708,-1.4324,-1.4622,-1.4622,-1.4622,-1.4622,-1.4622,-1.4622,-1.4622,-1.4622,-0.2637,-0.2814,-0.2903,-0.2681,-0.2102,-0.1879,-0.2547,-0.2637,-0.3081,-0.4285,-0.4419,-0.4865,-0.6071,-0.6204,-0.6428,-0.7051,-0.7095,-0.7095,-0.7095,-0.7095,-0.7095,-0.7095,-0.7095,-0.7095,-0.7095,-0.7095,-0.7095,-0.7095,-0.7095,-0.7061,-0.7001,-0.7065,-0.7061,-0.7044,-0.7636,-0.7929,-0.8017,-0.9187,-0.9666,-0.9749,-1.0351,-1.0611,-1.0654,-1.1166,-1.1381,-1.1466,-1.1997,-1.2211,-1.2211,-1.2211,-1.2211,-1.2211,-1.2211,-1.2088,-1.1995,-1.1995,-1.2556,-1.314,-1.2871,-1.2683,-1.2543,-1.2345,-1.2305,-1.2305,-1.2305,-1.2305,-1.2305,-1.2305,-1.2191,-1.2011,-1.1717,-1.1423,-1.1042,-1.0481,-1.0234,0.0,0.0,-0.983,-1.0127,-1.0184,-1.0566,-1.0855,-1.1009,-1.1149,-1.1229,-1.1229,-1.1315,-1.1496,-1.1657,-1.1832,-1.198,-1.2098,-1.2231,-1.2305,-1.2305,-1.2305,-1.2305,-1.2305,-1.2732,-1.2732,-1.2298,-1.2732,-1.2696,-1.2331,-1.2946,-1.3213,-1.3253,-1.3848,-1.4088,-1.4088,-1.4088,-1.4088,-1.4088,-1.4088,-1.4088,-1.4088,-0.1389,-0.1611,-0.1745,-0.1433,-0.0628,-0.0314,-0.1254,-0.1389,-0.1835,-0.3037,-0.317,-0.366,-0.4865,-0.4999,-0.5356,-0.6201,-0.6561,-0.6694,-0.6694,-0.6962,-0.7095,-0.7095,-0.7095,-0.7095,-0.7095,-0.7095,-0.7095,-0.7095,-0.7095,-0.7095,-0.7095,-0.7095,-0.7095,-0.7095,-0.7095,-0.7095,-0.7139,-0.8105,-0.8496,-0.854,-0.9444,-0.9788,-0.9831,-1.0091,-1.0183,-1.0226,-1.0481,-1.0611,-1.0611,-1.0611,-1.0611,-1.0611,-1.0611,-1.0611,-1.0611,-1.0611,-1.1556,-1.2586,-1.2512,-1.2639,-1.273,-1.2496,-1.2351,-1.2305,-1.2305,-1.2305,-1.2305,-1.2305,-1.2305,-1.2211,-1.196,-1.1683,-1.141,-1.1049,0.0,0.0,0.0,-1.0334,-1.0481,-1.0673,-1.0915,-1.1182,-1.1369,-1.1455,-1.153,-1.153,-1.1555,-1.173,-1.1993,-1.2007,-1.2107,-1.2291,-1.2305,-1.2305,-1.2305,-1.2305,-1.2305,-1.2305,-1.2305,-1.2305,-1.2305,-1.2305,-1.2305,-1.2331,-1.2872,-1.314,-1.3253,-1.3768,-1.4021,-1.4088,-1.4088,-1.4088,-1.4088,-1.4088,-1.4088,-1.4088,-0.0135,-0.0135,-0.018,-0.0135,-0.0045,-0.0045,-0.0135,-0.0135,-0.0584,-0.179,-0.1924,-0.2415,-0.3616,-0.3748,-0.3748,-0.3837,-0.4865,-0.5536,-0.5536,-0.6517,-0.7095,-0.7095,-0.7095,-0.7095,-0.7095,-0.7095,-0.7095,-0.7095,-0.7095,-0.7095,-0.7095,-0.7095,-0.7095,-0.7095,-0.7095,-0.7095,-0.7095,-0.7183,-0.7228,-0.7228,-0.7312,-0.7356,-0.7489,-0.8584,-0.9017,-0.9148,-1.0221,-1.0611,-1.0611,-1.0611,-1.0611,-1.0611,-1.0611,-1.0611,-1.0611,-1.0611,-1.0671,-1.0895,-1.1468,-1.2193,-1.2777,-1.2757,-1.2543,-1.2305,-1.2305,-1.2305,-1.2305,-1.2305,-1.2305,-1.2211,-1.196,-1.1886,-1.1685,-1.1082,0.0,0.0,-1.0633,-1.0989,-1.1202,-1.0989,-1.1216,-1.1369,-1.1389,-1.167,-1.1873,-1.1873,-1.2084,-1.2245,-1.2271,-1.2271,-1.2278,-1.2305,-1.2305,-1.2305,-1.2305,-1.2305,-1.2305,-1.2305,-1.2305,-1.2305,-1.2305,-1.2305,-1.2305,-1.2318,-1.2683,-1.2985,-1.3233,-1.3507,-1.3841,-1.4088,-1.4088,-1.4088,-1.4088,-1.4088,-1.4088,-1.4088,0.0,0.0,0.0,0.0,0.0,0.0,0.0,0.0,-0.018,-0.0628,-0.0673,-0.1165,-0.237,-0.2503,-0.2769,-0.3525,-0.4016,-0.4283,-0.4283,-0.5401,-0.6384,-0.7051,-0.7095,-0.7095,-0.7095,-0.7095,-0.7095,-0.7095,-0.7095,-0.7095,-0.7095,-0.7095,-0.7095,-0.7095,-0.7095,-0.7095,-0.7095,-0.7095,-0.7095,-0.7095,-0.7095,-0.7095,-0.7139,-0.7621,-0.7797,-0.7841,-0.8269,-0.8444,-0.8444,-0.8444,-0.8444,-0.8444,-0.8444,-0.8444,-0.8444,-0.8444,-0.8969,-0.9591,-0.9819,-1.0533,-1.1135,-1.0824,-1.0671,-1.0526,-1.0455,-1.0426,-1.0608,-1.1242,-1.1354,-1.1545,-1.2042,-1.2027,-1.1893,-1.181,0.0,-1.141,-1.141,-1.1403,-1.145,-1.1564,-1.1637,-1.177,-1.1951,-1.2071,-1.2138,-1.2138,-1.2238,-1.2305,-1.2305,-1.2305,-1.2305,-1.2305,-1.2305,-1.2305,-1.2305,-1.2305,-1.2305,-1.2305,-1.2305,-1.2305,-1.2305,-1.2305,-1.2305,-1.2318,-1.2656,-1.2958,-1.3233,-1.3487,-1.3814,-1.4088,-1.4088,-1.4088,-1.4088,-1.4088,-1.4088,-1.4088,0.0,0.0,0.0,0.0,0.0,0.0,0.0,0.0,0.0,0.0,0.0,-0.0314,-0.1165,-0.1254,-0.1567,-0.2413,-0.2815,-0.3037,-0.3037,-0.4152,-0.5534,-0.7051,-0.7095,-0.7095,-0.7095,-0.7095,-0.7095,-0.7095,-0.7095,-0.7095,-0.7095,-0.7095,-0.7095,-0.7095,-0.7095,-0.7095,-0.7095,-0.7095,-0.7095,-0.7095,-0.7095,-0.7095,-0.7095,-0.7095,-0.7095,-0.7095,-0.7095,-0.7095,-0.7095,-0.7095,-0.7095,-0.7095,-0.7095,-0.7095,-0.7095,-0.7095,-0.7665,-0.8324,-0.8324,-0.8789,-0.9288,-0.9635,-0.9597,-0.9457,-0.9389,-0.9347,-0.9485,-1.019,-1.034,-1.0527,-1.1211,-1.1211,-1.115,-1.1329,-1.1015,-1.0943,-1.1497,-1.1355,-1.141,-1.1941,-1.204,-1.2084,-1.2285,-1.2305,-1.2305,-1.2305,-1.2305,-1.2305,-1.2305,-1.2305,-1.2305,-1.2305,-1.2305,-1.2305,-1.2305,-1.2305,-1.2305,-1.2305,-1.2305,-1.2305,-1.2305,-1.2305,-1.2305,-1.2311,-1.2556,-1.2832,-1.3227,-1.3387,-1.3734,-1.4088,-1.4088,-1.4088,-1.4088,-1.4088,-1.4088,-1.4088,0.0,0.0,0.0,0.0,0.0,0.0,0.0,0.0,0.0,0.0,0.0,0.0,0.0,0.0,0.0,0.0,-0.1076,-0.1791,-0.1791,-0.2904,-0.4641,-0.6966,-0.7051,-0.7051,-0.7051,-0.7098,-0.7098,-0.7098,-0.7098,-0.7098,-0.7098,-0.7098,-0.7098,-0.7098,-0.7098,-0.7098,-0.7098,-0.7098,-0.7098,-0.7098,-0.7098,-0.7098,-0.7098,-0.7098,-0.7098,-0.7098,-0.7098,-0.7098,-0.7098,-0.7095,-0.7095,-0.7095,-0.7095,-0.7095,-0.7095,-0.7095,-0.7095,-0.7095,-0.7095,-0.7095,-0.7581,-0.9663,-0.9827,-0.9497,-0.9497,-0.9376,-0.9263,-0.9301,-0.9301,-0.9296,-0.9296,-0.9296,-0.9296,-0.9296,-0.9296,-0.9631,-1.0634,-1.0783,-1.1168,-1.215,-1.2268,-1.2268,-1.2268,-1.2268,-1.2268,-1.2268,-1.2268,-1.2268,-1.2268,-1.2268,-1.2268,-1.2298,-1.2268,-1.2261,-1.2305,-1.2305,-1.2305,-1.2305,-1.2305,-1.2305,-1.2305,-1.2305,-1.2305,-1.2305,-1.2305,-1.2652,-1.3213,-1.3213,-1.3561,-1.4088,-1.4088,-1.4088,-1.4088,-1.4088,-1.4088,-1.4088,0.0,0.0,0.0,0.0,0.0,0.0,0.0,0.0,0.0,0.0,0.0,0.0,0.0,0.0,0.0,0.0,-0.0328,-0.0888,-0.173,-0.2149,-0.3033,-0.4566,-0.4667,-0.4627,-0.465,-0.5486,-0.593,-0.6051,-0.6891,-0.736,-0.7461,-0.7461,-0.7461,-0.7461,-0.7461,-0.7461,-0.7461,-0.7461,-0.7461,-0.7461,-0.7461,-0.7461,-0.7461,-0.7461,-0.7461,-0.7448,-0.7339,-0.7302,-0.7285,-0.7132,-0.7095,-0.7095,-0.7095,-0.7095,-0.7095,-0.7095,-0.7095,-0.7095,-0.7095,-0.7095,-0.7234,-0.7768,-0.7777,-0.767,-0.7546,-0.7428,-0.7541,-0.8238,-0.8326,-0.8466,-0.9183,-0.9296,-0.9296,-0.9296,-0.9296,-0.941,-0.9707,-0.9744,-0.9857,-1.0158,-1.0196,-1.0196,-1.0196,-1.0196,-1.0196,-1.0196,-1.0196,-1.0196,-1.0196,-1.0196,-1.0533,-1.1242,-1.0571,-1.0875,-1.2298,-1.2305,-1.2305,-1.2305,-1.2305,-1.2305,-1.2305,-1.2305,-1.2305,-1.2311,-1.2563,-1.2878,-1.3227,-1.3387,-1.3741,-1.4088,-1.4088,-1.4088,-1.4088,-1.4088,-1.4088,-1.4088,0.0,0.0,0.0,0.0,0.0,0.0,0.0,0.0,0.0,0.0,0.0,0.0,0.0,0.0,0.0,0.0,0.0,-0.0286,-0.1047,-0.1095,-0.1427,-0.2138,-0.2181,-0.2625,-0.3587,-0.4328,-0.4721,-0.4789,-0.6089,-0.6749,-0.6832,-0.7359,-0.76,-0.76,-0.76,-0.76,-0.76,-0.76,-0.76,-0.76,-0.76,-0.76,-0.76,-0.76,-0.76,-0.7587,-0.7495,-0.7461,-0.7438,-0.7285,-0.7146,-0.7095,-0.7095,-0.7095,-0.7095,-0.7095,-0.7095,-0.7095,-0.7095,-0.7095,-0.7075,-0.6991,-0.6927,-0.6862,-0.681,-0.6671,-0.6745,-0.7274,-0.734,-0.7445,-0.8021,-0.8127,-0.8127,-0.8127,-0.8127,-0.8237,-0.8651,-0.8694,-0.8846,-0.9258,-0.9296,-0.9296,-0.9296,-0.9296,-0.9296,-0.9296,-0.9296,-0.9296,-0.9296,-0.9296,-0.9599,-1.019,-0.9631,-0.9895,-1.1099,-1.1099,-1.1515,-1.2305,-1.2305,-1.2305,-1.2305,-1.2305,-1.2305,-1.2318,-1.2656,-1.2958,-1.3233,-1.3487,-1.3814,-1.4088,-1.4088,-1.4088,-1.4088,-1.4088,-1.4088,-1.4088,0.0,0.0,0.0,0.0,0.0,0.0,0.0,0.0,0.0,0.0,0.0,0.0,0.0,0.0,0.0,0.0,0.0,0.0,0.0,0.0,0.0,0.0,0.0,-0.1053,-0.3245,-0.3376,-0.3423,-0.3434,-0.4804,-0.5422,-0.5479,-0.6723,-0.7256,-0.7256,-0.7256,-0.7256,-0.7256,-0.7256,-0.7351,-0.7449,-0.7449,-0.7543,-0.7638,-0.7638,-0.7638,-0.7638,-0.7624,-0.7617,-0.7594,-0.7428,-0.7278,-0.7112,-0.7098,-0.7095,-0.7095,-0.7095,-0.7095,-0.7095,-0.7095,-0.7095,-0.7095,-0.7095,-0.7001,-0.6906,-0.6906,-0.6831,-0.6681,-0.6542,-0.6532,-0.6474,-0.634,-0.631,-0.63,-0.63,-0.63,-0.6602,-0.7557,-0.7668,-0.8012,-0.8917,-0.9031,-0.9031,-0.9031,-0.9031,-0.9031,-0.9031,-0.9031,-0.9031,-0.9031,-0.9031,-0.9069,-0.915,-0.9069,-0.9107,-0.9296,-0.9221,-1.0126,-1.204,-1.204,-1.204,-1.204,-1.204,-1.2077,-1.2164,-1.2423,-1.2764,-1.3194,-1.3399,-1.3738,-1.4088,-1.4088,-1.4088,-1.4088,-1.4088,-1.4088,-1.4088,0.0,0.0,0.0,0.0,0.0,0.0,0.0,0.0,0.0,0.0,0.0,0.0,0.0,0.0,0.0,0.0,0.0,0.0,0.0,0.0,0.0,0.0,0.0,-0.0249,-0.0747,-0.1692,-0.222,-0.2335,-0.3572,-0.4255,-0.4364,-0.4662,-0.4761,-0.4761,-0.4761,-0.4761,-0.4761,-0.4761,-0.5407,-0.6352,-0.6352,-0.6999,-0.7894,-0.7894,-0.7894,-0.788,-0.7807,-0.7767,-0.7726,-0.7461,-0.7395,-0.7299,-0.7136,-0.7095,-0.7095,-0.7095,-0.7095,-0.7095,-0.7095,-0.7095,-0.7095,-0.7095,-0.7071,-0.7051,-0.7051,-0.694,-0.6868,-0.6837,-0.6637,-0.6504,-0.647,-0.6375,-0.63,-0.63,-0.63,-0.6377,-0.6606,-0.6641,-0.6718,-0.6907,-0.6949,-0.6949,-0.6949,-0.6949,-0.6949,-0.6949,-0.6949,-0.6949,-0.6949,-0.6949,-0.7326,-0.8084,-0.7365,-0.7706,-0.9296,-0.8504,-0.8727,-0.9933,-0.9933,-0.9933,-0.9933,-0.9933,-1.0383,-1.1099,-1.0605,-1.1459,-1.3154,-1.2647,-1.3096,-1.4088,-1.4088,-1.4088,-1.4088,-1.4088,-1.4088,-1.4088,0.106,0.097,0.0742,0.0094,0.0,0.0,0.0,0.0,0.0,0.0,0.0,0.0,0.0,0.0,0.0,0.0,0.0,0.0,0.0,0.0,0.0,0.0,0.0,0.0,0.0,-0.0594,-0.0989,-0.1058,-0.2342,-0.2988,-0.3065,-0.3715,-0.4016,-0.4016,-0.4016,-0.4016,-0.4016,-0.4016,-0.4418,-0.5022,-0.5022,-0.5824,-0.7033,-0.7033,-0.7437,-0.7928,-0.7202,-0.6887,-0.6813,-0.6676,-0.7016,-0.7465,-0.7383,-0.7309,-0.7251,-0.7251,-0.7156,-0.7095,-0.7095,-0.7095,-0.7095,-0.7095,-0.7095,-0.7095,-0.7095,-0.7038,-0.6967,-0.69,-0.68,-0.6668,-0.6597,-0.6501,-0.6402,-0.6402,-0.6344,-0.63,-0.63,-0.63,-0.63,-0.63,-0.63,-0.63,-0.63,-0.63,-0.63,-0.63,-0.63,-0.63,-0.63,-0.63,-0.6528,-0.7061,-0.6567,-0.6795,-0.7859,-0.7365,-0.7365,-0.7897,-0.8841,-0.9296,-0.9296,-0.9296,-0.9593,-1.0056,-0.9795,-1.0424,-1.1628,-1.1389,-1.1727,-1.2431,-1.2431,-1.2431,-1.2516,-1.3033,-1.3603,-1.4088,0.2559,0.2331,0.2,0.0861,0.067,0.0671,0.0673,0.0481,0.0339,0.0344,0.0148,0.0,0.0,0.0,0.0,0.0,0.0,0.0,0.0,0.0,0.0,0.0,0.0,0.0,0.0,0.0,0.0,0.0,-0.1109,-0.1661,-0.1661,-0.2815,-0.3316,-0.3316,-0.3316,-0.3316,-0.3316,-0.3316,-0.3466,-0.3665,-0.3665,-0.447,-0.5677,-0.5677,-0.6329,-0.7182,-0.6077,-0.5567,-0.5491,-0.5475,-0.6139,-0.6963,-0.6938,-0.6852,-0.6752,-0.6728,-0.6641,-0.6497,-0.652,-0.6647,-0.6738,-0.6558,-0.6647,-0.6827,-0.6827,-0.6962,-0.7061,-0.6947,-0.6903,-0.6849,-0.6763,-0.6614,-0.6552,-0.6552,-0.6429,-0.6337,-0.6337,-0.6317,-0.63,-0.63,-0.63,-0.63,-0.63,-0.63,-0.63,-0.63,-0.63,-0.63,-0.63,-0.63,-0.63,-0.63,-0.63,-0.63,-0.63,-0.63,-0.63,-0.6338,-0.7974,-0.877,-0.877,-0.877,-0.8879,-0.9041,-0.9101,-0.9414,-0.9857,-0.9962,-1.0213,-1.0542,-1.0542,-1.0562,-1.0684,-1.1664,-1.2638,-1.3519,0.3749,0.3752,0.3677,0.3497,0.3458,0.3477,0.348,0.2495,0.175,0.1705,0.0703,0.0,0.0,0.0,0.0,0.0,0.0,0.0,0.0,0.0,0.0,0.0,0.0,0.0,0.0,0.0,0.0,0.0,-0.0202,-0.0252,-0.0252,-0.0454,-0.0555,-0.0555,-0.0555,-0.0555,-0.0555,-0.0555,-0.1209,-0.2264,-0.2264,-0.3065,-0.4268,-0.4268,-0.4368,-0.4516,-0.4318,-0.426,-0.4241,-0.4126,-0.4195,-0.427,-0.4199,-0.412,-0.4098,-0.4118,-0.4089,-0.4063,-0.4078,-0.4821,-0.5356,-0.4328,-0.4865,-0.5625,-0.5625,-0.6381,-0.7092,-0.7071,-0.697,-0.6879,-0.6859,-0.6773,-0.6668,-0.6668,-0.6542,-0.6484,-0.6484,-0.6378,-0.63,-0.63,-0.63,-0.63,-0.63,-0.63,-0.63,-0.63,-0.63,-0.63,-0.63,-0.63,-0.63,-0.63,-0.63,-0.63,-0.63,-0.63,-0.63,-0.63,-0.6567,-0.6718,-0.6718,-0.6718,-0.7176,-0.7974,-0.7123,-0.7883,-0.967,-0.8829,-0.9204,-1.0249,-1.0249,-1.0321,-1.0469,-1.0749,-1.0913,-1.1085,0.5234,0.5099,0.4865,0.4113,0.4019,0.398,0.4011,0.3515,0.2865,0.2113,0.146,0.0807,0.0101,0.0,0.0,0.0,0.0,0.0,0.0,0.0,0.0,0.0,0.0,0.0,0.0,0.0,0.0,0.0,0.0,0.0,0.0,0.0,0.0,0.0,0.0,0.0,0.0,0.0,-0.0353,-0.0907,-0.0907,-0.1661,-0.2864,-0.2864,-0.3366,-0.3915,-0.3165,-0.2864,-0.2862,-0.2839,-0.3276,-0.3913,-0.3831,-0.3794,-0.3708,-0.3725,-0.3655,-0.3584,-0.3596,-0.4008,-0.4283,-0.3748,-0.4016,-0.4374,-0.4374,-0.4774,-0.5531,-0.6827,-0.7048,-0.7004,-0.7004,-0.6883,-0.6827,-0.6827,-0.6698,-0.66,-0.66,-0.6511,-0.6388,-0.631,-0.63,-0.63,-0.63,-0.63,-0.63,-0.63,-0.63,-0.63,-0.63,-0.63,-0.63,-0.63,-0.63,-0.63,-0.63,-0.63,-0.63,-0.63,-0.63,-0.63,-0.63,-0.63,-0.6528,-0.6945,-0.649,-0.6922,-0.7894,-0.7422,-0.7644,-0.825,-0.825,-0.8728,-0.9452,-0.9502,-0.999,-1.0611]}]]